GFSSW_700_rhum_000.txt.gz
RH
35 39 39 36 40 54 62 63 63 60 61 68 62 64 58 50 39 24 22 27 57 71 74 74 68 69 67 63 64 65 62 47 36 16 22 33 43 47 44 42 42 41 39 36 36
41 44 34 35 40 37 30 26 40 45 64 74 57 53 61 57 48 38 25 24 35 69 78 78 73 72 69 67 71 72 65 50 42 22 30 30 35 44 43 42 41 40 40 38 37
49 50 42 49 42 40 48 46 63 60 68 76 70 51 50 60 55 40 33 24 25 48 75 86 85 83 75 74 74 69 64 59 38 33 27 30 32 42 46 42 42 40 38 39 39
53 61 58 63 69 52 62 67 59 74 65 53 64 61 57 64 64 49 41 34 24 39 86 96 94 87 81 81 69 68 65 63 43 32 28 35 32 33 41 42 41 41 40 40 41
46 56 68 64 61 55 66 76 67 66 65 51 39 42 68 56 53 54 44 38 29 30 73 98 96 87 78 70 74 78 67 64 52 31 26 36 27 25 29 37 37 40 39 40 42
80 83 57 66 66 60 54 60 65 74 64 55 62 53 54 47 44 59 41 41 34 34 64 98 94 85 83 78 80 75 71 68 58 39 26 29 19 14 11 22 29 32 39 40 40
97 92 75 66 72 70 68 69 56 67 75 82 65 58 66 37 44 58 34 35 38 99 97 93 92 86 92 89 86 77 75 68 58 42 33 39 18 12 11 20 25 38 36 35 31
100 100 86 78 94 79 63 79 79 78 69 82 73 65 68 40 46 95 36 33 34 54 87 94 91 100 94 86 80 80 68 63 40 18 18 40 18 21 27 33 25 27 32 31 28
95 98 79 77 65 58 52 77 86 79 79 80 86 85 67 55 46 94 89 36 32 57 86 100 91 82 99 94 88 64 63 50 29 28 35 41 25 32 36 38 39 36 35 33 30
96 98 98 99 98 72 58 82 84 90 86 92 95 99 67 37 41 97 98 62 37 77 98 92 97 99 97 99 84 71 61 44 39 36 37 40 32 32 31 36 34 33 32 30 28
99 97 99 98 98 96 86 91 98 98 90 98 86 80 56 43 57 97 84 87 53 78 96 97 99 97 96 89 74 71 49 42 36 33 33 36 40 35 28 30 32 32 30 25 26
100 100 100 98 98 97 92 98 97 85 97 95 74 78 66 61 69 93 99 98 61 75 86 98 97 87 92 75 79 77 52 42 38 40 41 40 35 31 28 32 34 35 30 29 29
99 98 98 96 99 98 98 98 98 95 95 82 67 68 80 75 77 99 99 99 68 94 100 100 98 94 87 92 88 70 45 48 46 45 42 39 35 35 34 35 36 28 26 26 23
100 99 97 99 97 98 98 98 87 90 86 68 67 76 96 65 93 72 100 100 77 99 100 99 97 85 96 90 79 52 51 48 44 46 42 42 42 35 34 35 30 26 24 23 23
100 99 98 99 96 89 95 98 99 99 97 87 86 89 95 77 80 99 100 99 81 96 97 87 94 84 95 63 51 50 52 48 42 44 43 39 43 36 36 34 32 30 27 24 26
100 99 97 99 99 99 99 98 99 100 98 98 99 98 99 100 86 100 100 99 95 81 94 87 91 84 75 53 58 53 47 48 48 47 52 36 39 34 30 22 30 31 30 26 29
98 99 100 100 99 99 99 99 99 99 99 98 99 99 99 100 100 99 100 100 98 96 88 74 85 52 50 58 50 48 55 52 55 58 60 38 40 28 29 26 28 29 30 29 29
78 93 96 96 100 99 99 99 99 99 99 100 98 99 99 98 100 99 99 98 100 85 82 76 65 58 57 54 50 47 52 49 64 70 54 37 36 31 28 29 30 34 36 34 34
61 71 77 95 100 100 100 100 98 98 99 98 100 99 99 98 98 100 100 94 82 66 57 64 54 56 52 50 47 46 47 47 50 52 51 41 38 35 33 28 32 32 33 36 38
49 68 82 93 97 100 100 99 99 97 97 100 98 98 100 99 98 94 99 80 70 65 51 48 51 53 50 51 51 46 44 48 50 54 53 43 38 36 32 32 32 32 34 36 34
58 69 98 93 96 100 99 98 99 100 98 98 97 99 91 78 83 84 82 85 58 51 61 42 42 52 51 52 50 50 48 46 44 42 55 54 39 34 32 33 33 35 36 37 38
59 74 98 93 99 97 100 100 99 99 100 99 83 83 86 79 78 77 61 62 54 51 64 54 46 50 58 53 51 52 48 46 39 43 43 42 36 34 33 35 37 37 43 43 48
84 93 91 98 94 85 98 100 100 100 99 99 98 98 78 90 76 64 60 56 52 54 68 64 61 67 66 64 60 57 53 52 47 44 45 48 38 35 35 38 45 46 48 50 50
78 85 90 85 90 86 88 84 99 100 99 98 100 89 94 68 65 61 58 62 62 61 63 64 62 55 59 54 56 57 53 50 49 44 41 40 36 35 37 38 45 47 41 40 45
80 79 80 96 94 84 83 69 71 92 99 97 99 93 81 76 69 68 67 64 66 60 58 58 57 51 48 46 52 54 52 48 45 43 40 34 31 29 34 37 33 31 39 55 57
66 75 79 86 87 82 75 65 61 64 78 93 86 90 79 70 66 65 64 65 66 64 61 53 55 50 47 45 41 40 44 45 44 43 36 29 22 40 46 46 48 54 56 55 57
62 55 52 55 62 65 63 58 62 60 65 64 65 78 79 64 68 80 69 64 54 51 46 46 35 46 29 28 24 30 31 32 29 26 36 48 49 49 49 52 54 57 60 62 62

GFSSW_700_rhum_006.txt.gz
RH
54 55 57 48 39 32 27 29 94 74 72 85 88 98 88 81 74 78 57 38 23 36 75 80 74 71 67 64 62 63 64 57 55 53 41 25 30 44 45 41 40 44 43 41 37
57 54 56 55 51 39 35 34 31 68 95 97 99 89 88 83 75 72 65 54 28 26 45 85 79 77 72 71 67 66 63 55 53 58 56 36 26 37 44 43 43 44 43 40 41
55 54 55 58 47 38 37 34 34 40 47 66 75 89 98 88 69 56 72 65 45 27 34 68 87 89 81 76 70 69 67 53 52 61 64 40 21 26 41 44 44 44 43 42 41
56 54 56 58 46 44 45 44 47 36 40 54 52 67 64 73 77 57 61 67 56 33 34 52 90 92 82 80 73 72 66 56 53 60 65 51 37 20 28 38 44 44 43 42 39
66 62 56 59 47 43 52 46 47 70 70 62 51 63 74 77 52 71 68 61 62 39 41 77 76 88 80 75 76 77 67 59 59 61 62 64 46 33 18 27 35 38 39 40 38
78 75 68 60 56 45 58 54 45 52 66 76 71 79 87 76 58 74 79 66 63 48 37 90 66 66 92 88 80 78 68 62 66 58 64 63 52 62 16 15 23 26 26 27 36
83 84 80 68 71 68 55 66 64 52 55 71 86 88 76 43 74 64 76 69 66 53 32 54 63 84 98 94 86 87 81 78 62 55 56 61 52 26 20 16 14 17 15 14 27
87 96 93 88 83 65 64 77 86 69 58 65 76 90 58 66 73 61 76 69 67 56 40 59 77 86 98 99 95 92 91 88 53 58 59 56 34 16 26 14 21 30 21 21 28
100 100 100 94 85 94 72 73 79 77 78 74 75 89 78 60 63 52 65 69 69 56 41 66 91 99 99 97 87 87 85 82 68 61 49 38 24 26 22 27 36 38 34 27 30
100 100 99 99 88 94 98 100 86 89 84 80 79 98 68 61 65 63 64 69 76 55 41 99 98 94 98 99 98 77 80 77 72 63 45 39 31 27 36 38 38 37 38 37 32
100 100 98 98 95 97 98 98 85 81 81 66 65 67 72 65 69 62 66 69 90 53 61 91 99 98 88 70 70 83 83 76 67 58 47 39 36 28 32 36 32 32 34 37 33
100 99 99 98 97 98 99 99 89 81 79 74 72 70 68 80 66 70 81 86 93 52 86 100 98 93 94 72 85 86 93 86 68 65 50 44 38 31 31 30 27 29 31 32 33
100 100 99 98 98 99 98 100 98 97 96 83 67 67 80 97 78 64 80 98 94 56 86 99 90 92 95 82 94 97 97 83 75 68 63 45 37 29 30 30 31 30 33 35 35
100 100 99 99 98 98 96 98 97 98 98 89 84 72 96 96 85 64 80 88 85 55 98 100 100 100 98 88 84 96 77 80 80 84 56 50 54 40 25 31 30 34 35 34 33
98 100 100 99 99 98 98 99 98 98 96 83 82 82 82 86 75 66 86 99 76 49 97 95 97 99 100 84 81 80 67 86 88 67 55 52 50 38 28 25 30 29 35 32 32
85 100 100 99 98 99 99 97 96 98 95 83 84 86 99 79 87 66 66 84 98 51 81 100 89 95 84 92 91 82 96 86 70 55 61 48 48 35 26 33 32 32 35 35 35
26 94 99 99 98 98 98 97 98 98 94 84 86 91 93 85 97 71 69 92 94 81 97 92 90 92 83 97 97 99 96 83 64 67 71 43 46 34 22 32 31 33 35 36 37
25 40 72 98 99 98 98 98 98 98 84 80 78 68 87 72 97 86 99 100 99 60 88 94 98 100 99 86 89 99 96 58 71 75 62 49 46 26 27 27 29 29 36 38 39
37 43 66 100 99 98 98 99 93 83 98 98 83 60 69 82 99 96 98 99 99 83 82 99 86 88 82 73 84 98 92 57 57 64 67 52 41 33 30 33 30 31 32 37 40
43 49 76 100 100 98 99 98 99 98 96 98 100 87 86 97 99 99 99 97 98 86 62 84 80 81 84 94 92 80 64 60 57 65 68 56 44 40 36 36 33 29 32 38 41
55 72 83 99 100 99 98 98 99 97 88 91 90 89 93 85 99 99 96 100 100 94 70 70 66 77 83 79 84 70 60 56 53 54 62 63 39 36 35 35 33 33 38 42 46
72 81 94 100 99 99 99 99 99 89 85 84 76 99 94 96 100 99 98 97 96 80 66 69 58 68 57 54 56 55 55 53 50 54 52 49 46 38 34 34 35 39 45 47 42
93 96 100 100 100 100 100 99 99 91 90 92 93 91 80 91 93 98 100 94 91 78 73 61 54 71 74 61 55 56 54 52 49 46 44 50 42 36 35 35 37 46 45 46 46
96 98 96 98 100 100 100 98 99 99 100 100 93 94 90 86 74 91 94 98 78 70 69 56 54 52 70 63 58 55 55 54 51 50 48 46 42 37 34 34 38 42 42 44 47
87 86 92 94 99 100 100 100 100 99 100 100 96 89 82 91 80 79 80 85 92 70 68 73 56 50 46 48 50 54 46 50 53 50 51 48 48 46 40 37 39 40 42 47 48
55 62 85 90 98 100 100 100 100 100 98 96 88 91 88 70 76 68 80 72 76 87 71 89 62 60 57 49 53 52 48 47 46 49 52 54 50 41 42 42 45 46 45 43 52
42 68 83 91 98 98 99 99 100 98 100 92 78 91 87 89 70 63 68 66 64 65 68 74 60 55 54 57 58 56 52 50 53 55 54 55 51 50 48 40 42 52 53 54 53

GFSSW_700_rhum_009.txt.gz
RH
48 51 53 52 50 50 49 42 33 69 82 50 81 88 89 82 86 76 57 61 58 37 26 76 86 73 70 64 63 62 63 56 52 53 54 43 26 30 45 40 42 40 43 42 41
54 54 52 47 44 44 48 46 40 33 31 37 94 88 77 88 94 76 64 68 66 52 29 38 96 84 76 70 69 69 63 56 49 53 59 56 32 30 40 43 45 43 42 42 42
55 54 55 52 48 49 45 37 34 34 35 40 40 69 98 94 89 67 74 66 72 67 41 25 72 96 83 77 76 70 64 56 46 55 59 63 47 28 35 41 45 45 43 43 43
66 64 64 59 55 48 44 39 36 33 29 32 38 63 96 98 83 86 75 61 67 72 53 27 44 99 94 82 76 70 72 58 47 55 62 62 57 29 23 34 41 46 45 44 44
69 65 68 68 65 57 47 41 42 41 38 42 47 68 71 60 47 66 72 55 46 73 61 33 70 95 98 78 82 77 76 62 55 57 60 60 57 57 25 25 29 37 44 44 43
69 72 77 80 76 64 55 45 46 44 40 53 70 80 72 60 63 69 70 56 61 69 67 42 78 98 92 94 84 70 78 66 62 61 62 60 55 62 23 22 22 23 30 33 38
83 86 81 87 88 76 65 54 50 52 49 48 70 74 77 56 71 81 69 59 85 76 68 47 66 100 99 95 82 86 85 74 64 58 59 58 53 50 46 35 21 17 17 21 26
87 94 100 100 100 93 76 60 54 57 64 59 64 85 72 60 66 67 66 69 100 80 66 58 93 99 98 97 91 91 95 90 61 65 55 62 49 45 28 15 18 18 26 21 15
92 89 100 100 100 99 98 90 74 74 85 75 77 82 75 58 64 63 73 69 100 83 63 95 100 99 100 90 90 91 87 90 71 60 61 63 46 38 30 33 32 41 38 29 24
94 94 99 100 100 100 99 99 100 86 92 90 74 84 73 66 61 60 66 70 94 95 67 93 100 100 98 87 98 90 82 83 71 68 65 55 44 35 32 37 40 40 39 38 34
91 95 97 99 100 100 98 98 99 100 79 79 66 64 68 73 72 71 68 66 84 99 65 94 100 100 95 85 77 74 68 72 70 70 73 53 46 36 28 32 35 37 35 37 39
82 100 97 100 99 99 98 99 99 98 96 96 81 70 68 69 74 68 70 61 78 99 65 98 100 97 98 80 86 87 84 77 72 77 76 69 48 37 31 25 32 35 32 30 32
74 100 100 100 99 98 98 98 99 98 98 89 80 73 70 70 64 83 67 54 82 99 67 83 97 95 100 90 88 88 77 74 87 79 75 74 53 37 30 26 24 27 33 29 32
33 91 96 100 99 98 98 98 98 98 97 89 81 75 73 86 66 92 65 58 98 99 68 93 100 98 98 85 86 87 83 78 85 91 87 74 58 45 36 27 24 30 37 30 35
18 32 91 98 99 98 98 98 98 98 98 88 87 96 64 72 79 84 60 85 97 94 78 98 100 96 99 82 84 97 84 86 90 94 91 70 56 47 38 30 31 34 37 35 34
20 19 23 78 93 98 98 98 98 98 96 97 96 90 83 80 95 80 63 90 99 95 78 100 98 100 87 85 91 94 76 86 96 94 62 60 55 46 22 33 31 35 34 35 32
20 23 28 44 80 99 98 98 98 98 91 97 96 96 79 78 98 80 67 100 98 98 95 100 100 98 100 100 100 99 88 96 96 80 67 50 52 39 30 29 32 34 33 35 36
21 30 48 63 88 98 98 98 98 93 93 91 85 95 88 90 98 82 64 99 99 84 83 100 100 98 95 100 95 98 92 84 76 71 60 55 52 29 32 30 34 33 36 36 38
22 48 57 74 92 98 98 98 86 96 98 89 87 94 98 83 94 84 83 98 98 86 70 98 98 99 84 86 85 100 98 82 61 66 65 53 46 38 36 34 35 35 34 37 39
31 58 71 86 100 99 98 97 96 98 98 72 80 83 87 84 99 86 85 78 96 81 64 70 85 98 93 100 98 88 83 98 68 67 70 60 51 44 39 38 37 33 32 36 40
44 81 97 100 100 98 98 97 97 99 98 78 78 80 71 75 99 91 75 95 98 77 80 67 68 85 94 96 97 96 98 96 68 58 62 58 40 38 38 35 35 33 35 37 41
59 92 99 100 99 98 98 96 99 98 96 93 82 66 50 68 90 98 98 99 91 78 82 73 63 76 90 86 89 76 83 90 57 60 56 53 46 39 33 35 34 33 37 42 48
94 96 100 100 99 99 99 99 99 93 94 88 79 91 68 68 99 99 88 85 83 80 71 69 67 75 72 73 64 79 84 71 66 54 50 53 44 40 36 35 35 37 40 47 48
90 94 100 100 100 99 99 99 99 97 94 95 86 92 93 85 88 91 100 93 94 73 71 67 61 64 72 66 63 64 75 69 57 57 52 50 46 42 39 39 38 37 40 43 47
90 93 95 99 99 100 100 99 100 99 100 100 99 82 81 85 92 88 99 96 98 93 86 74 64 58 58 58 58 54 59 58 55 55 52 50 47 41 44 46 42 41 42 44 48
62 87 68 89 90 100 100 100 99 100 100 98 94 90 91 79 82 80 61 93 94 97 89 87 73 61 53 57 60 59 56 54 54 52 54 53 47 40 46 49 42 44 48 47 47
21 43 63 89 98 100 99 100 100 99 100 94 78 87 98 95 75 68 64 71 83 89 89 84 70 64 60 60 62 66 52 54 54 51 43 45 30 44 50 44 44 44 43 43 45

GFSSW_700_rhum_012.txt.gz
RH
47 49 50 50 50 50 48 47 48 49 43 98 98 91 85 86 86 78 53 57 69 64 55 30 53 82 75 67 63 57 67 58 57 54 52 55 42 26 39 42 41 42 43 43 42
54 55 52 50 48 45 42 40 41 43 39 75 93 65 79 80 95 85 74 69 64 74 62 52 29 90 85 74 68 66 71 61 64 57 47 53 57 38 33 40 42 43 42 42 42
55 57 58 56 57 55 49 44 43 43 41 38 35 34 39 72 96 82 64 79 82 78 73 67 35 45 90 81 81 76 74 68 55 51 52 50 56 54 35 35 39 44 44 43 41
52 59 59 58 59 60 55 46 40 36 33 32 32 32 42 68 86 90 67 67 74 76 74 72 47 36 82 96 89 80 64 74 56 54 57 54 52 54 43 33 37 38 44 45 45
51 64 68 68 68 68 62 52 43 40 38 36 32 30 38 42 57 89 80 63 55 72 63 74 59 38 62 95 100 78 80 72 57 56 58 57 51 55 47 27 28 30 38 44 44
44 55 67 75 75 77 72 61 50 45 44 36 35 48 43 53 36 52 68 68 64 54 59 67 70 71 91 96 99 89 82 76 65 60 64 58 49 60 44 47 31 28 27 38 42
36 52 66 79 78 91 90 73 60 51 50 40 49 62 64 52 60 56 53 56 57 59 53 58 68 90 72 94 99 99 98 91 67 62 68 58 48 50 48 52 45 37 22 24 26
25 45 74 88 90 98 99 89 75 64 55 60 71 66 71 51 61 57 68 61 60 54 53 67 68 98 97 97 97 100 100 86 74 84 68 63 61 56 52 32 21 18 20 20 19
20 45 79 85 90 99 99 97 93 88 82 69 71 70 68 46 44 54 66 62 64 68 64 78 67 99 100 99 94 99 86 86 74 83 75 75 60 53 34 32 34 35 30 30 24
20 41 80 93 83 100 99 97 98 93 100 90 92 86 60 47 49 55 71 64 69 78 99 87 91 100 96 93 94 84 83 72 76 71 61 68 55 53 45 34 37 39 38 38 32
19 34 86 93 100 96 97 98 99 100 99 79 80 74 68 56 62 60 68 72 76 78 98 92 99 99 95 100 84 66 68 73 70 69 72 70 66 60 42 37 33 36 37 36 36
23 20 84 96 93 100 98 97 96 99 99 98 96 93 93 76 65 76 73 71 70 75 98 99 98 94 100 99 87 81 78 75 65 70 76 70 70 64 44 36 29 33 35 35 33
28 19 55 94 93 92 99 98 98 98 98 97 97 97 96 82 62 80 77 67 59 60 96 91 86 98 100 99 94 85 79 66 66 80 83 77 58 52 42 36 31 28 33 34 32
58 29 20 70 64 90 99 98 98 98 98 95 96 92 94 96 71 63 83 73 80 85 94 98 98 89 99 98 94 95 86 83 83 90 70 76 52 52 44 33 33 29 27 28 32
78 55 33 19 22 67 95 98 98 98 95 86 90 95 86 79 86 64 73 80 77 94 96 93 97 100 100 96 92 82 83 87 93 94 84 72 62 45 39 37 33 29 28 35 34
79 61 34 32 33 58 93 98 98 98 90 92 96 95 95 83 75 90 92 82 84 99 98 83 99 100 100 94 99 96 92 92 91 89 68 58 56 41 39 33 31 34 35 38 36
81 60 28 34 50 83 98 98 98 97 93 98 97 97 97 90 91 91 87 76 97 98 98 94 99 93 100 99 100 98 98 99 95 93 60 55 56 40 38 32 33 35 32 35 36
85 61 28 43 72 88 98 98 98 96 95 96 96 98 98 90 92 96 100 100 93 100 94 98 100 100 98 98 96 98 83 60 62 58 48 57 49 39 34 32 27 32 36 34 36
91 61 33 73 83 98 98 98 94 96 96 96 98 96 100 98 78 99 98 92 98 99 86 97 100 100 99 100 94 100 98 74 58 59 49 45 48 38 38 38 33 38 31 36 37
96 44 56 94 99 98 98 98 97 97 97 98 93 95 95 100 94 100 88 86 85 96 97 93 99 100 100 98 99 98 92 88 71 59 54 42 46 37 40 36 37 36 37 37 38
98 40 72 96 100 98 98 96 98 98 98 99 85 93 83 94 88 93 89 84 65 86 97 98 90 98 98 98 95 100 99 95 71 60 43 39 36 40 35 29 34 36 35 36 38
77 67 91 100 99 98 98 96 96 99 99 79 89 82 80 93 83 98 89 93 74 79 92 74 67 96 94 92 94 85 88 89 73 62 56 48 37 38 37 31 31 34 35 37 41
53 88 99 100 100 99 98 98 99 99 92 98 80 88 73 65 90 97 79 90 63 78 71 74 67 73 99 89 84 97 93 88 68 58 53 47 42 41 36 33 34 34 36 39 44
59 98 100 100 100 99 99 99 99 94 92 99 85 81 58 57 85 73 96 70 79 83 75 73 68 55 56 59 69 78 82 82 79 69 55 51 44 44 41 38 38 38 38 40 43
51 87 97 99 97 99 99 99 100 97 98 100 92 85 78 78 96 91 91 90 86 81 77 82 68 68 64 60 60 59 61 61 73 70 60 52 54 47 48 45 42 45 42 41 42
58 70 96 91 91 100 99 98 99 97 98 97 96 94 89 67 78 90 95 93 89 87 79 86 77 65 61 62 64 62 58 57 58 68 63 57 53 53 52 48 43 48 48 45 46
84 43 81 76 83 100 99 99 99 100 99 96 96 96 100 89 76 70 88 93 76 71 90 90 82 71 59 61 66 67 65 59 53 54 54 56 44 53 45 43 46 47 48 52 53

GFSSW_700_rhum_015.txt.gz
RH
39 46 54 51 49 47 46 47 50 44 68 81 78 85 94 96 96 80 56 49 47 52 61 56 42 26 74 73 70 60 69 57 51 49 46 49 51 46 39 36 38 38 42 46 44
37 49 54 58 56 53 51 49 44 46 45 46 53 90 95 100 99 95 66 79 65 49 57 65 60 29 58 82 96 78 68 58 51 49 50 50 56 60 37 47 49 47 43 44 43
37 50 55 59 57 57 55 52 51 46 44 42 40 40 100 100 98 81 70 74 77 64 47 61 64 60 81 98 93 88 72 61 57 55 60 59 60 60 58 28 45 49 47 50 46
40 46 58 62 62 66 64 60 54 48 42 41 40 40 39 56 78 87 53 44 63 54 63 52 67 61 76 86 95 87 77 71 62 63 69 66 61 63 66 48 57 56 47 47 44
34 42 52 58 76 76 76 70 62 54 43 36 34 35 39 62 65 62 69 55 58 66 66 64 56 69 60 97 99 96 78 72 72 70 71 67 54 47 48 64 36 36 41 37 41
25 33 44 63 83 87 90 77 66 61 49 40 40 46 40 60 41 70 48 56 62 61 58 71 67 62 95 90 96 92 85 80 72 74 73 72 59 65 52 47 53 58 56 33 33
19 24 33 69 86 83 91 84 79 70 57 46 52 64 78 39 47 40 39 36 48 58 63 53 89 96 98 92 87 94 85 84 77 74 74 72 73 57 54 49 60 50 43 32 29
21 20 22 67 78 80 91 89 85 79 65 51 52 88 79 39 46 39 47 54 49 47 45 52 73 77 97 97 97 90 94 93 82 73 71 78 65 55 53 55 48 42 27 30 24
35 19 20 61 89 96 98 97 90 85 69 58 56 79 84 41 43 55 57 52 58 60 52 59 98 80 75 98 90 98 88 91 88 67 65 73 64 53 52 53 46 41 41 28 27
47 24 19 45 89 98 100 100 96 97 91 80 85 82 64 52 46 44 47 56 64 64 69 85 77 93 73 95 97 90 94 72 78 62 72 68 65 59 57 51 48 42 39 36 35
50 42 21 20 88 93 100 99 100 97 92 78 82 76 73 67 57 49 47 47 65 95 91 96 96 97 61 78 93 77 75 68 61 58 61 65 62 56 51 52 51 47 42 37 38
56 54 28 19 63 98 100 98 100 98 100 95 96 88 96 88 77 63 55 64 89 98 100 99 97 89 66 63 100 92 81 59 55 60 66 60 58 54 53 56 55 47 45 37 36
62 62 47 29 26 75 100 99 100 100 99 97 93 100 98 98 92 85 65 62 96 99 96 98 63 74 95 95 100 98 82 54 58 66 67 64 64 63 60 58 52 38 45 38 38
69 69 76 62 34 40 51 71 100 99 98 97 80 93 99 98 95 91 87 82 98 94 98 98 94 99 99 97 98 100 77 62 64 72 62 68 45 39 42 48 41 38 35 32 38
76 76 88 83 51 52 39 64 100 98 96 90 98 99 98 98 97 77 60 76 100 95 94 84 82 97 100 96 98 96 85 70 80 75 88 77 64 44 43 42 40 34 35 33 31
90 84 96 98 53 66 61 100 99 98 93 94 94 92 97 98 93 82 60 69 100 98 98 90 87 99 95 98 100 98 80 85 86 77 69 59 55 38 40 40 39 35 35 33 34
99 97 98 100 58 85 91 100 98 97 93 98 96 97 96 96 94 94 100 100 98 98 95 94 84 100 95 100 100 100 94 95 87 93 51 47 48 40 36 30 31 30 36 36 41
100 100 100 100 85 89 99 99 98 96 92 97 97 97 98 96 99 96 100 99 97 86 98 97 98 99 99 100 98 100 94 57 58 55 43 52 47 39 42 42 41 34 38 40 40
100 100 99 100 92 95 100 98 97 98 96 97 97 98 96 99 96 98 94 93 98 75 98 93 94 100 99 96 100 100 87 64 54 46 38 47 45 42 31 33 36 30 32 34 37
100 100 98 100 81 100 98 98 97 97 98 98 94 91 94 98 94 99 91 85 90 84 96 97 94 100 99 100 95 98 86 72 57 51 46 37 36 36 41 38 37 38 37 34 36
100 100 99 85 100 100 97 98 97 97 98 98 92 86 78 92 98 98 87 77 77 80 96 99 99 100 99 100 97 100 99 81 56 49 40 36 34 39 38 31 32 37 38 38 36
100 100 98 86 100 99 98 97 96 98 98 98 96 71 69 77 92 89 80 67 76 75 98 98 99 99 98 97 95 85 94 75 58 54 48 43 37 40 35 29 30 35 35 38 37
100 100 97 100 100 99 99 98 98 98 96 99 93 77 69 86 84 98 85 70 94 64 98 88 92 99 100 96 100 99 87 82 70 57 48 40 39 38 36 30 32 34 34 35 37
99 99 100 98 99 98 99 98 98 96 99 85 91 79 71 80 81 81 94 88 88 66 100 99 89 68 56 57 75 90 82 80 73 62 51 46 42 39 36 34 36 35 36 36 38
99 98 99 99 96 99 99 98 99 100 88 98 97 87 80 76 80 86 86 91 97 82 94 99 72 59 55 56 69 74 78 80 77 69 55 48 48 44 45 48 47 44 36 40 39
99 100 81 100 99 99 99 98 98 100 89 98 98 96 89 73 72 91 89 100 96 90 93 99 79 66 64 61 58 58 63 68 72 70 64 55 52 48 49 49 46 48 42 47 47
99 100 80 89 100 96 96 99 98 99 98 94 95 97 94 80 78 97 87 95 99 77 95 100 89 67 55 62 67 64 59 59 63 63 60 56 54 54 53 51 50 44 44 43 47

GFSSW_700_rhum_018.txt.gz
RH
12 25 39 51 53 50 47 48 49 50 50 44 48 94 97 91 88 88 83 72 50 44 43 50 58 51 29 36 71 87 83 74 64 59 51 45 46 47 44 30 37 40 43 46 46
15 24 40 50 53 56 54 52 52 51 48 47 45 86 86 83 80 75 67 87 75 62 45 39 61 61 44 37 69 86 86 64 59 54 49 48 49 50 57 49 32 50 46 44 42
17 26 44 50 56 58 58 54 53 53 53 51 46 44 54 64 83 74 80 48 55 71 75 51 58 67 58 58 93 82 77 66 62 55 50 51 51 53 58 60 32 48 52 48 50
20 24 42 50 53 53 60 64 66 64 60 53 48 45 42 41 78 84 70 41 40 54 79 67 53 72 71 78 96 98 90 81 60 60 57 57 55 53 57 58 56 55 58 52 51
32 20 31 40 48 56 67 64 61 68 64 58 50 43 41 39 35 46 52 42 44 44 63 69 70 68 75 88 99 94 97 83 77 66 63 66 65 57 56 44 44 38 33 41 40
38 24 23 31 36 57 70 55 61 69 68 62 54 46 40 38 38 43 46 49 61 56 74 77 92 82 97 92 93 91 92 77 83 72 70 68 69 70 48 54 35 44 49 60 60
39 36 21 24 30 58 66 60 61 72 76 70 61 51 46 43 48 46 60 38 45 57 66 69 99 100 100 90 95 91 97 87 76 80 72 72 70 70 46 54 32 42 60 49 45
39 44 29 21 22 59 80 76 78 76 80 80 69 57 54 46 49 39 45 40 38 37 39 53 96 98 95 100 89 92 92 97 74 82 75 76 73 53 60 55 44 54 48 43 43
32 48 44 23 21 47 85 85 89 94 90 90 77 67 56 46 45 46 43 44 54 53 47 49 58 96 98 96 96 88 90 82 79 81 78 71 68 55 52 52 54 54 47 42 35
30 49 53 37 22 27 84 93 90 96 99 98 93 86 65 47 47 46 47 54 59 57 63 60 73 70 91 91 95 95 99 87 85 69 80 73 67 61 54 53 53 49 46 41 39
34 48 58 53 29 22 44 83 69 79 87 93 96 85 80 66 62 59 57 48 60 75 96 85 89 64 37 60 35 74 88 86 72 74 76 72 63 62 63 53 55 54 51 42 40
42 44 64 64 40 28 23 58 83 94 96 98 99 98 97 92 84 79 69 66 60 74 97 97 89 35 54 84 72 98 100 90 82 69 68 64 61 64 63 55 54 51 51 45 41
46 46 73 72 61 44 33 41 64 80 100 98 94 100 95 100 93 98 86 69 58 66 94 90 40 77 85 90 98 98 99 92 97 74 69 65 60 61 56 53 50 52 53 48 44
51 48 80 76 74 72 57 53 47 95 99 97 93 93 94 99 100 100 98 96 89 87 89 96 71 86 98 92 90 93 92 90 100 94 88 69 62 49 40 44 51 52 57 46 45
71 60 88 91 93 95 76 56 43 100 97 97 99 94 87 93 98 90 95 98 96 82 92 80 87 87 90 78 74 93 92 78 96 100 78 73 64 58 44 42 48 54 50 48 41
96 85 100 100 99 98 71 73 89 99 93 91 95 79 88 77 93 98 84 98 96 97 97 86 94 90 69 63 75 83 98 100 100 96 94 78 63 51 43 44 45 46 44 44 40
100 100 100 100 100 98 75 91 100 98 86 98 91 90 90 98 99 98 98 95 94 99 92 94 88 82 96 79 71 99 99 100 100 99 79 56 60 50 39 41 41 43 41 39 36
100 100 100 100 99 99 79 97 98 85 83 96 96 97 98 98 96 97 98 98 84 83 95 96 83 60 88 92 98 98 100 100 96 92 60 49 52 47 44 41 36 38 35 37 38
99 100 100 100 99 99 97 100 96 98 96 96 97 98 96 96 97 95 93 89 87 88 98 83 96 92 94 69 99 99 99 89 73 41 51 52 47 43 42 44 42 38 39 32 35
89 100 99 99 99 99 99 98 99 98 97 97 97 97 96 93 93 95 91 73 78 89 90 88 98 75 99 86 100 99 94 100 77 59 65 52 45 40 38 33 37 37 32 31 35
98 100 98 99 99 98 98 100 99 98 97 98 96 98 88 94 72 93 90 69 80 74 98 96 97 99 100 94 93 99 100 98 68 48 60 59 44 39 38 35 35 38 34 35 33
99 100 98 100 98 98 98 98 98 98 97 98 98 99 99 85 89 84 86 82 81 91 91 92 98 99 100 96 91 85 99 75 54 54 51 42 45 41 36 31 30 36 38 38 39
100 100 99 99 98 95 99 99 98 98 98 98 96 88 74 66 95 85 87 79 80 83 72 91 98 99 100 98 99 99 89 71 69 65 50 47 45 38 36 31 33 35 36 37 40
100 99 99 99 98 100 100 98 98 98 98 98 95 84 79 66 78 96 82 89 73 66 65 99 91 97 99 78 97 98 81 71 71 70 57 48 43 41 34 30 32 35 36 36 38
99 98 98 98 98 98 98 98 98 98 100 100 98 83 78 72 80 77 85 90 86 68 75 99 99 99 96 70 62 60 71 78 79 70 60 50 46 42 40 38 44 46 42 33 37
99 99 99 98 92 99 100 97 98 98 100 94 77 85 70 72 77 74 86 96 85 76 78 87 96 79 66 71 68 72 69 63 62 70 61 53 50 48 47 49 49 46 44 45 37
99 99 99 98 94 93 98 98 97 99 97 96 82 84 98 73 96 91 82 88 97 79 83 99 90 75 62 61 57 63 62 62 64 60 67 70 52 52 53 52 51 51 47 38 45

GFSSW_700_rhum_021.txt.gz
RH
29 16 13 34 41 44 47 47 45 45 46 45 46 43 49 53 56 65 54 66 62 56 44 33 40 50 53 40 41 68 79 65 54 51 33 44 54 46 46 46 34 43 45 46 45
31 21 16 26 43 48 50 51 49 49 49 47 45 44 46 71 94 72 63 54 53 69 67 50 36 48 60 53 40 77 73 61 50 50 46 43 50 50 49 48 43 32 49 52 48
28 30 19 25 42 48 53 50 51 53 52 51 50 48 47 56 92 41 58 50 60 62 58 62 56 45 50 56 42 48 66 61 46 57 53 55 54 53 50 50 48 40 54 60 52
29 32 25 24 37 44 46 51 58 59 62 64 59 53 51 47 50 53 45 49 56 74 90 76 77 59 64 72 53 52 60 72 51 55 52 56 60 58 53 51 48 48 46 54 58
26 35 33 21 28 38 41 61 64 59 57 60 61 58 51 48 41 47 43 41 38 36 39 68 86 75 64 72 75 71 72 76 58 54 58 57 64 64 60 53 53 40 46 35 50
24 34 39 27 22 31 35 64 56 54 56 60 62 59 54 45 46 47 42 38 35 36 40 53 78 78 83 80 93 88 85 85 83 70 71 66 64 67 59 52 52 42 33 40 38
27 27 41 39 23 24 31 56 67 59 62 65 66 69 61 52 55 52 51 44 41 47 50 74 89 96 98 85 88 90 91 89 79 84 78 78 72 66 62 60 60 39 32 38 54
29 29 36 46 34 22 24 49 69 73 64 69 69 68 53 58 58 50 50 45 45 41 55 65 97 93 95 92 81 84 83 84 86 80 77 83 78 72 54 63 48 46 40 56 53
28 34 32 48 47 29 21 42 70 74 70 54 61 71 56 52 52 54 52 51 40 40 39 40 56 64 77 92 85 86 96 92 81 78 80 79 83 71 62 69 54 56 55 53 45
26 32 36 46 55 44 26 25 57 84 73 67 65 59 66 64 60 49 54 50 45 47 52 52 54 54 74 96 96 88 84 78 80 56 78 83 79 63 61 62 50 56 56 52 51
23 32 38 41 61 57 37 25 31 52 70 76 80 55 74 84 77 62 60 53 56 68 76 52 58 82 60 63 75 74 90 95 82 83 82 67 71 62 58 58 59 54 53 50 47
54 32 42 45 62 63 53 33 28 57 78 72 54 55 84 98 97 87 77 68 60 72 63 85 77 53 45 57 82 83 80 67 78 80 93 73 69 53 56 58 55 56 50 55 54
85 86 44 53 60 67 66 53 46 40 96 83 34 47 61 100 100 98 96 86 75 69 71 56 75 47 59 63 80 78 85 65 77 65 85 95 81 68 65 64 62 57 53 55 53
100 100 82 53 69 78 72 71 60 62 97 97 78 70 71 100 100 99 99 98 98 92 84 87 71 70 73 83 88 96 63 81 83 99 96 79 87 66 63 65 63 58 50 52 52
100 100 100 79 98 88 89 88 61 55 96 84 90 74 68 84 93 87 100 99 98 97 97 82 92 62 77 62 82 73 81 87 95 96 100 98 100 82 58 61 58 50 49 52 53
96 99 100 96 100 100 96 80 64 95 94 91 86 74 74 71 95 100 99 99 98 98 98 90 86 91 81 67 80 59 85 79 87 100 97 96 100 66 57 42 41 46 51 56 56
99 99 98 99 100 100 98 89 80 98 66 93 90 87 90 96 95 99 98 98 98 98 98 97 86 95 82 86 90 86 92 88 92 96 89 75 96 88 44 40 43 40 45 53 57
86 94 87 100 100 97 99 97 98 66 65 79 90 96 99 97 97 96 97 98 99 98 95 94 91 76 80 70 72 82 82 80 90 78 68 66 99 77 46 40 39 43 43 51 52
98 89 86 99 99 100 99 97 68 62 67 83 87 97 100 99 97 93 93 95 76 80 96 89 84 67 85 62 74 86 100 44 97 78 82 99 67 52 42 43 43 43 43 43 36
98 91 79 98 97 99 98 96 87 86 80 94 96 96 96 89 94 97 92 72 78 74 70 74 95 70 83 98 99 91 91 92 99 98 98 73 48 46 46 45 43 39 38 35 39
99 96 80 99 100 99 99 95 97 94 94 97 95 98 97 96 80 84 78 60 60 61 85 91 96 86 97 98 92 97 98 90 90 92 85 78 53 43 44 43 42 43 40 35 29
98 100 92 100 99 98 98 98 98 88 98 97 97 98 97 97 92 82 71 63 71 98 97 87 98 98 90 99 90 69 71 96 89 92 64 47 49 42 41 37 33 34 34 30 33
98 87 93 86 99 98 98 99 93 96 98 98 98 92 91 99 97 81 74 69 86 95 93 92 98 95 98 100 100 80 97 99 97 99 61 56 50 44 37 34 32 35 38 39 39
91 99 98 99 98 95 99 94 99 98 98 98 99 98 95 95 83 79 82 94 94 92 91 96 98 93 97 98 97 99 77 98 99 85 57 48 44 39 35 32 33 36 38 38 39
82 92 98 98 91 94 98 99 94 98 99 99 100 98 80 92 82 83 82 82 97 95 96 96 98 99 99 100 100 98 86 96 100 71 54 48 40 37 33 34 38 42 36 35 37
86 98 94 83 93 98 99 98 96 98 99 98 96 92 73 73 74 73 79 80 94 93 94 96 97 100 100 91 95 73 81 82 93 67 60 57 49 42 43 50 49 48 44 44 37
88 84 100 86 96 99 92 78 92 98 90 99 79 91 76 67 81 84 96 77 83 99 91 86 100 99 83 99 100 97 72 70 70 57 61 58 56 50 53 51 51 50 51 42 40

GFSSW_700_rhum_024.txt.gz
RH
28 33 26 15 16 35 43 48 51 48 46 45 42 42 40 55 40 33 37 59 51 45 47 38 28 31 42 44 41 49 72 63 54 47 28 31 49 49 52 48 46 42 45 46 47
25 32 32 18 20 31 44 48 53 51 48 47 46 45 45 48 46 33 57 70 64 57 50 52 50 38 34 45 46 47 63 55 35 36 32 31 46 52 55 51 49 44 38 46 50
22 30 34 25 23 32 46 50 49 49 53 51 49 48 49 48 46 40 65 68 68 53 49 54 63 54 41 43 49 46 45 50 38 38 39 36 45 55 58 54 51 48 45 51 56
22 23 36 35 23 28 42 44 42 52 57 58 59 60 58 53 51 45 42 41 45 48 60 57 57 59 54 42 44 48 41 48 40 42 45 45 45 61 58 60 58 54 48 57 49
24 24 25 39 31 24 32 38 39 57 56 53 58 64 62 54 50 48 42 42 46 51 47 50 65 60 64 58 48 62 48 43 40 44 58 56 56 59 60 62 64 60 54 49 53
25 25 26 30 40 28 25 32 34 57 51 50 53 58 58 52 55 53 45 42 42 43 43 42 36 68 73 68 64 62 78 63 56 51 53 63 54 63 57 61 64 65 55 50 43
30 24 29 28 38 38 26 26 32 52 64 58 58 54 43 63 60 57 52 47 46 44 42 39 44 79 90 77 74 76 74 79 67 66 79 76 57 52 58 61 65 61 51 44 38
27 25 28 32 36 45 35 24 26 40 55 66 63 54 42 55 60 56 56 52 51 51 52 61 59 58 76 94 87 82 81 81 75 78 77 88 69 53 60 64 64 63 52 38 39
22 27 27 34 36 48 46 31 23 31 48 57 55 43 30 43 55 55 52 51 51 51 60 86 93 89 92 99 96 94 94 84 76 60 79 71 56 68 60 63 61 60 50 44 57
58 32 29 36 42 49 54 43 29 24 50 56 48 43 42 47 66 61 50 52 55 57 48 46 79 98 86 96 96 87 85 80 77 70 71 71 77 78 71 65 59 57 51 58 58
64 90 95 61 47 51 60 56 40 35 32 36 58 45 44 38 49 77 62 51 61 65 56 55 66 58 40 42 64 82 92 90 85 81 83 85 74 74 73 64 61 53 45 55 57
72 70 99 100 67 56 60 62 51 38 36 38 43 41 51 64 58 76 88 71 60 58 59 79 88 59 43 43 60 77 84 86 74 78 97 93 94 87 57 70 66 54 56 58 57
86 77 94 98 96 64 66 71 59 50 54 52 47 42 40 70 100 87 90 92 93 70 73 75 66 54 53 51 63 67 80 95 97 61 61 86 82 71 46 48 54 54 51 59 56
91 83 80 100 97 79 72 76 69 66 64 58 46 58 64 69 96 89 100 100 99 92 77 100 74 71 59 68 63 62 52 77 90 99 95 88 79 64 58 55 51 50 50 58 57
95 89 99 98 98 88 83 82 82 72 82 61 71 65 63 70 69 75 94 99 98 93 96 87 74 73 73 64 75 81 78 82 88 88 95 75 90 77 53 64 48 42 48 57 56
98 96 98 85 95 99 99 100 87 81 93 66 66 65 68 67 80 94 98 100 98 98 99 97 96 90 81 68 68 86 92 88 82 93 94 61 85 65 56 38 39 46 46 54 60
98 99 76 98 87 98 99 97 90 84 63 82 68 72 76 77 81 96 98 99 98 99 98 98 97 93 85 94 86 90 97 88 100 97 80 57 71 56 51 38 52 40 42 48 59
98 99 86 91 91 99 95 97 90 66 67 73 69 74 80 84 83 96 98 97 91 98 98 97 96 94 86 80 83 85 91 84 91 97 62 61 78 61 32 35 49 51 47 46 51
92 98 99 98 98 95 97 97 76 71 64 63 87 97 100 87 99 99 98 94 94 85 99 95 95 82 81 72 80 90 98 55 83 64 90 69 54 36 20 31 42 48 41 42 45
97 98 98 88 98 99 99 97 88 82 72 74 90 94 92 88 99 100 97 61 80 68 76 94 90 64 74 86 91 95 82 98 96 98 82 80 86 55 28 8 40 41 42 44 43
98 98 91 98 99 100 97 97 100 94 89 94 94 95 94 99 97 83 73 64 60 62 79 84 93 83 85 84 73 99 98 97 82 66 95 78 72 38 30 31 44 45 45 43 44
98 98 97 98 99 98 98 98 96 95 97 99 97 93 98 100 98 88 76 69 76 88 77 81 97 94 77 78 94 98 98 97 86 71 92 98 71 41 51 44 44 44 42 42 43
98 98 98 99 98 97 95 99 100 99 99 98 97 94 95 98 97 86 69 72 80 80 84 94 97 96 84 98 98 97 98 97 83 63 71 98 69 50 42 46 46 43 42 41 43
99 98 99 99 99 99 98 100 98 95 98 98 98 98 100 100 97 83 78 86 81 92 98 98 98 88 94 99 98 99 98 92 95 96 80 92 84 45 45 43 38 41 42 45 47
98 95 90 98 98 90 85 94 90 98 98 98 98 100 98 100 79 90 77 82 95 95 96 98 97 98 97 97 99 100 60 74 86 98 96 88 58 42 36 35 35 38 44 47 46
99 93 94 95 100 97 97 98 91 98 99 98 98 99 98 96 75 88 80 90 94 95 100 98 95 97 94 99 99 100 99 99 94 99 96 98 48 40 39 42 39 38 37 38 40
98 86 84 87 86 100 93 84 92 100 100 97 100 98 95 53 72 79 96 100 94 89 96 98 98 98 99 100 99 99 99 98 99 99 98 90 50 40 46 48 49 48 48 40 38

GFSSW_700_rhum_027.txt.gz
RH
23 20 29 35 23 16 28 38 43 50 51 52 47 43 42 59 31 26 31 44 43 43 40 36 27 24 32 38 39 40 60 45 38 37 27 27 33 44 47 48 50 47 43 44 45
25 23 21 32 30 19 25 40 46 50 58 55 51 49 48 48 42 38 64 51 49 50 48 48 47 48 33 31 47 44 46 37 34 36 34 32 40 46 50 53 52 49 48 44 47
30 24 23 24 35 23 29 41 50 53 58 54 53 54 54 52 47 41 51 54 53 52 54 50 47 49 55 42 42 46 38 38 40 38 43 38 38 43 49 53 56 56 53 51 42
31 30 24 22 31 33 27 40 49 47 50 56 56 58 56 56 51 47 47 46 48 69 49 53 55 55 59 60 44 52 47 46 37 42 47 40 36 39 46 51 58 61 58 55 53
23 33 26 25 26 38 29 30 40 42 49 64 60 59 58 58 52 53 52 48 44 43 47 59 57 61 59 60 56 53 44 54 52 45 45 49 44 43 42 51 61 62 63 60 55
12 26 32 26 28 34 38 27 32 39 47 59 54 50 48 52 54 51 49 50 49 47 45 42 41 56 75 72 68 58 55 52 58 51 47 49 46 50 38 48 58 62 64 64 59
14 15 30 28 30 31 42 35 27 34 41 61 64 54 42 62 50 52 52 52 49 47 45 43 44 46 65 71 83 73 62 65 61 52 52 47 38 36 39 39 54 60 65 64 58
32 15 21 31 29 34 40 43 31 30 39 55 65 60 55 51 44 49 60 59 56 54 51 48 49 58 80 93 93 81 80 66 47 59 61 60 35 37 37 37 41 54 58 60 53
84 68 72 72 29 39 42 48 39 29 31 49 56 44 38 37 39 43 56 63 59 56 55 76 85 99 98 99 98 98 92 81 79 59 66 71 49 49 42 51 38 41 47 54 49
99 84 65 88 54 43 47 50 48 36 30 40 42 46 37 40 49 60 52 54 60 58 58 70 100 99 98 98 96 96 99 91 79 73 74 68 76 78 70 77 56 48 52 52 44
99 92 82 90 94 62 54 48 48 43 40 33 45 43 46 40 48 55 49 57 56 59 58 57 78 94 92 99 94 94 95 97 95 91 71 67 70 68 60 57 54 50 55 54 49
100 99 91 86 99 98 77 60 56 57 49 42 35 35 35 41 42 47 46 65 63 58 63 75 63 53 49 55 68 75 81 85 92 89 81 69 54 53 56 49 49 40 49 53 48
86 98 98 86 98 99 94 77 74 69 62 52 51 49 52 63 67 47 59 79 87 86 71 65 68 52 58 54 72 69 72 98 92 70 60 72 38 24 24 34 32 34 37 43 49
62 98 98 97 97 98 98 91 82 73 74 61 56 61 51 59 62 60 62 85 96 96 93 97 78 66 64 76 71 81 66 67 71 90 95 79 80 37 30 16 24 30 31 40 53
86 98 98 99 98 95 73 99 84 79 85 64 66 61 66 73 70 75 79 100 100 99 99 90 79 68 70 60 67 98 84 88 93 85 87 72 94 58 41 16 16 31 38 28 31
97 97 98 98 99 96 98 96 87 91 93 72 74 71 70 71 84 75 86 100 99 100 97 92 94 90 82 73 78 96 95 97 98 97 97 81 80 52 40 17 12 16 28 32 31
99 89 98 96 80 100 99 91 97 94 68 76 62 57 60 72 75 91 95 100 99 100 97 99 99 99 88 88 95 98 98 97 97 97 83 56 65 43 24 19 13 13 27 37 37
95 98 98 97 98 97 99 95 94 71 65 64 67 72 71 82 80 96 100 98 98 100 99 98 98 88 95 89 82 85 89 95 90 92 83 49 64 39 21 15 14 22 35 48 41
84 97 98 97 92 99 95 100 73 67 63 56 68 96 99 100 100 100 97 90 93 80 99 97 95 76 71 80 96 97 97 73 95 79 92 66 51 42 24 20 16 11 32 45 45
67 39 97 98 98 97 99 92 76 70 68 65 70 87 98 99 99 100 98 64 64 64 88 99 98 77 72 98 98 97 90 96 98 96 91 53 53 66 37 24 12 9 24 47 47
91 93 89 98 99 98 99 98 86 82 81 79 82 94 96 97 93 97 78 60 58 55 78 100 100 92 90 94 70 100 99 95 94 79 90 75 42 26 22 19 20 14 17 32 46
92 99 98 99 98 98 99 84 79 87 94 91 93 97 98 94 98 97 89 69 64 70 66 73 100 99 87 72 71 66 67 94 86 85 82 67 67 48 50 54 24 10 25 44 47
92 97 99 98 98 100 96 96 96 94 94 94 94 97 97 98 98 88 88 71 75 73 79 82 97 96 94 93 98 97 95 97 91 83 80 81 56 31 57 55 55 47 48 49 45
96 98 98 98 99 92 97 99 97 85 94 97 97 99 100 97 87 86 94 91 87 81 88 96 98 94 91 92 98 98 99 99 97 98 83 80 61 44 43 67 60 50 49 49 45
98 98 85 97 98 94 96 94 87 97 98 98 94 94 97 99 98 99 81 86 94 99 97 98 97 97 92 90 98 97 98 99 100 98 95 71 71 31 43 66 65 58 46 49 51
99 99 98 90 85 100 96 98 95 92 100 97 94 97 96 98 95 88 70 79 81 89 99 98 98 98 94 94 100 99 100 100 88 83 82 72 58 58 76 84 63 53 46 46 45
98 100 97 82 97 100 92 96 86 98 94 94 97 100 100 98 98 84 89 91 99 99 98 99 98 98 93 99 98 98 89 94 96 89 96 96 80 81 62 59 52 46 43 44 47

GFSSW_700_rhum_030.txt.gz
RH
29 28 25 22 24 30 26 17 31 47 55 54 48 44 39 74 92 34 28 35 21 20 15 15 20 27 34 34 39 43 57 41 33 32 27 25 28 34 42 48 40 43 46 45 43
39 29 29 24 22 26 31 20 28 43 55 61 59 53 50 65 89 53 61 48 44 40 36 39 39 35 28 27 42 47 49 38 31 32 31 32 37 42 40 48 50 51 49 48 47
48 24 32 28 24 24 33 27 30 48 59 64 65 61 55 53 60 48 55 50 52 48 48 47 51 48 51 48 44 46 42 39 39 37 37 31 32 39 44 50 55 55 54 55 53
33 57 26 33 27 26 33 33 27 45 55 54 57 62 59 57 55 48 51 47 51 84 93 72 67 63 52 52 51 53 44 38 38 44 45 37 34 32 38 43 52 60 61 61 58
41 72 80 32 33 29 30 36 30 30 43 50 56 64 60 58 56 59 59 54 47 51 76 92 85 79 78 64 58 65 52 50 51 50 43 42 38 36 31 35 42 49 61 59 59
93 74 84 73 35 30 31 38 36 29 32 42 57 57 52 53 57 56 56 55 55 52 63 89 69 79 78 68 66 65 57 50 50 50 46 44 36 44 24 29 36 44 58 62 60
100 98 82 92 44 34 33 35 41 34 31 39 50 62 55 64 49 48 51 51 54 53 55 64 90 62 55 51 68 63 62 57 48 40 40 36 31 29 28 30 31 40 50 63 62
99 99 96 84 85 39 34 40 41 40 32 36 44 50 64 66 56 50 54 56 59 57 53 54 58 67 77 71 81 94 90 63 49 47 47 54 31 36 39 30 28 30 38 56 61
89 99 99 91 89 87 46 47 45 45 36 35 41 35 37 42 51 47 44 53 62 62 59 57 54 56 64 87 97 93 100 96 89 75 68 76 62 44 40 35 31 32 30 45 58
42 96 100 97 88 93 94 60 55 48 43 36 33 34 41 46 40 40 46 50 59 63 61 60 65 90 100 95 96 93 90 94 98 88 74 66 70 46 43 50 40 33 35 32 39
7 48 99 99 97 92 98 79 69 59 49 42 42 45 50 49 50 46 54 60 58 59 59 63 75 96 74 80 87 94 97 100 99 92 88 57 55 40 45 46 36 35 31 36 34
3 10 92 100 98 99 97 90 66 62 56 50 45 40 36 35 43 45 47 50 51 54 61 71 65 60 66 93 97 100 100 100 89 64 64 56 37 30 34 36 31 32 27 27 42
27 7 81 98 98 99 86 99 67 86 78 60 54 45 42 45 52 58 62 63 66 72 66 64 61 65 63 60 68 70 68 63 56 47 49 60 31 24 18 18 23 25 25 26 29
94 16 86 98 99 98 97 93 98 100 73 60 50 53 48 58 76 60 70 78 84 80 89 91 86 84 78 79 68 71 66 63 67 83 98 68 81 42 31 25 18 15 18 22 24
89 47 58 99 98 98 90 96 100 100 97 60 69 68 74 69 70 69 73 93 98 96 90 79 84 77 88 81 78 90 80 82 90 87 94 96 97 62 43 26 19 16 13 15 22
71 78 58 98 97 98 95 100 96 85 97 74 82 87 96 97 82 79 77 95 100 99 98 94 94 98 95 91 86 92 98 96 95 98 96 83 88 55 43 29 20 16 14 12 16
70 75 52 98 98 98 96 98 93 97 67 78 87 81 99 99 100 100 94 99 93 99 99 100 95 98 97 98 97 98 98 97 98 97 86 60 78 55 40 34 22 19 13 11 13
78 50 90 75 98 98 99 98 89 72 69 77 68 78 93 85 95 98 96 99 98 99 99 95 87 78 75 71 80 87 91 95 92 86 84 59 71 49 35 32 26 24 19 17 34
88 72 94 93 98 98 99 100 69 61 60 59 73 70 83 91 95 100 99 100 98 95 99 95 95 90 80 74 89 99 99 72 97 97 97 69 49 41 36 29 26 22 22 17 17
97 96 86 97 98 98 99 84 73 68 68 67 53 67 94 99 93 100 99 70 71 66 92 99 95 83 81 82 98 98 97 98 98 96 93 70 60 49 38 39 41 34 27 19 24
77 92 95 97 98 98 98 89 83 68 70 66 64 73 83 93 98 100 83 65 58 56 81 100 99 94 94 90 76 99 100 97 96 97 92 72 44 34 32 54 56 28 20 23 18
98 90 94 97 97 98 100 99 80 81 79 76 80 79 83 90 100 100 92 77 66 69 70 73 99 97 87 71 77 91 78 94 89 88 85 71 58 36 32 37 53 58 41 13 19
96 87 79 95 98 98 95 91 86 88 87 84 92 86 86 96 99 93 92 78 88 77 74 79 98 98 85 90 100 97 92 96 94 81 86 84 56 39 34 42 36 46 63 31 43
68 92 97 98 98 85 96 94 94 91 90 91 94 97 97 99 98 95 92 90 95 84 92 95 98 88 88 74 98 97 93 95 98 97 87 92 68 50 36 36 40 42 63 58 64
84 93 90 93 97 98 92 82 94 93 84 90 98 95 96 99 94 97 81 97 100 99 99 99 97 93 87 94 98 98 98 97 97 85 98 78 89 60 53 59 55 55 71 62 72
86 97 100 97 94 98 91 85 96 97 94 95 92 95 98 99 99 92 96 82 78 96 99 100 98 98 95 96 98 98 99 98 97 98 97 100 85 65 65 79 83 86 73 74 66
84 98 97 97 100 97 90 85 87 95 94 90 94 97 98 97 96 92 98 93 98 98 100 99 98 98 90 96 99 99 99 99 100 100 96 95 66 95 96 100 89 69 62 64 58

GFSSW_700_rhum_033.txt.gz
RH
42 72 35 32 28 25 27 32 26 18 33 51 52 46 39 34 71 25 16 16 12 16 15 19 28 34 30 29 32 37 48 40 33 34 31 30 30 31 36 41 46 40 43 45 45
46 59 77 37 33 27 25 32 29 22 32 50 52 55 52 58 92 37 66 47 37 42 29 23 20 23 30 37 43 46 48 31 25 29 35 38 39 40 38 36 47 42 44 47 46
79 49 78 55 42 32 27 29 33 28 37 54 57 59 58 56 74 55 68 57 82 85 80 51 51 50 41 30 31 49 38 32 31 32 33 31 32 34 35 40 41 49 48 49 48
99 85 51 82 50 42 31 28 37 32 46 52 56 55 56 60 55 56 55 49 61 88 95 72 57 60 52 47 50 49 36 36 33 40 50 38 31 28 29 28 42 55 55 52 51
100 98 91 72 82 52 38 30 36 35 37 48 49 48 57 61 58 60 58 52 50 67 81 86 87 78 62 54 50 53 45 45 42 39 37 37 29 30 25 24 33 50 58 58 60
100 100 99 94 77 86 48 35 35 40 34 39 46 44 54 58 60 62 62 59 61 57 55 84 88 94 85 61 65 64 51 44 44 40 42 40 31 38 22 23 27 33 47 54 60
63 95 100 100 91 86 78 40 36 41 38 35 41 40 53 60 55 56 56 54 56 58 57 60 79 82 72 64 73 72 66 58 44 40 45 42 36 30 28 29 25 25 32 41 50
3 49 100 100 99 87 87 63 45 44 42 37 39 36 44 62 61 59 55 54 56 58 59 60 73 94 93 73 70 77 86 64 50 43 39 45 39 28 25 27 24 25 26 30 39
3 7 69 99 100 97 97 85 66 52 46 42 40 34 37 36 52 62 61 53 57 64 65 63 61 64 65 64 67 77 84 86 67 67 66 61 62 43 33 28 30 26 24 24 30
4 3 5 54 99 100 98 94 94 74 51 45 41 39 41 40 38 46 47 46 50 63 67 67 70 67 78 60 73 65 83 83 83 78 72 62 55 41 41 40 34 35 27 26 25
48 9 4 9 96 99 99 99 99 82 53 43 44 48 37 39 39 45 43 50 56 66 71 73 70 63 52 62 72 78 87 91 87 96 74 51 41 39 35 35 28 27 27 28 26
94 93 12 8 58 98 99 99 85 81 59 57 48 43 44 44 47 52 49 56 56 56 68 72 62 55 64 66 77 98 96 96 97 77 69 52 31 31 26 25 25 24 24 25 25
97 91 87 15 86 98 98 99 91 84 80 67 56 48 45 46 46 44 52 54 60 60 54 55 57 62 64 69 72 76 88 88 77 61 52 56 38 29 26 24 21 20 19 20 20
80 86 84 39 50 91 98 99 96 99 83 66 52 50 52 48 47 48 55 69 78 70 68 74 65 72 78 85 78 77 71 70 70 84 97 73 68 48 37 32 28 22 18 15 16
87 56 71 66 79 98 98 99 99 97 84 58 65 72 58 61 60 54 63 85 87 76 72 66 78 83 88 79 88 95 90 84 85 92 98 100 98 53 51 40 31 25 21 18 15
88 59 55 63 88 93 99 98 98 95 94 76 78 92 87 98 98 80 79 91 96 100 100 92 96 96 85 84 93 92 98 97 92 96 96 80 96 60 56 41 31 29 26 22 19
88 74 56 56 79 98 98 98 97 86 65 79 93 100 100 99 99 100 99 100 92 99 99 99 92 94 98 97 94 99 98 96 96 97 83 60 86 58 44 38 34 26 24 27 24
97 87 67 62 60 98 98 98 91 72 63 77 85 100 98 99 100 99 98 99 99 99 96 91 85 76 97 84 98 96 96 85 92 82 70 65 82 53 38 38 28 26 26 25 26
93 90 78 55 68 97 98 97 67 58 52 59 100 99 99 100 96 99 99 97 98 98 98 96 97 88 76 86 88 99 99 92 97 92 97 73 58 50 38 39 34 35 40 33 24
88 84 99 37 95 97 99 95 72 60 50 64 75 85 92 84 84 100 93 75 78 78 94 99 94 78 71 81 81 99 98 97 98 96 86 72 77 56 31 36 28 36 32 43 32
93 81 96 58 95 97 97 95 70 65 66 66 61 66 77 81 94 95 84 72 66 58 86 100 98 88 82 67 51 89 100 98 92 89 81 66 50 42 36 32 37 55 48 46 43
96 98 99 89 84 97 97 93 70 65 69 67 63 72 80 87 100 98 93 80 72 67 70 71 99 94 74 61 75 78 75 91 97 82 96 92 68 46 43 39 30 31 31 26 60
94 98 97 97 98 97 97 89 75 63 69 70 74 82 83 93 97 98 95 87 86 80 74 75 97 96 76 74 76 98 80 97 97 98 95 92 56 44 46 43 41 48 36 41 54
92 98 94 94 93 95 93 88 81 86 78 78 81 93 94 100 99 98 96 90 89 87 90 91 97 90 83 63 80 98 95 96 98 97 86 92 64 57 52 49 50 51 53 47 71
97 90 91 91 98 92 88 86 89 79 81 80 82 83 91 99 99 100 99 91 95 100 96 98 97 90 83 85 94 98 98 99 97 87 98 78 94 56 66 72 66 58 65 61 72
100 98 79 92 93 98 92 84 72 78 75 76 77 87 98 100 100 88 90 91 83 93 99 99 97 99 91 86 97 98 97 99 98 97 98 98 90 78 84 78 72 70 94 87 89
93 96 96 94 97 98 84 80 79 89 88 87 87 96 98 96 97 84 94 97 100 96 92 99 99 99 94 88 91 98 99 100 100 99 90 98 71 82 82 87 96 93 88 88 83

GFSSW_700_rhum_036.txt.gz
RH
92 65 48 74 57 39 29 26 30 32 23 22 33 44 44 37 21 20 18 35 16 16 13 13 21 38 32 30 30 34 63 52 50 49 48 32 26 30 30 34 36 43 38 38 41
100 95 70 44 81 56 36 29 27 33 26 24 39 51 55 48 67 34 82 56 26 26 21 14 13 43 42 35 35 39 69 56 57 54 39 40 28 31 29 30 36 42 42 40 41
89 98 98 68 72 72 51 32 29 34 30 29 45 52 62 58 76 50 77 72 86 86 44 27 18 26 36 38 46 63 70 65 40 28 27 32 25 32 29 33 30 48 47 42 45
61 95 99 96 64 86 65 42 32 34 33 35 55 61 65 65 72 53 65 74 80 88 85 51 46 51 61 54 36 39 32 39 39 38 32 30 35 26 27 24 54 38 46 44 46
5 24 80 100 96 86 92 66 37 34 36 35 59 61 61 65 60 57 54 54 69 87 98 89 75 67 77 70 59 58 44 39 36 32 30 32 25 26 30 23 26 36 46 49 48
2 3 63 100 100 91 98 90 47 36 38 36 44 56 56 66 66 64 56 56 55 56 69 83 78 94 98 80 70 70 49 44 39 34 36 33 26 42 22 17 21 25 36 52 53
2 3 57 88 99 99 95 95 76 42 41 40 36 48 51 68 58 59 62 62 62 66 73 67 88 99 97 96 78 69 56 52 40 35 43 36 32 27 21 23 23 21 22 30 55
4 2 3 9 58 99 99 98 90 69 45 43 39 39 51 67 65 60 57 56 60 64 84 65 74 99 97 80 66 57 63 72 50 36 39 41 46 51 30 24 22 24 27 24 26
8 7 3 4 9 98 99 99 97 87 53 48 42 39 50 53 72 66 59 55 58 61 66 66 77 88 87 80 97 94 75 84 81 51 55 54 70 62 35 32 29 28 27 27 25
53 60 20 4 5 94 99 99 99 99 86 66 42 46 46 46 52 61 68 65 57 61 68 70 70 76 60 77 66 64 80 78 77 80 58 61 76 53 41 41 37 34 29 25 25
98 98 98 72 5 22 98 98 99 100 82 50 43 50 40 44 51 50 58 56 53 65 71 72 80 58 55 57 79 69 87 85 84 87 75 56 62 55 38 36 33 29 28 28 26
96 99 96 94 47 51 94 98 95 81 77 56 51 51 49 47 55 55 54 53 54 65 71 73 67 57 58 63 71 97 95 87 85 85 80 76 31 41 28 20 23 26 27 25 24
88 90 80 86 93 28 78 98 98 98 94 65 49 54 51 56 58 61 61 66 65 61 54 64 61 50 55 64 86 96 96 87 86 86 84 76 45 36 41 30 24 23 23 23 22
80 82 86 66 63 56 52 98 98 99 98 80 59 49 51 48 53 52 63 71 62 59 64 74 74 60 69 71 68 88 89 76 88 91 74 93 55 49 48 46 43 30 27 26 22
95 97 89 61 58 61 48 98 98 98 94 74 68 62 57 57 55 52 58 70 72 66 66 68 66 71 90 61 85 94 92 98 99 94 92 83 98 49 48 53 50 34 31 31 25
98 94 84 63 78 68 72 97 98 98 85 84 84 74 62 60 66 70 70 88 93 93 93 95 77 85 90 83 92 91 98 100 100 100 93 68 82 48 37 41 44 33 31 29 28
95 94 82 66 52 98 94 98 97 96 77 88 92 99 93 94 95 95 99 92 95 99 98 97 90 78 92 100 97 100 96 77 86 94 67 51 53 53 30 34 30 31 28 26 26
97 87 87 73 59 94 97 98 95 89 98 89 100 99 97 97 98 99 100 98 100 98 94 98 85 86 81 78 99 98 97 70 68 44 40 62 57 42 42 51 43 31 32 31 30
97 85 90 70 59 98 98 98 95 61 49 91 100 100 99 99 96 100 99 98 98 96 98 100 98 76 68 78 95 98 99 80 91 85 80 57 45 44 44 47 47 35 44 38 49
90 90 89 73 69 92 98 97 81 60 48 68 100 100 100 99 99 100 100 82 99 96 99 99 94 73 72 78 78 96 96 96 98 78 61 40 41 41 41 45 40 37 39 46 43
87 97 92 80 94 96 97 95 70 65 59 66 64 88 97 95 91 96 98 72 73 62 99 99 91 94 78 74 83 98 99 96 84 79 70 52 36 36 40 41 42 39 39 45 37
86 97 91 83 97 97 96 96 84 81 68 60 63 58 75 82 86 98 92 77 72 64 72 77 98 99 89 63 70 84 89 96 96 73 92 81 67 52 50 47 46 52 40 31 31
96 97 90 92 87 89 98 96 80 70 69 69 68 71 76 81 88 99 96 85 83 78 74 92 99 92 64 78 76 95 63 82 98 96 94 94 64 50 57 60 47 48 45 44 34
97 97 89 66 74 61 96 96 87 69 70 68 70 77 80 93 95 99 100 91 88 89 95 96 100 88 62 54 70 98 92 97 98 98 83 88 78 68 84 84 73 75 59 52 47
94 89 91 98 86 86 96 98 88 75 72 75 74 77 80 87 89 98 98 99 91 95 97 99 99 87 67 72 82 96 100 98 98 97 98 72 89 80 97 98 99 88 69 64 58
100 90 79 95 91 90 86 89 93 71 70 70 67 75 82 89 98 98 98 100 98 92 92 97 94 83 78 82 99 99 93 99 99 100 98 100 97 86 92 100 81 84 77 85 74
96 83 86 96 92 94 86 91 86 77 76 77 80 81 86 89 95 100 99 96 100 98 94 94 92 98 94 89 85 98 99 99 99 100 100 99 81 96 97 96 99 100 100 100 98

GFSSW_700_rhum_039.txt.gz
RH
18 92 97 85 64 80 61 38 29 26 28 30 24 25 32 34 32 16 11 15 27 22 19 16 22 25 27 27 28 31 71 52 44 34 36 36 43 46 45 39 45 43 41 46 46
16 65 94 93 82 76 85 68 38 28 27 32 24 26 44 50 44 33 22 40 26 20 17 15 18 27 33 32 29 40 66 48 37 36 39 43 50 46 47 33 39 50 41 37 40
2 9 23 96 92 70 88 89 53 33 28 34 27 32 53 61 69 44 51 57 50 46 26 21 44 35 56 44 55 80 73 52 48 56 56 61 54 53 58 52 41 42 48 46 41
1 2 4 73 72 98 75 98 88 43 32 34 33 47 64 68 93 58 68 72 63 84 86 50 36 49 88 86 51 83 80 71 65 79 58 36 59 67 61 51 50 53 51 60 44
1 1 2 14 55 99 87 100 98 58 37 35 41 62 74 72 77 59 56 70 76 84 95 93 82 97 94 85 81 89 64 74 80 87 60 42 36 48 74 64 35 54 59 52 45
1 1 2 3 13 80 100 92 100 97 47 38 41 67 75 74 64 63 58 64 77 82 93 96 96 100 98 94 83 90 88 83 87 48 47 41 24 54 40 16 22 26 33 33 38
2 2 2 2 4 36 100 98 99 95 68 40 40 60 69 78 62 65 63 61 59 68 86 100 99 99 94 92 99 73 58 67 64 38 62 47 34 27 17 18 19 17 18 20 27
8 5 3 4 3 11 91 99 99 99 89 50 44 49 58 56 58 62 66 66 64 65 68 77 86 94 97 99 94 67 85 78 62 64 72 66 60 49 55 39 44 27 23 19 17
54 25 28 32 5 4 27 96 99 98 98 76 49 44 58 45 58 63 62 66 67 69 72 75 95 99 98 99 88 83 68 62 57 70 76 73 69 56 61 41 54 57 43 48 38
66 65 85 90 74 17 12 36 98 99 100 96 53 50 46 46 49 71 68 64 65 66 70 92 98 100 98 98 69 59 61 62 58 60 73 71 68 64 63 65 61 50 50 42 44
80 77 93 94 95 95 29 68 98 98 99 88 42 44 43 42 48 63 78 73 71 76 90 75 96 76 79 80 74 65 71 62 58 65 71 66 62 58 55 44 30 35 28 29 28
74 82 84 84 78 95 83 84 98 98 98 86 50 49 41 42 54 54 67 71 90 98 100 88 77 82 84 85 85 86 79 70 66 66 68 64 33 44 23 14 16 16 17 18 22
54 87 81 75 72 76 86 95 98 98 98 94 66 52 55 50 63 54 56 80 95 100 100 99 87 68 86 91 84 87 80 71 69 70 68 62 40 24 34 28 21 17 16 17 18
74 96 94 95 68 64 70 74 96 98 98 96 79 59 53 62 66 67 71 77 98 93 100 95 86 72 66 70 86 80 74 76 76 79 63 74 54 44 29 36 39 41 27 23 24
68 95 97 98 99 80 70 86 95 98 96 92 84 88 62 55 82 72 83 81 100 92 93 92 69 95 94 87 87 83 95 89 87 84 86 73 72 46 35 37 41 43 42 40 42
62 86 98 85 84 86 68 57 90 97 97 100 97 76 68 94 76 79 88 78 95 99 100 94 97 83 95 93 96 97 96 95 96 98 90 60 56 40 31 25 27 33 40 40 42
60 64 71 92 82 70 91 96 97 97 98 99 99 93 89 100 100 87 98 97 89 100 100 99 99 95 74 94 97 98 94 74 86 90 65 39 41 41 27 35 35 33 38 41 35
84 89 78 93 74 67 97 97 96 96 100 100 100 98 100 99 100 100 99 97 100 98 96 96 88 97 90 98 95 100 97 68 61 37 35 42 45 38 35 36 40 37 42 41 42
95 84 93 75 65 90 98 98 97 93 97 100 98 99 99 100 99 100 99 100 100 100 97 93 94 83 100 97 97 99 98 76 85 71 66 46 37 38 38 38 37 38 40 46 46
80 90 93 68 82 96 96 98 98 96 74 98 98 96 98 100 100 97 98 99 99 100 99 96 94 86 100 99 98 99 88 92 96 82 59 34 33 32 34 34 36 39 40 45 58
92 97 93 68 87 97 95 98 89 88 83 97 98 96 97 99 100 99 97 89 99 97 98 97 95 96 95 82 88 93 100 97 81 80 62 52 37 38 41 53 50 42 38 45 61
80 96 91 84 90 97 93 97 97 95 80 98 99 91 92 97 100 97 90 94 80 69 100 100 99 96 82 80 79 83 94 96 96 63 78 87 69 54 52 59 61 66 61 58 64
96 88 90 99 87 96 98 97 96 85 83 92 84 94 89 97 96 98 97 86 76 72 98 98 97 88 81 82 82 90 86 86 96 98 96 95 65 52 65 70 63 62 68 60 67
96 98 90 93 96 98 97 98 86 84 78 67 70 78 94 99 94 99 98 82 84 82 96 99 100 90 65 64 74 90 91 97 98 98 82 84 80 79 80 91 94 92 91 76 79
81 91 79 81 62 81 96 88 86 89 76 75 79 87 95 97 98 90 97 93 89 91 88 97 96 94 94 91 88 89 96 93 99 98 98 88 99 89 100 98 94 84 88 91 94
100 98 93 64 63 96 83 84 96 77 78 74 83 73 73 94 99 100 100 97 91 93 92 86 98 100 97 72 94 98 97 99 99 98 98 100 92 89 86 76 92 98 98 96 95
74 78 95 80 95 94 84 100 99 88 78 76 80 79 76 78 88 89 92 93 98 99 86 100 98 100 97 67 86 96 98 97 98 100 100 99 96 94 96 100 98 99 100 100 91

GFSSW_700_rhum_042.txt.gz
RH
1 1 2 7 92 84 80 83 82 41 30 25 29 28 24 25 27 25 18 14 16 15 23 24 22 21 25 22 29 43 80 73 60 50 42 32 30 36 38 38 38 39 37 42 52
2 2 1 6 24 82 82 80 87 75 40 29 28 30 25 31 34 27 30 18 14 16 27 26 21 25 31 29 38 62 60 56 46 47 42 36 34 39 42 39 37 45 43 40 45
2 2 1 1 19 11 72 82 86 94 62 35 30 32 28 40 48 36 37 26 20 33 33 26 28 36 35 44 57 42 52 43 30 42 41 43 44 48 46 46 44 38 47 47 36
4 2 1 1 1 9 74 93 83 99 89 51 32 33 34 52 61 50 58 47 61 73 50 28 31 68 53 76 76 75 80 58 46 53 58 50 46 54 55 46 47 47 42 47 52
4 3 2 1 1 2 25 82 94 90 94 75 38 36 50 62 71 68 73 79 76 80 84 81 46 43 66 66 85 86 74 78 64 63 74 75 59 48 49 63 34 44 46 52 60
4 4 4 2 1 2 10 51 99 89 99 92 47 37 59 72 79 57 64 67 76 78 90 98 98 81 90 87 82 84 82 83 71 60 58 65 43 43 38 26 26 25 48 45 51
22 22 14 5 3 2 2 25 86 97 99 97 68 38 57 75 81 57 73 65 78 85 95 99 100 95 89 84 89 88 88 76 67 38 42 45 38 34 25 22 21 20 18 26 29
78 80 47 26 17 8 3 4 64 99 99 100 85 43 42 65 67 69 72 68 76 84 94 98 100 100 95 97 84 78 84 73 44 45 40 65 53 40 56 45 30 20 18 15 15
80 75 66 67 76 92 16 5 26 99 98 99 92 49 41 42 57 66 69 72 68 73 73 96 92 100 98 98 86 92 81 66 64 61 60 65 62 51 63 53 53 52 42 25 16
80 94 78 88 82 95 82 21 24 98 98 98 98 63 41 37 49 56 69 73 73 75 74 78 87 93 96 91 91 75 75 69 62 63 64 61 63 54 49 59 54 55 41 38 28
91 90 72 83 82 72 89 71 70 97 98 97 89 59 40 35 47 56 75 74 86 87 89 95 99 96 89 85 83 79 67 62 56 56 61 64 63 59 36 40 23 23 29 21 19
91 79 77 88 75 74 78 88 96 96 98 98 82 82 48 42 50 71 85 86 93 99 99 93 86 84 90 80 79 78 77 71 66 58 63 58 38 26 17 13 15 13 12 12 13
85 65 94 96 95 64 85 77 98 97 98 98 92 84 51 46 50 54 80 93 92 99 98 99 84 69 88 86 82 80 84 79 71 67 62 54 36 22 32 27 18 16 16 16 15
68 54 89 95 97 87 72 82 90 97 97 98 98 95 67 62 64 68 75 90 97 98 89 88 88 86 63 87 88 88 78 76 75 76 70 69 74 24 17 18 21 19 17 16 20
48 52 55 85 93 90 85 64 61 97 96 98 99 98 71 68 70 78 80 96 98 91 94 90 85 91 76 75 85 81 84 76 81 86 89 63 73 26 24 22 20 26 29 30 27
43 37 72 77 92 90 87 79 72 96 94 98 98 100 87 100 97 76 99 85 96 90 93 90 93 69 80 90 87 88 87 82 84 91 95 59 52 26 22 30 26 32 36 34 39
36 54 83 81 93 80 84 94 86 97 98 98 99 100 88 99 99 88 93 80 83 97 95 88 92 98 77 94 92 95 94 89 96 94 90 38 60 35 26 24 24 34 34 32 38
94 76 86 89 98 77 93 86 89 85 98 98 100 100 99 98 95 98 100 98 100 84 86 92 85 96 93 83 94 93 91 82 86 77 69 53 47 41 32 34 33 35 34 36 39
78 88 95 96 94 82 91 83 74 97 93 97 99 99 100 96 94 98 99 96 92 92 92 87 94 90 98 98 96 97 97 78 86 65 76 50 31 31 30 33 34 37 37 38 38
78 90 93 81 82 76 98 89 93 99 98 91 95 96 98 96 91 91 93 91 98 98 93 87 89 89 97 99 99 93 86 89 88 96 85 46 39 36 36 36 37 38 39 39 40
78 91 89 96 93 88 97 89 98 94 93 96 84 91 89 93 94 92 84 93 97 98 96 98 95 93 98 90 80 92 99 92 90 89 91 80 47 38 39 42 42 43 48 53 46
78 98 90 90 95 90 80 98 97 96 94 96 90 87 91 88 88 90 88 94 98 98 99 98 94 97 86 84 72 92 89 85 85 71 75 74 73 53 58 54 63 67 60 56 61
90 78 95 97 96 82 95 98 96 99 99 92 94 91 89 94 90 96 95 91 94 92 94 96 98 94 82 83 80 82 73 86 88 86 92 93 67 53 56 66 82 97 74 60 66
84 95 96 94 97 98 97 97 92 95 98 89 89 91 91 96 93 94 97 87 77 86 98 93 98 76 86 78 84 88 84 87 94 98 87 86 79 72 87 94 86 99 94 90 88
66 76 86 95 96 98 96 95 86 88 87 96 95 91 92 95 99 97 98 91 86 82 88 91 96 97 93 69 70 77 89 93 98 94 99 95 99 87 89 92 89 98 95 86 84
69 85 74 64 64 96 93 98 94 89 98 91 95 89 95 95 95 97 98 94 86 88 95 98 98 90 67 65 79 86 77 91 93 99 100 100 96 100 99 100 99 92 92 79 76
67 80 80 59 68 95 95 84 94 85 85 88 74 75 81 75 76 84 90 85 98 88 94 99 93 84 89 87 83 92 82 79 83 85 99 99 98 100 100 100 99 98 98 98 94

GFSSW_700_rhum_045.txt.gz
RH
5 5 4 3 2 2 20 69 80 86 82 49 32 27 27 29 25 23 20 18 15 16 16 18 20 24 24 22 23 30 70 56 29 27 24 22 37 37 37 36 35 33 40 38 41
7 6 5 4 2 2 5 41 76 82 86 78 44 30 30 29 27 24 29 27 20 16 17 17 20 28 28 25 29 38 56 50 30 25 28 37 34 40 39 38 37 37 39 40 39
8 8 6 4 3 2 2 22 52 84 86 91 66 35 32 32 27 24 36 34 29 18 18 22 34 36 32 29 32 39 42 28 27 29 57 54 45 43 44 42 40 36 40 42 44
10 9 8 6 3 2 1 6 32 72 90 90 96 49 36 33 41 34 41 44 36 34 30 36 37 40 48 41 34 38 47 45 37 30 58 55 45 42 45 43 44 39 38 46 48
14 12 11 9 6 4 2 1 11 69 92 88 100 69 37 34 34 48 70 58 50 78 76 43 31 56 69 39 46 67 51 68 57 44 61 57 53 43 45 48 42 40 39 46 53
51 79 72 43 16 9 4 2 2 75 98 98 99 84 39 38 45 46 73 74 79 83 91 89 68 42 58 67 81 77 81 74 75 57 59 60 60 54 36 47 45 37 42 46 60
99 94 87 80 54 16 8 4 2 22 94 100 100 92 43 43 55 49 74 67 81 81 98 100 96 78 77 76 94 85 84 68 57 47 43 49 53 51 27 24 29 39 29 41 52
96 97 82 81 74 64 66 22 5 15 78 99 99 96 52 50 53 55 66 69 68 76 96 100 98 92 81 78 78 81 84 79 38 44 39 43 40 25 26 27 25 18 18 19 33
88 88 76 87 85 87 87 83 34 9 95 98 100 96 76 43 44 66 76 69 72 79 82 99 100 100 90 86 78 81 79 66 61 55 62 59 51 39 40 38 39 34 29 21 15
87 86 84 84 86 85 75 93 76 14 99 98 99 99 86 46 39 65 76 76 73 91 90 98 99 99 100 100 95 85 79 75 72 65 66 65 65 57 52 54 36 32 30 28 26
82 78 80 62 90 86 78 77 70 31 96 98 99 96 74 48 46 50 69 71 79 74 78 89 99 95 96 78 72 77 84 83 66 66 71 66 64 64 38 37 39 27 27 22 19
63 61 66 74 97 97 91 78 88 79 97 99 99 98 64 45 46 60 70 81 97 90 92 94 96 80 85 80 81 87 88 81 64 60 64 58 50 44 30 16 15 10 11 11 12
59 51 57 73 89 96 93 74 83 98 96 97 99 98 77 62 51 48 72 80 96 94 92 92 94 99 93 89 85 83 79 73 73 52 47 48 28 15 15 13 17 15 13 14 14
58 49 50 59 79 85 84 66 68 98 96 98 98 98 90 74 64 72 79 82 99 98 98 92 88 81 84 85 86 82 77 76 78 69 63 62 80 16 19 17 18 15 15 13 13
35 37 45 43 59 99 98 69 58 94 96 98 98 99 95 74 63 98 100 100 99 98 94 84 86 90 91 76 89 86 82 78 75 72 78 54 66 25 23 18 16 23 21 22 21
62 61 53 69 88 98 84 72 81 88 95 98 98 90 99 95 80 93 98 98 92 94 94 91 88 87 86 83 86 86 84 76 73 83 94 40 54 34 21 23 20 20 28 25 23
77 83 97 82 91 87 77 82 67 94 97 98 98 83 89 99 92 98 99 99 91 96 98 96 94 86 81 86 88 89 81 90 88 94 92 57 72 40 26 22 25 25 23 26 28
89 91 95 93 89 65 80 75 68 80 93 98 98 86 98 94 99 100 100 98 84 83 86 82 79 77 66 89 78 90 82 81 93 92 82 56 70 34 20 24 33 34 36 36 36
88 98 92 94 91 85 99 90 74 97 98 98 99 96 98 95 92 98 99 93 78 77 77 82 91 94 91 87 86 92 95 92 91 75 85 48 29 19 28 34 34 36 37 38 39
92 93 89 96 81 86 95 92 94 98 97 91 94 93 96 93 87 91 96 84 83 74 84 83 83 96 91 98 94 86 78 93 91 94 94 67 51 36 36 37 37 37 38 39 41
89 86 94 94 73 84 96 95 98 98 97 98 86 96 87 95 89 95 78 91 85 72 94 88 87 96 92 89 80 96 94 88 84 91 96 96 59 41 40 43 45 46 51 56 62
81 86 97 90 90 93 97 97 96 98 88 87 76 81 74 82 91 79 80 94 94 94 90 96 85 84 83 78 86 80 78 91 84 66 79 80 71 56 47 55 55 67 81 75 74
71 86 89 87 86 94 97 96 98 95 96 96 90 81 84 81 83 82 90 94 98 98 94 90 94 91 90 85 90 93 89 89 87 80 86 88 66 56 58 66 95 97 90 78 67
69 79 92 73 81 92 95 98 98 100 89 88 89 84 89 91 86 97 89 94 100 98 97 96 89 77 80 88 90 88 83 82 85 98 85 83 75 65 88 99 93 93 84 81 77
56 70 86 97 99 100 97 96 92 99 97 97 88 85 88 91 94 94 99 89 88 96 100 98 90 88 79 73 77 73 69 79 94 81 98 69 85 89 99 97 99 98 98 98 76
57 65 61 89 99 97 89 99 98 98 89 96 93 95 95 92 87 92 97 82 77 84 93 99 92 88 65 74 78 83 76 73 94 94 100 93 98 100 100 95 99 100 99 100 92
62 46 47 56 88 93 95 88 91 90 93 92 86 78 87 77 80 84 88 93 83 86 87 100 96 85 76 81 86 84 72 75 80 85 94 96 84 95 94 100 99 98 97 99 94

GFSSW_700_rhum_048.txt.gz
RH
9 8 7 7 6 4 3 2 6 75 89 94 88 53 33 27 26 27 22 22 18 16 18 20 21 23 22 24 28 35 46 37 26 25 15 19 37 41 38 38 36 34 32 29 33
15 13 10 8 8 6 4 2 2 44 83 89 95 82 43 29 26 23 25 26 23 17 17 22 21 25 25 24 30 35 41 29 22 22 24 19 26 34 37 40 38 36 34 33 31
16 14 13 11 10 8 6 2 2 11 88 88 100 94 65 34 28 23 24 28 31 24 17 23 30 35 30 28 37 38 33 22 16 19 23 24 32 36 43 38 40 38 37 36 39
17 22 24 27 25 21 9 4 2 4 49 94 99 99 86 48 34 26 26 28 36 36 22 28 31 37 34 38 34 41 37 24 18 20 30 36 36 40 52 46 39 40 38 43 46
84 100 99 96 67 51 21 13 4 2 36 72 99 98 100 58 31 36 48 34 42 71 59 24 32 34 31 38 36 46 50 36 26 28 31 52 60 40 44 50 46 40 39 38 40
99 95 97 96 89 73 60 17 8 4 16 34 93 99 95 69 36 40 71 59 46 81 70 51 45 40 36 35 47 53 38 42 40 31 30 37 44 48 33 44 51 48 43 40 38
88 86 90 81 81 76 77 75 33 7 3 23 92 99 86 81 38 45 72 84 73 73 87 79 85 74 44 58 67 64 81 76 48 35 39 36 25 34 37 33 42 49 49 46 41
79 85 85 84 83 83 81 80 83 50 4 62 99 98 95 92 49 40 61 72 86 88 99 100 99 76 60 83 81 91 84 82 52 37 41 43 30 24 23 26 28 29 42 44 42
75 79 79 80 86 80 82 79 98 86 8 58 99 99 95 95 50 51 63 78 73 90 92 98 100 94 85 78 78 90 90 82 55 51 45 50 45 22 29 29 29 22 18 17 17
73 66 62 86 81 88 87 66 75 87 18 79 99 99 99 91 49 67 84 78 74 79 91 100 100 100 99 90 94 79 77 70 74 55 69 68 67 48 47 44 36 33 26 22 18
66 53 48 61 56 92 85 80 74 72 45 99 98 99 98 96 50 69 91 83 86 99 93 99 100 97 100 96 89 92 87 82 68 76 68 68 76 42 28 44 40 34 26 23 21
57 46 46 52 75 84 91 91 74 86 48 98 98 98 70 77 50 76 92 85 84 89 99 100 100 99 99 99 93 89 89 76 75 76 76 64 55 44 33 32 26 20 20 19 21
38 37 43 56 58 70 84 71 64 77 54 97 98 98 96 58 50 68 92 81 83 84 82 84 88 87 88 87 98 87 89 86 81 69 66 63 56 39 21 14 14 13 13 14 13
31 32 35 43 48 63 96 66 77 97 83 97 98 99 95 74 72 74 98 80 94 96 100 98 90 90 91 83 85 85 85 82 77 67 61 46 60 16 15 14 14 16 14 15 17
37 56 84 73 61 62 97 83 73 98 95 71 98 94 96 81 77 100 100 99 96 91 90 87 95 89 77 88 90 86 80 74 73 76 74 50 61 21 16 14 16 14 15 15 12
92 85 95 99 96 91 96 98 88 96 95 98 99 99 96 88 91 100 100 96 98 91 94 88 84 84 79 79 84 88 81 77 75 73 84 52 60 29 21 21 22 24 20 22 24
78 78 92 87 82 91 97 79 75 95 97 98 99 98 93 100 99 95 95 99 95 99 100 98 93 91 84 87 89 90 84 84 89 94 83 63 77 26 24 24 28 31 31 28 31
79 82 96 100 89 88 80 82 85 95 93 99 94 97 94 97 96 99 97 100 89 86 93 94 95 89 80 84 68 89 79 70 79 96 86 62 65 31 24 15 21 30 35 34 34
88 91 93 83 82 87 83 92 95 97 98 98 100 93 99 93 98 99 96 95 92 81 76 88 87 90 84 86 83 88 94 82 89 90 92 55 36 24 22 34 36 36 37 37 38
88 81 76 70 86 96 96 96 97 94 92 90 93 98 99 95 95 95 94 98 85 75 71 75 89 94 94 95 93 81 79 87 87 82 88 64 57 26 33 40 40 42 44 46 45
67 56 58 53 84 92 96 97 98 93 97 96 88 96 94 93 84 90 90 86 80 80 80 84 78 99 94 91 87 90 91 84 79 78 93 95 50 42 44 41 39 42 50 54 59
56 64 53 68 88 92 97 97 97 98 89 87 84 69 80 81 89 81 80 92 76 71 83 85 90 90 95 88 89 91 84 82 72 68 92 92 65 48 44 51 58 79 85 85 75
48 64 47 68 83 97 98 99 99 90 90 88 79 75 72 72 82 76 81 88 84 83 88 84 88 90 92 86 89 90 88 95 85 79 88 85 64 51 58 75 94 84 95 96 82
54 78 54 60 91 93 97 99 100 99 91 78 77 77 80 74 78 83 83 96 92 94 88 87 86 76 77 77 76 84 71 75 88 92 86 78 63 70 90 97 86 88 96 99 100
58 83 77 67 71 72 85 100 99 88 85 84 85 81 77 92 92 87 89 95 97 97 93 96 90 86 78 85 90 85 79 83 87 72 93 65 83 83 94 100 99 95 98 99 100
54 61 70 88 85 100 88 92 91 93 88 93 95 100 87 87 85 86 77 87 95 98 99 97 94 84 70 63 66 69 69 67 70 72 91 82 86 98 99 100 100 92 100 99 92
47 51 79 87 90 94 95 97 95 94 96 93 92 92 90 86 86 84 79 81 80 79 88 99 99 90 68 90 82 80 68 69 73 79 84 91 87 98 93 98 94 99 88 87 89

GFSSW_700_rhum_051.txt.gz
RH
15 17 17 16 15 11 7 6 4 2 8 69 94 98 91 57 32 24 19 23 23 20 18 18 20 24 27 32 38 40 42 39 31 28 24 23 23 24 36 40 35 37 37 35 33
18 18 17 16 16 16 12 8 6 4 5 40 88 100 94 85 40 25 22 27 25 20 19 18 19 27 30 31 39 40 42 35 27 25 27 26 26 26 40 40 39 39 38 37 34
18 46 78 94 82 49 39 22 9 5 3 6 88 93 97 89 57 24 26 27 28 24 18 19 24 30 32 30 36 37 36 25 20 22 22 25 21 21 28 37 40 41 39 37 36
23 58 100 95 95 95 90 68 31 10 4 4 67 89 99 83 77 34 26 26 31 31 21 31 27 35 37 35 35 30 30 25 19 23 25 26 24 23 21 30 37 41 42 39 39
59 85 86 94 93 91 84 78 59 25 9 3 43 91 99 87 75 39 40 28 34 36 30 47 29 31 32 37 38 39 33 25 21 18 22 25 30 23 15 20 39 39 43 42 40
86 81 79 75 79 79 75 76 81 68 27 4 45 92 99 99 82 52 49 46 32 40 41 29 48 37 37 42 43 48 41 33 30 24 26 25 22 23 14 14 32 38 45 42 42
87 86 76 77 80 76 83 85 81 77 74 7 32 89 99 99 82 52 47 70 46 60 79 54 42 56 62 54 55 54 58 37 34 32 30 26 21 19 19 18 15 23 44 46 43
76 83 74 68 68 78 78 78 90 87 88 22 43 75 98 99 96 54 73 80 67 90 89 67 64 67 59 68 60 64 73 83 40 30 31 33 17 26 28 18 20 26 33 47 49
92 84 69 68 81 81 84 81 79 82 87 45 73 99 98 99 91 51 69 94 80 88 95 88 87 94 75 97 96 92 87 73 47 48 47 50 43 24 24 21 24 20 21 34 40
72 67 52 45 53 60 85 93 82 69 76 49 74 100 97 99 95 58 64 87 84 91 100 99 97 100 93 93 96 95 78 65 64 55 65 63 69 28 30 31 31 24 14 12 12
73 57 62 39 44 66 83 68 87 66 71 51 90 99 91 99 98 66 74 82 89 99 99 100 98 99 93 86 78 81 82 77 66 62 67 57 65 35 29 44 36 26 21 21 18
31 34 39 39 51 59 56 69 92 74 71 71 98 98 96 98 90 91 90 77 89 94 99 98 100 98 99 100 100 97 98 88 75 74 79 66 60 39 28 31 34 34 26 23 24
29 33 41 48 46 51 55 77 73 71 57 98 95 92 96 96 79 95 93 100 99 100 100 96 94 98 99 100 99 100 92 83 83 74 76 71 60 38 28 30 24 17 18 14 12
30 55 91 94 79 78 59 89 69 82 59 97 100 100 99 98 78 83 99 99 100 96 94 98 95 92 98 93 88 98 87 85 84 80 76 62 64 29 18 13 15 17 25 21 17
70 90 97 95 97 97 79 79 80 93 91 94 98 99 97 97 72 100 99 100 100 99 93 89 97 85 95 90 94 91 85 83 77 70 67 52 57 20 15 15 18 20 19 20 17
93 90 90 97 90 89 91 79 90 97 96 98 98 99 97 95 84 99 99 99 99 99 91 83 94 90 86 94 98 91 86 78 73 68 78 59 56 17 23 24 18 18 16 20 20
93 89 92 77 78 77 74 68 81 95 97 98 98 93 88 95 98 96 93 96 98 99 95 94 94 91 86 82 82 90 87 71 78 87 78 69 69 21 28 32 26 23 24 26 27
83 84 73 71 74 87 77 73 88 94 97 98 98 95 94 98 99 98 89 96 94 92 93 93 96 88 80 81 72 90 82 63 68 88 86 73 68 32 26 29 27 25 27 32 34
83 66 59 62 74 93 87 94 95 95 98 98 98 94 98 100 98 95 98 98 90 81 73 85 85 88 85 76 82 86 89 76 78 90 95 58 38 25 28 21 32 36 39 41 39
60 50 64 79 76 74 90 96 98 98 100 89 92 94 98 98 94 99 92 91 86 82 74 80 84 90 86 94 92 80 74 81 77 66 75 56 46 23 32 36 42 42 41 44 46
37 55 72 78 82 80 91 99 100 99 95 88 86 98 97 91 89 94 81 88 91 85 76 78 74 98 89 93 94 92 89 79 70 68 87 88 38 36 42 43 50 54 56 62 71
47 65 62 74 91 91 97 96 89 95 83 74 83 74 78 83 91 78 85 84 87 86 79 80 80 96 96 92 94 98 81 75 68 75 96 91 54 46 52 64 79 85 81 79 97
52 53 71 75 87 97 100 99 94 82 78 74 76 75 72 69 79 81 75 83 73 82 82 80 80 87 96 94 95 94 88 94 86 79 84 82 54 52 63 83 88 83 79 82 93
51 55 76 80 92 97 90 92 92 94 83 81 71 70 70 70 74 80 81 87 82 83 82 77 81 77 77 72 77 86 76 83 95 95 84 68 56 64 80 91 88 83 88 90 85
58 56 64 72 76 96 96 96 94 95 91 83 82 74 75 77 78 81 83 86 88 91 84 87 88 88 79 87 90 83 75 74 79 72 84 60 68 76 92 98 92 98 92 86 87
52 69 64 87 78 97 96 88 79 83 75 75 84 81 76 81 81 77 77 88 89 91 87 94 95 88 74 72 75 77 78 80 77 80 83 70 78 90 92 100 99 91 93 86 85
47 60 69 80 92 88 88 86 88 83 92 98 98 92 90 87 83 88 86 87 86 86 93 99 99 96 74 93 87 75 63 54 51 58 72 83 87 99 97 97 98 87 93 94 91

GFSSW_700_rhum_054.txt.gz
RH
18 18 17 30 22 21 19 18 16 9 5 3 28 92 100 85 88 51 24 22 25 25 22 20 24 28 31 39 46 41 37 34 30 28 27 28 26 26 25 28 38 37 38 37 34
17 14 16 31 89 92 71 55 47 21 10 5 7 70 91 100 92 72 34 29 27 25 23 21 22 30 30 36 48 48 39 36 33 31 29 30 29 25 25 25 37 38 34 36 37
8 12 21 51 88 88 94 94 80 84 27 13 4 46 88 99 86 55 68 30 28 26 24 22 29 35 32 34 44 43 38 32 29 29 27 29 29 26 25 30 38 39 35 36 38
38 79 98 85 82 77 78 81 94 95 76 36 8 31 93 100 99 75 60 31 28 27 25 23 26 43 46 37 39 40 38 34 26 26 29 30 28 25 23 21 35 39 43 40 40
62 99 91 89 80 71 70 73 80 84 73 68 18 24 100 99 97 72 50 33 29 30 28 31 33 51 46 41 43 41 39 34 26 28 30 29 25 23 17 16 21 34 41 45 43
86 96 74 88 67 67 69 72 80 78 73 82 36 12 100 100 94 97 69 42 28 29 32 30 72 45 56 46 42 46 42 34 28 28 28 26 21 21 10 11 15 21 42 46 48
74 90 93 76 63 59 73 77 75 80 80 73 78 60 98 99 98 98 84 60 37 30 34 32 74 62 53 53 49 59 52 36 29 28 30 27 20 14 11 13 12 14 22 46 49
100 86 77 64 57 77 84 82 87 91 78 84 83 96 98 99 98 97 82 68 52 47 45 45 73 80 73 62 60 56 64 52 34 29 28 35 22 27 20 16 11 12 14 21 43
98 99 100 52 39 46 58 79 77 82 74 86 94 94 98 71 99 89 62 74 62 62 85 97 80 78 86 73 75 79 70 54 44 36 36 30 32 31 24 17 16 14 12 16 18
96 100 56 40 39 42 50 69 63 80 78 77 89 98 87 84 98 74 74 94 74 90 99 98 98 89 90 98 87 88 94 53 41 38 40 41 54 33 29 24 19 17 11 10 12
88 50 34 36 38 41 53 53 61 92 78 84 60 97 70 81 98 72 86 97 86 91 99 97 96 97 90 91 87 72 68 63 47 61 64 56 58 30 27 25 22 19 16 15 15
28 32 34 71 62 54 58 52 59 73 77 72 65 98 76 87 97 81 72 100 97 95 98 99 99 99 98 90 94 98 90 79 78 77 79 67 60 35 21 26 25 29 27 23 22
52 58 83 97 96 89 58 59 74 64 75 95 66 97 100 97 94 85 88 94 92 98 96 99 99 96 99 99 100 99 94 86 82 79 77 70 58 31 24 32 28 27 27 26 19
93 96 95 91 96 95 93 68 65 66 74 87 99 97 99 99 94 96 92 91 96 99 99 99 100 95 100 99 99 100 90 94 82 82 79 68 69 32 24 20 19 16 19 25 26
94 84 87 89 83 87 86 77 67 68 89 96 98 82 98 97 89 100 100 98 97 96 95 95 94 92 93 98 95 94 86 84 82 77 69 60 57 25 16 19 22 24 25 26 24
75 82 79 74 74 77 68 68 88 94 96 99 99 99 93 99 84 99 97 93 99 98 98 92 94 99 100 100 98 90 88 86 79 72 76 59 50 18 30 33 32 29 28 29 28
66 64 68 70 76 66 67 78 94 92 96 96 98 98 97 95 89 95 98 96 95 98 94 98 98 94 94 95 96 93 91 74 71 83 73 69 63 22 32 31 31 28 25 21 23
58 66 63 71 57 56 82 94 94 97 98 98 98 95 98 95 98 98 99 91 98 94 88 86 99 97 94 86 80 94 87 60 59 80 79 77 70 33 34 34 33 23 23 26 30
65 72 70 52 60 78 90 95 97 97 98 98 98 91 100 100 98 98 85 80 97 88 75 82 86 95 83 90 83 86 87 73 68 89 91 57 39 32 31 29 33 42 42 39 37
68 76 82 77 74 89 94 99 100 98 93 88 95 92 96 99 98 95 90 91 96 85 82 77 84 93 89 94 89 80 76 75 66 64 64 42 39 23 37 40 48 50 49 49 47
64 62 84 85 83 88 97 98 100 97 94 82 75 89 91 96 94 94 93 94 97 85 76 73 73 96 95 97 89 84 83 72 68 64 78 64 32 40 38 56 61 66 65 65 70
61 72 78 67 69 91 96 99 97 85 77 69 80 72 76 85 88 87 84 71 83 86 76 75 74 97 95 96 92 95 87 75 60 74 83 89 42 42 53 68 80 81 79 80 78
62 78 82 75 99 81 93 92 86 76 66 63 75 67 68 75 75 76 77 74 87 92 81 75 76 93 100 95 96 96 89 90 76 70 75 82 44 50 56 78 82 80 78 81 82
57 76 81 84 96 100 99 84 76 78 70 70 71 76 70 73 66 78 74 76 70 87 84 81 77 72 74 72 79 92 82 84 88 90 81 56 35 52 74 82 77 80 84 89 87
51 50 56 82 99 100 100 98 85 90 86 83 77 71 75 71 69 73 74 75 83 90 92 90 81 77 77 80 88 85 76 79 83 82 73 49 55 68 84 85 85 94 86 91 90
48 59 58 68 87 100 98 95 86 80 85 83 79 87 78 69 69 72 75 82 86 96 87 89 82 85 75 74 76 73 72 84 79 73 69 60 67 83 90 82 91 94 84 91 90
42 43 67 75 89 83 81 92 87 83 84 81 82 82 81 86 87 86 85 87 86 87 89 92 93 90 78 81 86 70 57 58 59 54 55 67 79 95 83 88 94 99 92 96 89

GFSSW_700_rhum_060.txt.gz
RH
22 20 17 15 22 20 26 28 52 82 99 68 25 27 11 46 68 95 91 75 58 32 24 30 26 36 49 51 33 32 66 56 62 57 48 39 27 25 25 26 27 28 35 36 37
19 14 11 34 50 79 94 84 76 87 85 89 71 52 32 15 98 78 96 91 79 39 27 28 26 61 63 57 51 36 58 49 56 61 48 29 24 24 25 25 25 24 26 37 38
12 18 57 100 100 99 99 90 78 75 86 82 80 60 52 18 61 63 100 77 94 42 28 30 33 64 75 55 58 47 57 55 52 32 31 31 28 25 26 26 27 25 23 34 38
41 93 97 94 97 97 85 80 69 59 57 57 61 75 66 45 39 76 64 68 99 46 29 30 37 64 77 59 57 57 46 59 46 30 30 32 31 30 30 39 27 25 25 27 38
71 94 90 98 94 93 83 88 62 47 52 58 62 68 59 67 25 76 84 99 99 60 31 30 44 61 74 82 62 56 67 52 48 40 38 38 39 36 32 32 27 26 29 35 38
98 93 92 95 88 91 85 76 68 68 66 57 64 77 78 74 29 97 99 84 94 75 34 32 30 70 91 90 81 71 83 57 54 45 42 41 42 35 32 31 27 27 28 34 39
90 94 93 94 83 99 79 72 71 73 61 67 76 86 89 67 61 96 99 97 93 75 35 35 40 73 85 97 80 86 71 62 50 44 41 41 40 30 29 28 25 24 22 24 30
89 94 63 76 75 69 68 47 53 56 64 62 89 88 72 86 64 62 100 94 99 79 37 40 49 69 100 98 81 80 88 76 36 38 38 36 38 43 24 23 20 19 17 17 18
89 95 77 39 36 59 38 41 44 44 46 59 86 94 94 80 66 76 97 98 94 48 43 59 78 78 84 90 98 92 62 64 62 34 40 32 47 48 24 20 17 14 12 11 11
84 92 95 86 65 72 73 43 53 57 51 70 74 95 83 60 96 95 79 99 96 49 76 96 98 92 99 88 64 74 73 74 61 51 38 33 44 35 26 19 16 15 15 14 12
71 83 88 96 96 88 95 74 67 56 69 77 87 97 66 75 98 100 72 98 95 67 88 96 99 95 99 90 72 73 78 66 33 42 36 46 61 33 29 24 17 15 15 17 15
67 66 65 70 75 89 96 80 61 69 74 73 90 98 67 79 85 90 83 98 92 97 94 94 95 97 100 99 80 80 67 66 45 40 48 67 47 33 27 21 15 14 14 13 13
64 58 50 64 61 90 78 69 65 75 88 84 92 76 77 78 88 98 99 98 93 92 89 99 92 100 98 100 95 85 72 81 73 61 69 66 52 38 31 26 25 23 20 17 16
36 31 44 64 66 60 55 60 76 92 96 94 97 81 97 97 95 100 99 100 92 91 99 98 89 90 95 97 89 90 86 81 78 83 63 63 35 47 46 43 38 34 30 26 25
57 45 34 38 33 39 58 85 92 91 94 97 98 98 86 87 96 98 98 99 99 97 95 98 98 97 96 99 97 98 99 93 93 89 74 61 55 54 42 37 34 32 30 26 27
70 66 76 71 62 80 82 83 80 85 92 95 99 90 93 98 99 98 94 98 97 98 99 98 99 99 99 99 99 92 95 98 86 75 69 60 58 41 44 45 39 40 39 36 34
74 71 70 78 72 63 56 57 69 92 97 98 100 99 98 97 100 98 99 96 98 98 98 98 99 99 99 99 99 98 94 84 80 82 59 52 59 42 39 40 44 42 42 38 34
56 59 64 68 61 43 42 62 87 99 96 100 100 98 97 93 91 84 94 94 80 88 96 98 98 99 100 92 90 96 92 75 54 43 42 60 55 43 44 45 46 45 40 34 27
57 50 58 58 51 42 41 57 97 98 99 97 95 98 100 100 96 99 91 88 91 79 75 88 99 97 98 97 89 91 93 74 52 61 60 45 47 47 46 44 49 44 42 43 43
59 50 57 55 59 44 41 95 99 99 99 92 86 93 92 85 91 92 85 81 82 78 67 77 97 98 99 97 91 89 81 74 60 66 47 36 35 34 41 45 54 51 54 55 52
59 53 57 59 64 58 62 93 99 93 85 76 75 86 95 88 88 84 81 80 81 81 74 69 80 97 97 95 94 81 80 66 58 53 44 24 23 45 50 62 60 56 54 55 53
55 51 52 63 62 82 93 91 88 82 75 71 80 94 100 92 86 85 73 68 81 81 74 72 75 98 95 89 84 86 76 63 63 69 66 69 33 42 58 55 54 58 64 65 59
44 53 57 55 54 68 79 84 81 74 69 74 79 80 81 88 91 84 74 66 77 82 75 64 70 96 98 96 92 90 79 72 60 60 61 54 34 43 49 57 62 70 76 74 69
39 48 56 61 58 61 71 78 77 74 70 69 72 71 79 85 74 82 79 75 78 89 79 67 60 66 60 72 77 82 70 75 77 71 67 54 47 47 51 58 76 81 81 86 87
34 41 53 59 71 72 62 66 71 70 70 68 72 69 81 77 68 67 78 78 78 77 84 80 70 66 64 68 73 75 76 77 81 72 63 57 41 47 61 76 82 85 91 98 98
34 36 39 56 58 72 76 73 68 67 68 76 73 72 72 70 67 67 76 71 68 72 80 85 75 71 69 66 72 71 71 73 71 77 67 58 41 61 81 84 81 88 98 100 100
11 34 36 48 68 72 79 75 78 82 77 81 79 80 79 76 72 71 70 74 80 69 74 92 89 81 86 76 76 76 53 59 59 59 58 57 57 67 83 86 87 93 97 93 93

GFSSW_700_rhum_063.txt.gz
RH
24 24 20 16 18 67 100 95 97 99 92 97 97 64 40 21 9 86 60 70 83 48 30 24 29 36 74 57 40 49 79 61 55 49 41 42 48 47 40 38 35 37 43 47 43
38 45 33 82 99 97 96 98 97 97 89 100 99 91 85 48 19 12 88 50 84 81 35 26 26 33 76 64 60 40 72 60 56 51 50 45 49 43 31 25 34 35 32 37 40
57 54 77 94 90 88 92 90 89 89 92 87 87 89 89 80 42 16 31 50 98 99 49 28 31 37 83 84 67 48 54 56 46 49 56 52 50 39 38 33 33 36 42 30 36
94 92 92 92 92 98 95 82 90 76 68 62 60 68 74 77 50 54 27 74 60 99 61 34 45 62 84 80 64 71 51 53 55 51 56 52 48 45 44 38 40 45 33 25 27
91 91 87 83 86 93 95 86 78 88 60 60 51 52 53 56 35 68 40 66 98 96 76 36 91 77 88 99 88 69 72 68 76 60 48 55 50 54 50 50 40 29 25 24 22
89 79 84 86 85 86 93 89 74 74 74 64 61 69 69 52 54 57 100 62 80 74 90 36 91 95 99 99 97 94 83 86 80 65 51 46 55 55 47 56 32 30 27 25 23
76 75 81 73 33 69 84 83 73 69 71 62 68 82 74 55 84 53 94 68 66 74 93 42 97 99 100 98 100 99 86 91 83 75 63 54 61 42 52 40 34 31 27 26 23
82 79 81 84 56 30 38 50 55 52 56 64 68 69 79 69 70 75 97 99 84 95 92 85 90 99 99 99 98 98 87 83 82 63 66 65 52 49 36 37 33 30 26 26 24
61 67 80 83 80 40 45 36 40 41 50 50 55 73 81 70 64 56 99 100 99 99 89 50 66 89 99 92 94 88 69 65 60 57 58 48 49 47 45 31 26 32 24 21 19
34 53 66 73 81 84 63 65 39 48 52 51 68 80 76 81 72 57 97 98 92 90 93 59 90 81 89 90 81 68 64 49 48 68 63 66 61 52 54 31 23 35 28 16 14
25 39 46 57 69 92 93 95 71 65 58 79 85 82 86 98 93 67 100 99 87 99 69 70 92 90 85 78 57 48 58 46 47 57 67 60 60 54 56 32 19 17 21 24 14
48 34 44 59 69 78 88 80 57 64 87 69 88 100 84 97 94 71 99 98 98 88 100 89 99 83 89 79 69 63 57 58 59 64 62 55 61 63 63 31 24 23 20 27 21
62 61 36 39 43 50 56 56 56 69 95 88 97 80 86 97 98 98 97 99 99 94 98 98 99 94 98 86 82 62 58 56 61 69 63 65 62 55 50 25 17 15 15 15 15
76 73 52 59 61 68 73 62 69 93 97 96 79 96 87 99 92 97 80 99 99 93 99 99 99 96 93 95 81 65 61 56 82 72 48 60 24 54 53 28 27 23 22 20 18
66 53 75 66 51 52 66 83 87 88 83 91 84 74 97 80 94 97 98 98 100 99 93 98 99 96 99 91 86 91 76 85 84 79 72 64 51 50 43 45 44 39 33 31 28
55 47 47 45 49 50 60 72 84 90 92 96 84 89 98 98 99 99 98 79 84 99 80 96 85 90 99 98 98 85 96 94 88 81 74 55 50 47 49 55 54 41 39 34 31
48 46 44 41 37 45 61 68 93 91 98 89 98 96 97 98 98 98 99 98 98 97 97 97 99 100 99 99 100 96 93 94 95 90 63 57 56 39 43 52 54 62 42 38 37
47 43 35 34 36 48 62 65 92 100 99 94 96 95 97 97 92 99 97 96 95 95 98 98 98 98 99 99 98 99 98 81 68 54 48 64 50 39 45 50 65 43 43 41 38
50 42 28 38 39 40 42 62 100 99 94 98 98 98 98 82 81 96 100 99 96 94 95 98 97 99 99 97 98 99 97 80 61 44 44 41 45 50 46 49 52 48 45 40 34
44 43 37 43 38 36 38 72 97 90 89 95 91 90 81 94 94 89 90 81 83 74 81 86 98 98 96 96 92 94 89 76 63 69 41 36 31 32 44 46 50 50 43 41 43
47 39 46 48 51 39 45 92 96 85 76 87 94 86 83 90 88 85 89 77 79 73 70 80 85 100 98 97 91 80 81 68 68 54 45 22 23 36 42 45 61 53 57 56 50
37 37 46 47 55 50 69 80 78 74 70 76 97 96 83 87 83 81 79 92 78 78 80 68 97 91 95 88 85 89 79 71 60 54 56 62 39 49 62 62 58 55 56 56 57
36 38 46 49 56 56 62 70 73 70 65 68 78 86 80 90 86 89 81 66 79 77 80 67 82 90 87 90 84 84 82 82 74 56 70 52 41 55 63 66 52 48 62 65 68
35 36 42 51 52 58 83 66 62 61 61 61 66 67 77 90 76 89 85 68 66 76 76 64 66 78 58 80 80 87 90 84 74 72 60 54 46 44 52 58 68 66 80 80 82
27 36 38 46 59 60 65 65 66 67 61 61 63 67 84 82 82 83 87 75 74 78 84 80 86 60 55 58 66 70 86 94 82 66 68 63 55 52 59 66 76 75 80 84 93
21 32 36 38 50 60 64 78 65 66 68 86 74 68 77 77 73 80 78 90 85 70 82 78 74 68 66 59 60 64 68 74 71 69 70 54 49 63 59 64 77 81 83 89 96
45 20 21 42 50 64 98 69 64 67 65 68 85 82 86 76 69 65 68 85 87 79 80 96 87 77 74 71 73 77 49 53 52 52 52 60 48 68 70 76 82 84 85 82 80

GFSSW_700_rhum_066.txt.gz
RH
55 79 98 96 93 95 93 94 96 94 96 95 91 98 91 74 32 14 66 49 72 72 64 29 25 33 48 74 55 80 99 90 84 66 52 42 42 44 42 40 38 37 39 63 52
24 79 92 88 90 94 93 94 93 81 93 94 84 88 98 98 67 28 26 69 47 71 84 39 26 33 54 96 75 85 96 86 80 64 54 47 51 47 43 41 38 37 36 45 54
35 85 81 85 89 85 83 87 89 74 80 81 94 97 91 91 80 52 25 25 63 69 83 43 30 31 57 87 80 71 77 46 66 59 55 51 49 47 46 41 34 37 34 39 43
57 80 75 76 81 85 82 84 87 77 82 73 79 88 91 96 69 70 28 20 68 55 98 68 32 37 60 78 75 72 55 57 59 60 58 52 51 47 40 39 36 33 37 32 33
77 87 87 84 81 61 82 82 82 72 84 78 71 60 65 64 38 76 84 23 54 86 98 82 37 52 67 80 97 66 75 53 57 53 49 50 52 48 45 48 44 40 40 34 33
87 78 66 78 88 54 51 74 82 67 75 77 66 60 64 51 57 62 91 64 52 68 85 91 45 76 76 96 96 86 76 70 68 64 53 52 51 48 50 51 48 42 38 36 28
34 51 68 73 80 70 30 52 67 65 65 68 57 54 59 59 85 56 84 68 73 89 87 90 49 96 96 92 92 97 82 84 74 67 58 51 50 35 51 54 56 39 36 30 27
41 33 62 54 77 82 34 35 49 54 57 60 58 50 38 60 67 50 83 89 73 94 93 95 57 98 86 87 95 99 80 96 82 78 69 59 44 38 39 54 45 43 37 30 29
57 30 42 51 61 81 51 39 39 41 42 51 46 52 59 63 61 47 51 100 82 99 83 98 87 83 88 99 93 95 88 85 82 78 79 56 58 50 50 43 41 42 35 32 27
65 49 36 40 63 76 94 61 55 37 44 49 59 77 78 86 90 60 71 98 98 76 96 98 85 91 83 84 87 81 80 68 70 71 66 47 47 50 49 46 43 34 32 33 25
66 54 50 33 48 79 82 86 74 75 65 80 87 92 80 86 82 54 76 98 91 99 98 99 78 81 81 74 81 66 72 61 59 61 60 42 54 44 56 51 39 32 25 30 21
52 47 51 55 41 48 55 56 59 56 75 62 73 91 92 91 84 70 97 99 99 99 98 94 70 64 94 87 80 93 83 55 52 58 62 60 47 52 49 49 33 27 21 22 28
53 37 36 50 60 47 74 67 68 84 95 91 86 84 96 98 79 97 92 98 98 98 86 98 85 95 92 84 81 79 63 53 56 69 70 60 56 53 57 54 44 21 15 15 16
46 42 32 43 58 69 74 82 88 93 98 85 77 77 89 100 100 96 89 99 97 93 92 89 98 75 99 87 81 78 59 60 60 68 62 51 40 34 32 39 26 20 19 18 16
42 36 38 30 47 61 75 86 82 85 90 92 96 98 98 97 90 98 96 98 98 90 91 100 90 94 86 79 85 70 57 57 69 57 68 64 56 37 47 48 40 27 21 17 18
38 34 27 31 45 59 61 78 76 76 96 97 98 99 100 89 81 94 93 99 99 95 95 95 98 99 95 98 97 77 75 80 82 82 84 65 49 53 50 42 38 46 38 33 30
41 27 21 31 49 57 48 50 70 88 95 96 93 98 98 95 97 99 99 99 95 99 92 95 96 100 96 98 99 99 82 91 91 94 87 53 58 42 43 44 44 41 46 46 39
39 33 18 29 33 46 45 40 86 94 97 90 99 98 94 92 97 98 98 86 83 84 83 80 88 98 90 97 97 98 70 81 76 88 73 57 56 45 44 45 51 58 50 40 40
33 38 30 23 27 35 38 47 90 85 80 92 93 98 86 77 82 89 92 97 97 97 95 98 94 99 100 87 99 93 99 88 63 40 59 53 48 51 43 50 53 48 45 41 41
26 33 32 41 33 40 39 58 89 86 80 91 90 81 84 88 85 87 88 92 86 87 92 91 96 99 98 99 99 97 96 85 53 74 62 44 41 37 43 47 46 51 47 42 40
25 28 40 44 44 36 42 56 71 70 69 87 87 79 74 85 80 80 84 83 80 76 85 88 86 98 98 96 95 98 98 87 72 58 80 48 37 36 33 36 42 49 44 43 41
25 28 40 42 48 50 50 56 57 57 62 72 89 86 78 81 81 80 83 86 74 80 80 81 86 93 94 92 93 91 85 93 65 61 50 54 49 46 42 42 58 49 51 53 51
17 27 36 45 68 58 58 58 58 58 59 66 77 71 72 83 78 86 75 65 72 76 82 71 73 89 88 80 79 81 77 77 70 66 64 78 52 56 52 59 60 55 49 46 52
31 22 33 40 53 62 93 88 77 59 56 58 62 64 73 84 80 86 82 59 61 70 69 65 82 84 75 82 76 72 67 74 76 62 59 48 49 63 65 60 58 54 48 53 68
50 26 32 40 82 59 68 95 83 88 58 59 64 65 85 81 81 82 90 72 68 62 72 72 85 66 64 56 57 62 64 88 83 65 58 60 50 49 54 53 65 65 55 76 79
57 45 26 34 41 60 87 98 93 97 61 84 74 87 83 79 74 75 74 85 79 68 68 74 72 68 62 56 53 51 53 68 77 69 65 61 50 57 61 64 66 58 73 80 79
50 53 56 31 39 51 91 100 98 76 83 63 70 93 80 87 75 68 76 84 86 80 69 84 75 74 79 75 64 59 35 40 51 50 48 54 39 49 55 57 55 78 82 79 74

GFSSW_700_rhum_069.txt.gz
RH
31 33 84 93 86 88 83 83 93 88 82 91 88 87 95 99 94 42 16 64 98 70 68 38 25 29 56 55 56 89 100 99 88 78 55 58 67 48 42 35 39 38 37 52 48
36 49 91 90 83 81 76 75 87 92 82 79 94 90 90 96 92 61 33 23 68 54 72 52 27 31 51 70 87 60 64 57 67 71 74 83 70 45 43 34 41 39 38 57 56
34 70 74 91 89 84 72 74 80 84 78 74 75 79 87 90 81 76 61 24 35 49 76 66 35 42 57 77 93 69 50 44 55 80 92 92 72 64 51 42 39 39 37 40 62
37 51 58 63 78 92 74 62 77 80 69 83 93 80 80 95 89 76 47 35 23 38 100 77 38 42 62 70 80 63 65 55 60 90 94 78 72 64 48 46 41 39 36 34 47
51 41 48 58 66 90 73 47 77 75 68 81 72 63 84 94 81 98 55 32 25 46 78 81 43 33 58 68 86 82 81 63 57 68 66 83 60 51 47 43 41 39 35 32 32
50 49 36 43 59 75 59 29 65 65 71 73 68 61 54 52 68 89 100 47 37 78 72 71 69 34 49 71 78 82 76 70 78 63 61 59 54 53 47 45 45 52 48 40 34
47 44 28 41 56 76 61 27 33 57 65 66 55 47 52 77 53 53 97 71 62 83 100 91 82 39 66 80 79 96 76 80 79 67 59 56 52 47 48 43 46 50 48 44 41
36 36 19 28 54 79 59 35 47 48 51 56 53 45 42 54 63 48 61 100 54 74 85 96 82 56 97 89 91 96 86 86 76 73 59 54 46 45 47 46 45 38 46 46 42
32 36 24 31 45 79 82 43 37 39 38 44 44 39 50 60 66 53 47 98 87 71 70 96 84 89 94 88 98 96 91 80 75 73 69 53 42 39 35 42 36 44 37 37 36
33 39 40 54 32 55 69 60 63 46 38 40 48 69 75 74 78 51 43 89 82 97 99 98 99 87 93 86 89 98 87 76 63 73 76 59 50 50 44 41 35 39 40 37 37
27 33 40 50 62 41 38 48 55 55 66 74 60 78 74 88 83 54 40 96 76 98 98 99 98 73 77 83 90 72 78 74 63 63 66 60 53 55 51 44 40 40 38 35 34
36 32 34 47 58 57 65 63 59 76 89 82 90 92 84 79 81 57 40 88 82 97 99 97 97 74 74 78 82 84 79 70 64 66 66 59 55 46 54 50 39 37 37 34 30
35 27 32 45 55 61 65 76 83 87 95 98 96 94 95 76 69 61 63 98 95 94 100 99 93 78 83 73 81 90 81 73 67 62 67 70 69 61 45 48 47 36 30 29 27
24 20 28 41 51 63 69 72 62 63 82 95 97 99 92 66 97 84 80 87 79 99 97 98 92 75 84 79 84 92 70 70 62 71 78 68 61 40 38 34 34 31 22 23 23
22 18 27 45 50 44 64 69 66 77 91 98 99 100 97 76 83 98 99 100 97 99 96 98 93 78 75 93 89 79 73 79 64 66 65 59 61 44 37 36 27 22 20 21 19
24 16 21 32 40 30 37 48 63 71 90 97 98 99 89 80 96 85 97 99 100 93 95 92 99 94 97 82 80 87 79 74 72 74 81 63 62 36 22 26 24 30 32 23 18
30 24 20 23 26 39 38 37 57 88 90 98 99 98 98 99 98 97 98 96 96 97 96 96 85 78 81 89 93 84 99 96 90 92 90 58 68 45 43 32 34 39 38 31 24
26 33 30 34 20 24 39 33 66 96 90 87 99 100 86 96 100 97 98 99 84 84 91 89 100 100 89 89 88 98 91 69 87 97 83 59 69 58 34 48 45 43 42 39 34
25 27 38 29 29 30 39 40 73 83 89 95 82 90 94 93 93 96 93 90 87 77 71 82 96 93 100 96 93 98 98 76 69 60 69 56 57 53 44 47 43 40 40 42 38
22 24 35 33 29 29 40 55 70 71 86 90 87 78 82 87 91 89 92 94 82 91 76 87 95 100 97 95 91 97 96 88 80 76 72 63 50 44 47 45 47 47 45 44 38
18 23 29 38 38 42 42 60 66 64 66 81 84 78 74 79 80 80 85 81 84 80 87 95 90 100 100 99 96 99 99 93 77 69 81 59 43 42 42 37 41 49 54 48 42
35 23 28 36 45 44 53 56 57 59 63 74 82 81 79 74 81 79 83 78 82 90 93 94 86 97 98 98 98 98 96 88 73 65 53 58 49 35 36 42 49 52 50 45 46
36 32 29 32 44 51 64 65 65 58 59 65 78 76 78 78 76 76 72 62 74 74 79 71 83 97 98 96 99 99 92 94 96 74 64 71 51 43 37 48 53 51 52 58 59
35 40 35 35 47 58 63 90 97 82 62 59 60 67 79 78 79 79 67 58 67 74 72 70 74 82 73 74 70 81 83 89 93 91 69 54 52 53 56 47 54 58 56 50 48
40 39 45 37 35 45 64 71 82 95 94 72 66 69 83 85 79 79 80 69 63 67 70 68 64 71 73 68 55 56 58 72 77 72 60 51 55 54 51 53 55 54 45 46 47
51 48 45 47 42 28 69 92 100 97 98 89 89 89 86 84 80 78 77 69 67 65 64 72 73 75 69 56 58 53 47 55 64 69 70 57 54 50 60 66 62 58 51 54 69
42 48 47 52 53 42 76 97 95 100 84 100 78 90 94 84 84 82 80 76 75 76 69 64 69 67 67 76 77 66 38 36 38 47 45 65 48 53 54 56 63 61 58 69 79

GFSSW_700_rhum_072.txt.gz
RH
49 35 77 66 74 86 87 74 77 80 93 82 86 86 95 97 98 99 28 20 62 79 60 42 28 34 52 61 95 98 100 94 75 77 67 70 66 49 40 37 37 37 38 48 46
33 37 45 57 66 67 84 70 72 78 86 81 80 86 99 93 91 88 87 37 71 56 45 60 30 36 58 60 77 97 100 98 82 64 86 80 74 50 47 40 37 38 38 44 55
29 27 26 47 78 70 90 59 73 80 92 84 74 72 92 96 96 88 93 69 44 98 71 76 40 45 61 79 69 76 90 91 86 93 89 91 74 65 58 48 39 36 38 47 61
24 28 19 37 46 72 83 33 60 81 68 64 76 80 82 88 94 83 88 78 47 55 80 79 41 57 74 70 80 96 78 71 83 99 98 94 92 72 65 49 41 40 39 38 63
27 31 40 29 46 65 66 25 56 70 57 70 72 62 81 81 96 99 84 74 41 31 79 81 46 64 70 64 85 88 83 70 77 82 77 95 99 99 71 49 51 42 39 37 37
28 35 51 28 48 67 48 22 33 53 60 63 61 63 62 76 84 97 99 78 37 45 93 92 56 49 83 83 94 87 83 82 79 70 81 83 89 100 79 58 46 41 40 36 33
23 35 51 26 58 70 28 27 35 48 50 54 47 43 62 84 79 96 100 65 50 41 88 98 61 39 66 80 90 83 84 84 68 65 73 73 95 81 85 57 49 48 47 38 34
19 29 50 31 38 67 31 29 37 36 40 41 36 34 38 55 58 65 97 82 40 64 75 88 89 42 48 86 78 80 84 97 76 65 72 65 67 72 73 58 45 44 49 52 50
22 23 47 42 28 46 47 44 39 30 32 34 34 34 35 48 49 56 74 94 32 82 98 86 90 67 66 97 85 89 75 79 81 71 69 54 48 56 55 52 50 45 43 48 48
20 26 40 57 39 33 30 33 42 44 39 38 50 62 60 55 56 57 41 94 61 95 99 99 95 89 77 98 96 92 93 78 81 71 70 60 48 47 48 49 49 41 45 37 43
18 27 40 53 58 45 44 50 51 52 52 46 63 77 71 72 58 48 43 80 82 100 98 97 96 72 80 96 91 86 79 69 77 77 70 66 56 48 44 42 38 37 40 36 38
19 26 36 48 55 56 55 60 70 76 88 90 82 85 73 78 77 42 43 73 64 76 100 99 100 74 74 85 86 71 78 73 69 71 72 72 54 47 54 48 45 42 38 34 34
17 24 38 38 50 56 53 44 56 82 94 98 98 99 71 68 62 47 48 58 86 99 99 100 98 81 75 78 85 90 80 72 72 70 69 69 69 58 43 52 58 50 50 42 37
15 17 25 34 37 42 49 56 61 69 94 100 100 91 94 97 74 48 57 97 94 97 98 100 96 95 82 81 91 89 86 80 74 72 71 73 74 52 42 41 50 48 46 47 43
27 20 18 24 35 40 47 50 60 84 92 97 97 77 75 98 72 44 71 98 91 99 98 98 86 87 87 82 77 81 86 80 80 70 74 74 75 57 42 36 32 34 36 45 44
23 30 25 22 20 32 39 53 54 66 93 98 94 98 96 100 92 78 98 98 91 96 98 93 100 92 89 98 88 85 87 80 79 80 83 69 66 55 44 28 27 24 29 36 34
21 25 30 27 30 27 38 42 54 86 86 87 98 98 100 100 89 96 98 98 98 99 98 99 99 92 92 83 91 85 77 96 97 98 92 64 65 54 35 26 23 25 27 33 36
19 23 35 33 28 30 36 43 54 87 96 97 97 95 97 94 65 100 99 81 88 82 98 96 99 85 76 81 74 88 79 83 89 96 81 65 69 54 38 29 40 34 35 40 40
19 20 30 34 32 29 37 44 64 77 77 87 88 90 96 98 99 100 95 80 81 74 68 86 96 99 94 79 90 96 98 90 69 70 79 57 50 44 38 31 30 40 47 48 48
33 22 23 35 38 38 42 55 67 71 80 81 86 78 89 92 98 93 95 89 81 80 76 77 85 97 99 96 90 100 94 98 82 83 79 62 60 45 35 31 34 32 38 40 44
27 30 27 28 42 44 50 59 61 67 70 83 85 74 72 85 85 88 79 88 98 90 88 85 82 99 100 99 100 100 99 98 80 64 83 68 51 46 40 36 33 38 41 43 45
26 31 31 28 42 48 59 64 57 62 71 77 80 78 76 83 81 79 74 77 82 91 88 88 91 100 98 99 97 100 100 89 72 84 66 65 48 36 39 44 42 46 50 52 54
28 29 34 36 35 39 56 72 81 72 69 69 77 80 80 79 78 80 78 78 81 87 89 92 85 97 98 97 99 99 89 88 87 73 65 65 43 36 33 34 47 56 59 58 53
18 32 36 37 40 39 38 76 98 83 68 68 67 70 73 78 79 75 71 66 80 85 83 77 76 73 70 67 69 90 89 90 99 98 79 68 55 50 46 32 38 56 57 51 57
5 18 33 39 40 45 36 53 87 91 93 87 72 76 88 87 82 78 73 68 65 80 82 79 72 75 80 73 75 73 76 81 84 79 87 77 73 63 49 42 38 43 51 56 55
5 9 13 25 48 44 48 62 86 87 99 90 92 88 89 90 81 80 77 77 74 71 72 76 71 68 67 65 61 55 53 71 85 83 81 76 62 53 41 52 61 54 56 53 47
5 6 6 10 36 43 48 54 73 100 92 95 98 80 88 92 90 86 84 81 72 74 75 74 79 76 71 65 71 70 36 40 39 44 50 76 44 60 51 44 52 65 57 53 54

GFSSW_700_rhum_075.txt.gz
RH
21 28 41 38 71 60 62 80 76 71 72 78 80 81 93 97 93 98 68 30 62 60 84 46 30 35 52 72 94 96 87 79 73 63 47 45 50 66 47 45 42 38 40 44 37
21 29 38 30 36 59 73 80 57 72 73 81 80 78 78 91 97 97 98 63 31 53 63 57 36 38 61 57 84 100 97 79 80 71 53 54 60 66 47 42 41 44 40 46 46
24 30 24 20 50 57 70 54 38 67 73 77 72 78 79 86 94 93 96 92 34 46 82 77 47 51 90 59 59 90 95 85 88 84 65 56 68 68 59 43 44 52 37 40 49
25 31 19 17 41 59 46 21 42 61 53 57 61 68 70 74 95 95 92 87 54 52 83 83 54 49 79 90 63 76 92 91 100 96 83 74 73 69 65 46 53 58 54 42 48
22 32 20 17 46 55 25 19 24 38 57 70 67 56 89 85 93 98 88 90 61 46 60 91 66 59 81 99 90 90 88 96 100 97 96 88 85 98 64 50 47 51 60 49 49
20 32 22 20 38 35 23 26 37 47 53 50 56 63 72 86 76 97 80 80 86 30 85 92 68 62 81 72 92 100 98 92 84 97 94 98 100 99 71 57 48 48 42 41 42
20 32 26 28 25 36 31 31 35 46 52 44 46 50 65 74 73 96 98 88 85 31 59 96 80 68 72 75 86 98 91 92 83 94 96 98 99 97 79 79 82 68 55 40 37
20 30 36 29 33 31 38 37 30 32 34 32 34 36 46 64 76 88 98 97 95 44 53 99 77 75 74 84 76 94 99 99 95 90 97 99 76 76 90 78 89 83 69 43 39
21 29 39 33 38 43 38 37 44 40 33 33 36 46 49 57 52 80 82 94 64 31 85 98 67 70 86 89 88 92 91 90 79 67 68 96 84 87 96 84 72 70 60 47 38
23 31 37 44 37 45 56 48 46 45 43 40 50 66 72 53 49 49 60 95 90 61 97 98 90 66 71 79 96 96 98 87 81 64 60 79 77 78 86 85 73 63 58 56 46
19 29 32 42 43 45 54 71 69 79 79 69 67 80 75 71 53 46 59 92 89 73 97 99 94 65 56 78 84 86 80 80 90 82 77 89 79 81 80 81 70 58 56 50 46
14 19 28 34 43 51 55 53 80 91 94 77 80 75 71 73 69 47 42 83 83 99 99 100 98 68 72 98 90 76 67 81 82 84 80 79 73 66 72 61 54 48 46 49 48
27 17 19 28 40 46 54 63 66 82 98 77 70 56 67 73 50 44 50 82 92 98 98 97 95 71 81 90 92 84 83 80 78 78 84 82 77 62 40 51 48 47 40 37 40
23 30 24 22 26 41 54 60 72 73 94 96 98 85 95 58 54 46 46 84 81 93 99 97 99 80 80 82 90 84 71 80 80 80 77 72 79 49 38 38 44 45 44 41 41
20 26 32 30 23 29 44 56 63 78 89 98 98 98 82 81 52 70 76 68 65 89 98 99 94 90 75 70 83 90 93 88 84 79 78 77 75 60 50 38 28 37 45 48 49
20 23 33 30 29 29 40 50 54 62 84 98 95 97 96 73 82 68 81 77 79 96 98 99 98 99 84 72 82 85 94 92 91 84 88 75 75 66 46 34 32 28 33 50 51
20 20 28 31 23 26 39 45 55 77 81 97 99 97 92 87 80 87 80 76 86 96 99 98 99 94 92 82 86 88 87 98 98 98 93 68 70 63 41 41 37 30 30 33 40
29 24 23 32 31 27 36 42 62 89 90 94 98 100 95 97 89 92 98 98 90 87 98 96 99 97 98 88 90 90 91 84 89 96 83 67 70 55 41 39 38 34 27 28 30
22 26 27 28 32 33 37 41 68 78 83 90 86 96 97 99 97 98 99 100 94 80 77 90 91 100 86 90 79 96 94 89 82 75 84 66 59 48 45 36 34 26 32 31 28
22 26 26 25 34 37 38 48 64 77 81 83 83 85 93 96 81 84 89 88 88 82 77 73 76 93 93 92 94 90 89 98 99 95 87 65 59 42 34 35 32 34 26 29 38
21 24 30 31 32 33 42 52 57 64 69 82 85 80 80 91 91 91 87 88 88 87 81 84 78 96 98 98 99 100 100 92 95 81 80 74 50 38 36 41 38 35 31 33 41
13 16 24 28 30 33 37 46 52 57 57 74 83 80 78 87 86 87 82 82 78 95 87 82 93 99 99 98 99 100 100 99 96 91 74 67 54 41 38 32 40 41 44 47 54
5 6 13 18 28 34 34 37 56 59 60 59 74 81 83 84 81 82 84 83 83 93 88 96 98 98 99 99 99 99 94 97 99 92 75 71 54 39 35 33 30 43 49 52 54
4 8 15 14 21 33 37 51 59 66 66 66 64 73 78 81 82 77 76 80 83 89 94 96 95 74 72 66 72 93 95 99 99 99 84 71 60 54 47 44 48 37 47 58 57
6 6 6 10 21 39 40 43 57 72 84 92 82 73 83 87 88 85 79 76 75 87 91 92 87 79 74 76 76 80 82 88 100 95 98 80 72 60 56 53 53 49 38 61 61
6 7 7 7 8 11 27 42 51 61 79 78 87 90 94 92 88 89 88 82 77 71 86 86 81 74 72 75 78 75 71 71 82 81 84 76 78 60 62 64 56 47 43 48 52
8 8 7 8 8 12 14 25 46 71 76 97 91 90 88 91 94 86 88 89 93 76 76 82 82 80 79 72 76 84 45 45 46 49 53 78 37 58 57 53 51 41 44 46 56

GFSSW_700_rhum_078.txt.gz
RH
15 17 23 13 14 33 52 68 59 48 67 61 72 72 71 89 97 98 89 48 97 67 63 72 35 34 65 71 90 96 91 84 75 68 52 47 50 44 53 44 39 45 44 33 33
16 18 25 15 14 36 40 27 28 54 61 66 75 75 73 92 96 98 98 70 87 68 85 74 40 34 75 74 99 94 92 81 77 72 61 50 54 49 55 46 43 52 48 45 46
21 18 27 22 16 28 23 22 36 59 57 55 65 69 73 80 87 89 97 80 46 65 82 93 52 34 84 86 92 99 92 89 84 77 67 51 61 54 60 45 57 53 49 59 57
20 20 28 29 18 26 24 22 24 39 48 50 64 64 65 68 74 72 92 96 40 46 78 89 63 38 86 88 74 94 99 91 90 80 75 61 60 59 65 57 58 50 50 55 66
19 26 27 33 25 23 27 24 27 41 50 61 64 56 79 80 76 83 81 97 54 26 70 91 79 42 97 84 85 95 97 95 79 87 75 68 70 68 67 62 65 59 59 65 60
19 27 26 33 34 25 24 26 28 38 40 42 51 60 71 86 88 100 79 96 83 32 75 94 91 49 82 91 92 90 98 99 92 94 77 75 74 82 70 73 62 70 57 64 63
24 29 32 30 45 33 27 33 26 31 42 44 44 44 55 79 81 78 95 94 95 53 89 100 98 65 79 90 97 89 87 85 87 94 98 97 97 86 70 88 73 60 61 63 63
24 28 32 36 41 46 37 35 38 31 31 34 36 42 48 63 69 94 96 97 96 66 97 100 89 74 77 81 95 92 89 97 90 85 71 83 87 78 81 91 90 67 60 73 55
19 26 32 37 42 52 56 53 54 42 37 36 42 54 56 63 65 88 95 97 94 65 100 99 87 75 90 86 88 92 91 91 98 89 81 83 73 92 91 98 92 93 86 76 59
14 19 28 37 43 50 57 68 73 75 69 49 53 66 67 60 71 59 69 97 98 87 88 99 86 81 96 88 97 96 88 92 93 95 100 86 72 80 88 98 81 74 78 82 77
25 16 19 30 44 50 60 62 77 79 78 74 69 65 73 58 60 55 73 95 99 83 68 97 89 69 77 99 86 94 89 87 89 92 99 93 88 87 96 86 96 85 70 70 65
20 29 22 22 32 50 60 67 72 82 77 64 61 59 79 72 62 54 76 96 79 84 94 98 98 60 68 100 83 80 81 82 91 90 88 85 90 93 91 64 86 87 69 65 61
21 24 32 29 32 37 60 70 75 87 91 88 88 68 72 70 47 56 83 92 93 78 96 98 93 59 64 88 86 73 70 82 88 87 90 93 87 77 63 77 65 76 65 63 57
21 21 30 30 35 35 50 62 74 80 95 100 94 77 67 69 44 59 91 86 91 99 99 93 91 73 72 87 91 84 76 71 80 95 92 88 84 67 66 55 54 40 49 56 52
23 19 24 28 26 35 44 52 66 78 90 100 98 86 74 71 53 41 75 72 77 97 98 98 100 97 79 82 89 74 70 74 87 84 88 80 79 63 52 46 36 41 45 51 51
28 25 22 27 28 28 41 44 60 68 94 92 87 96 82 80 79 66 60 68 72 94 98 99 100 99 82 82 91 97 92 91 88 89 90 77 78 71 49 36 33 34 35 41 50
21 22 25 23 29 31 37 46 58 78 89 93 98 88 93 85 83 100 62 59 65 87 98 99 99 100 92 73 79 97 92 95 95 96 89 67 81 64 52 39 30 31 34 30 34
21 24 24 22 29 33 35 45 56 87 97 97 96 86 81 87 87 89 86 57 67 82 100 97 99 100 100 85 76 92 90 84 88 96 88 70 80 51 39 37 33 34 34 32 32
20 23 26 26 30 34 35 44 57 72 84 92 89 88 92 96 96 93 93 55 54 70 93 98 97 99 100 99 86 91 100 92 89 78 83 62 60 45 37 33 32 29 31 28 27
14 15 19 26 29 34 35 43 63 68 73 76 78 88 95 94 93 94 80 88 88 77 88 82 84 99 99 99 97 92 89 94 97 97 91 66 59 47 34 32 38 38 33 39 32
5 7 9 21 26 31 37 50 54 62 68 76 80 82 84 91 92 90 90 81 85 94 96 88 78 98 100 99 99 100 100 98 87 81 87 78 50 40 38 39 36 33 35 37 36
4 5 4 10 15 29 37 43 52 60 59 65 76 82 79 84 87 88 85 80 90 89 84 85 85 85 96 98 93 96 91 94 93 88 94 76 58 43 39 44 37 28 33 41 47
5 4 4 7 9 19 31 38 50 69 70 65 64 74 84 82 84 86 84 82 82 91 98 94 94 92 98 94 98 99 96 97 94 94 95 87 67 47 48 38 39 40 38 41 52
7 6 6 6 5 8 14 31 38 46 54 60 70 77 80 83 83 84 82 84 86 88 97 98 91 80 73 71 71 94 86 89 99 99 90 88 78 65 56 48 51 47 50 40 49
9 7 6 6 5 5 8 14 27 51 65 80 74 82 80 82 81 86 86 84 83 85 98 99 97 96 84 81 79 79 76 81 100 94 99 82 81 74 65 57 60 57 55 50 46
10 8 6 6 6 5 8 13 16 36 69 82 98 97 100 100 94 89 88 88 84 82 91 93 97 89 83 76 72 78 80 81 81 89 99 99 89 62 62 63 59 63 60 59 51
12 10 7 6 6 6 8 12 20 35 40 72 94 98 95 97 97 98 96 91 89 89 85 94 97 95 90 78 73 84 45 49 49 52 53 88 38 61 56 57 51 57 57 53 41

GFSSW_700_rhum_081.txt.gz
RH
12 17 25 23 16 14 20 19 22 35 46 52 61 69 73 74 83 98 100 70 73 87 85 73 50 30 50 73 95 84 94 98 80 70 58 49 43 44 47 50 42 42 40 39 35
14 20 25 30 19 17 22 22 22 30 37 42 60 74 74 81 73 85 98 84 43 81 79 75 60 31 43 64 86 98 98 83 65 76 60 52 43 47 49 54 43 44 43 41 43
15 24 25 35 25 20 22 24 22 25 35 35 41 52 68 73 62 84 98 89 50 67 57 69 76 38 75 68 78 86 94 94 87 80 65 60 52 52 50 57 45 51 59 46 48
19 23 26 33 34 24 22 23 22 26 35 43 48 48 62 70 65 81 96 95 53 93 78 84 79 37 75 91 81 92 99 98 89 78 70 66 57 56 50 59 50 50 54 46 52
21 23 29 31 43 32 26 26 24 27 29 36 43 49 56 78 71 98 93 97 58 89 83 98 85 43 55 92 82 99 91 96 96 80 69 68 65 63 50 61 63 61 48 48 63
18 23 26 34 41 43 35 32 27 30 35 32 32 34 46 74 78 96 90 97 64 75 76 93 94 54 58 84 87 94 91 92 96 91 76 73 68 63 54 56 62 71 56 53 56
17 18 28 32 40 53 52 45 36 31 33 32 31 30 36 71 80 91 86 96 74 55 58 83 99 65 73 81 89 83 87 97 92 95 93 77 66 59 58 54 67 72 74 67 67
14 14 20 32 44 51 62 64 62 46 38 34 35 35 38 53 78 82 88 94 67 49 88 96 99 64 88 89 86 82 90 84 84 85 82 76 55 50 54 56 66 77 84 74 67
20 20 16 24 42 54 58 73 75 79 68 47 51 53 54 65 78 98 86 90 73 61 86 97 99 77 79 89 89 94 96 92 88 85 79 66 49 56 64 62 74 81 88 77 67
17 21 26 23 30 53 63 65 76 72 65 54 61 65 74 67 87 94 100 95 88 82 93 98 96 81 97 85 98 96 86 80 76 82 79 83 67 63 60 66 82 87 88 73 64
16 16 29 29 34 39 64 71 76 78 55 58 62 68 74 64 58 64 84 92 97 85 94 99 90 79 100 93 86 86 74 79 79 79 79 62 63 67 65 56 61 85 88 74 63
19 17 25 29 33 39 55 70 77 87 84 88 64 63 68 62 52 80 88 90 98 95 97 99 96 72 79 95 90 90 74 90 91 88 90 80 68 67 69 62 78 97 87 89 79
29 20 21 27 30 38 49 63 76 84 92 99 80 49 53 54 57 95 96 99 97 83 78 97 94 81 90 97 90 96 86 86 88 87 85 82 86 84 86 65 72 74 83 74 74
22 26 22 25 30 33 45 54 75 82 89 94 92 58 47 52 91 100 95 93 77 78 82 98 99 88 83 86 86 81 84 88 84 87 89 89 89 73 80 63 56 59 78 67 66
18 20 24 24 31 34 42 50 70 78 87 86 83 45 52 50 67 88 79 79 94 68 96 97 96 76 68 63 62 85 84 80 70 74 78 85 90 71 65 68 65 53 70 72 62
15 20 24 25 30 34 41 49 58 69 95 95 91 90 72 57 62 93 78 60 82 92 98 99 100 88 80 92 91 84 81 85 90 87 90 76 81 71 58 49 46 46 39 56 82
14 20 24 26 29 34 39 48 58 76 90 92 90 99 85 69 84 100 68 54 74 86 98 99 100 98 83 90 96 95 95 94 94 95 90 69 79 62 43 41 43 42 42 41 38
10 14 18 26 26 31 37 42 57 90 96 83 87 86 94 74 84 89 76 52 55 62 86 98 98 97 99 90 80 90 88 80 93 92 83 75 76 46 32 33 33 42 39 36 38
5 9 13 18 25 27 33 42 63 77 89 95 88 85 84 94 88 78 95 69 56 58 84 83 96 99 98 98 85 75 96 92 94 85 84 65 70 48 38 27 32 32 30 34 39
3 4 6 10 20 24 30 47 59 69 77 83 85 90 91 89 100 99 85 70 57 66 79 90 91 99 95 99 98 94 78 90 95 97 92 71 60 40 34 39 39 36 32 31 30
3 3 4 6 10 13 25 37 50 55 61 70 84 83 88 95 94 90 84 75 68 70 82 82 86 99 98 96 88 100 99 94 85 82 82 75 47 40 39 41 42 38 32 34 28
4 3 3 4 6 7 14 22 34 50 64 70 66 85 85 83 85 92 90 79 79 78 78 83 93 98 94 90 96 93 96 99 88 84 92 77 63 40 39 37 43 37 34 35 36
6 4 4 4 3 4 5 9 19 37 48 73 76 73 83 88 88 86 88 84 83 85 87 88 99 98 100 97 98 94 90 86 97 87 92 86 64 50 46 46 48 50 51 45 37
8 6 5 4 4 3 3 5 11 19 33 54 72 90 86 86 93 90 88 88 88 93 98 99 99 81 72 64 70 95 88 91 87 93 87 85 76 48 44 42 42 52 54 60 52
9 8 6 5 5 5 4 4 6 10 21 34 70 99 97 96 95 87 85 97 89 93 98 98 98 96 77 82 84 84 79 80 96 88 97 76 60 48 41 48 55 59 57 60 61
11 10 8 7 7 6 6 6 6 7 12 20 28 38 87 98 90 97 95 98 97 98 91 97 98 97 96 88 82 87 76 77 77 75 88 83 68 38 50 63 67 61 63 64 63
12 11 10 10 10 8 7 7 9 10 15 27 29 48 48 77 90 97 97 85 97 98 96 95 97 98 95 90 89 92 68 55 50 48 46 66 32 40 33 41 56 68 62 56 59

GFSSW_700_rhum_084.txt.gz
RH
12 18 22 29 34 31 27 17 17 20 29 38 45 62 67 64 76 93 98 86 62 87 86 79 56 33 74 99 98 92 93 81 70 70 59 42 38 42 46 50 42 37 34 31 34
16 17 21 27 35 36 33 22 17 17 27 40 40 42 64 75 85 78 98 97 54 93 99 74 70 32 46 82 99 98 99 85 74 76 73 59 48 46 46 49 44 42 38 35 33
17 19 23 28 34 40 39 28 20 18 21 37 48 49 57 73 56 82 94 99 60 71 92 75 78 41 42 67 87 92 89 94 96 88 77 61 58 56 49 47 49 43 41 39 36
18 17 25 29 33 41 48 38 24 22 23 34 43 53 60 66 93 86 97 98 74 76 86 78 80 54 62 59 84 86 95 100 78 66 66 63 58 59 54 51 53 45 43 44 43
15 16 23 32 36 42 55 49 34 26 27 29 31 33 54 72 71 98 87 97 86 83 89 79 82 79 62 78 80 94 99 96 82 82 72 63 63 69 60 53 53 51 54 57 47
20 16 20 26 39 45 57 62 52 35 30 29 31 33 41 68 73 72 95 96 74 81 70 97 70 73 92 75 89 78 94 88 90 80 82 70 67 68 59 57 54 59 55 59 56
16 20 22 24 36 48 56 70 69 67 43 34 33 39 52 72 78 91 79 97 66 98 73 97 86 63 90 78 91 99 87 86 86 85 90 81 74 64 72 66 57 57 64 56 60
16 16 27 30 33 45 60 73 69 59 62 42 46 50 55 60 86 85 79 96 73 97 94 98 89 73 64 73 83 82 90 90 89 85 87 90 74 76 72 63 62 58 61 66 63
16 16 23 36 39 40 62 66 68 52 45 47 55 55 57 74 86 79 79 92 82 90 87 98 93 72 67 73 96 100 74 75 91 80 91 85 80 84 57 54 56 56 56 69 75
23 17 20 33 37 43 61 69 74 67 45 47 54 57 67 93 82 77 68 90 80 63 76 95 95 75 82 92 76 95 73 79 79 73 74 88 87 57 47 47 48 50 53 65 84
25 23 19 30 34 44 59 68 80 80 52 42 56 64 63 63 74 81 89 84 77 78 98 98 95 93 85 94 85 86 83 80 86 70 77 87 76 53 48 38 41 42 48 60 79
19 24 23 27 32 38 53 65 78 81 83 44 43 51 52 61 92 82 84 83 71 95 92 98 98 99 82 90 90 89 74 76 76 65 78 89 82 52 49 44 46 40 46 55 82
14 16 22 24 31 36 47 54 76 80 74 56 40 40 53 84 100 80 74 82 76 95 87 98 96 88 87 67 85 84 71 77 77 86 90 88 77 80 47 43 47 42 45 63 78
12 14 21 23 30 36 41 52 71 81 83 54 51 43 57 92 96 89 86 83 98 82 82 92 85 76 92 82 87 87 80 88 84 84 72 84 54 68 62 41 47 53 67 72 70
10 13 21 24 29 34 39 47 65 78 84 78 70 63 45 68 90 97 96 82 74 69 80 86 93 82 95 91 89 84 82 92 90 84 84 85 80 54 57 54 44 46 63 80 75
8 9 15 21 27 30 36 45 61 69 90 92 82 80 63 53 80 83 88 81 70 67 70 93 95 97 93 83 73 77 84 85 83 79 71 58 71 50 55 35 31 35 42 50 78
6 8 10 15 20 26 34 46 58 77 80 91 94 98 71 84 98 85 81 83 94 81 86 100 97 86 88 76 80 87 86 81 80 84 60 64 71 48 46 33 35 37 40 48 96
4 5 4 8 13 21 32 41 61 74 78 78 87 84 89 80 96 94 90 77 78 75 97 99 98 92 85 97 95 89 75 60 67 56 45 75 60 42 24 30 30 37 37 38 43
3 3 3 4 6 13 27 39 64 79 83 87 87 82 78 86 89 91 82 89 63 66 92 99 96 95 91 88 92 96 96 89 87 77 69 52 64 35 30 30 33 37 39 40 42
3 2 3 3 4 7 18 36 55 67 71 72 79 86 86 84 93 97 98 76 58 56 66 84 96 98 99 97 94 87 84 94 95 81 66 53 55 37 37 37 41 39 37 34 32
3 3 3 3 3 4 8 24 40 52 58 60 67 80 83 84 87 91 91 68 60 61 69 84 93 99 99 95 98 88 98 82 78 74 60 47 38 36 38 42 40 41 32 31 31
3 3 3 3 3 3 4 6 14 24 38 57 58 66 80 85 80 88 83 85 82 74 68 82 96 100 92 88 91 99 96 93 78 76 75 70 49 41 43 42 42 45 42 38 36
5 4 3 4 3 3 4 5 7 8 12 28 44 58 70 79 92 84 86 82 89 85 92 87 98 100 99 98 95 93 93 91 95 89 94 68 51 46 40 39 40 44 46 49 51
7 5 5 4 4 4 4 4 5 7 9 10 15 48 77 80 91 94 95 92 91 97 97 98 97 83 63 65 67 92 95 100 99 97 81 83 67 52 47 48 45 39 34 35 45
9 8 7 7 7 6 5 5 5 8 11 13 18 25 72 76 89 88 89 91 95 100 100 98 97 93 81 73 71 69 73 96 100 92 89 77 73 72 41 39 42 45 48 48 44
9 8 8 8 10 11 10 7 6 7 11 14 24 33 31 38 77 97 95 98 94 89 100 97 98 90 97 95 93 96 85 81 87 76 91 92 83 68 48 48 46 52 61 55 56
10 8 7 8 12 14 11 8 8 9 10 17 38 47 40 45 57 73 82 95 97 100 99 100 99 100 96 94 98 97 74 68 60 58 57 83 41 49 42 41 41 41 59 71 56

GFSSW_700_rhum_090.txt.gz
RH
16 18 18 17 20 25 34 44 57 46 25 24 35 38 43 52 63 62 63 77 97 90 95 99 71 33 86 99 95 86 91 86 68 52 58 56 56 56 41 48 46 48 49 47 42
16 18 18 19 24 28 35 48 62 54 31 27 28 33 49 64 77 83 88 73 98 99 99 99 77 58 67 98 94 99 94 74 58 60 58 64 61 48 40 41 40 41 48 38 38
16 17 17 19 29 32 38 52 64 62 47 31 28 28 44 68 79 96 91 83 86 92 95 99 99 98 77 99 100 100 92 68 58 67 68 74 61 49 46 48 34 28 40 35 36
20 18 17 21 30 33 40 55 60 52 61 38 31 29 44 68 80 89 88 96 88 94 88 98 96 95 88 86 98 99 90 69 94 76 79 81 70 62 59 57 38 37 38 42 37
24 21 18 20 28 32 41 58 54 37 43 40 33 32 58 99 65 82 84 82 91 81 80 95 98 96 93 81 79 100 91 96 90 98 84 94 87 68 66 65 54 47 41 43 41
20 22 21 22 26 29 46 62 42 24 33 37 41 40 82 66 65 61 89 79 95 95 98 83 94 87 87 84 94 83 97 92 98 88 88 94 96 90 77 66 51 45 48 43 49
16 21 23 22 25 30 48 62 34 21 34 39 39 57 77 58 69 96 93 83 95 97 96 94 92 96 84 84 92 73 92 97 94 98 88 76 91 71 77 69 59 49 43 47 48
13 18 22 22 24 30 45 64 32 22 34 42 58 80 72 80 74 73 80 74 81 90 85 85 79 92 79 83 84 63 99 98 88 82 84 94 66 80 62 88 77 58 49 45 47
11 14 17 22 24 30 42 64 23 22 32 51 74 82 82 74 74 74 79 93 63 76 77 81 86 76 78 79 81 91 84 88 94 100 88 87 79 67 60 66 59 58 61 57 43
8 13 16 20 22 30 39 59 24 22 40 40 88 85 64 73 74 66 81 85 94 78 72 71 77 69 67 89 88 78 67 71 82 84 91 94 77 66 63 69 74 78 65 68 68
6 13 17 19 22 27 39 51 28 29 40 52 54 63 61 64 60 69 76 99 87 62 78 86 83 75 76 85 64 68 64 54 62 69 80 82 74 74 63 69 70 67 56 51 68
6 12 13 17 22 24 37 54 27 34 37 66 69 57 56 46 53 63 74 96 86 87 93 98 95 85 77 74 75 64 62 53 70 76 77 81 77 68 70 69 71 56 48 48 64
7 8 11 12 20 22 33 50 56 50 55 42 63 62 52 45 50 57 66 82 97 94 98 90 90 85 88 77 80 79 60 56 71 87 81 72 67 62 60 61 64 66 53 49 65
6 6 8 9 15 19 32 43 58 62 62 59 47 42 58 44 53 61 68 74 86 96 89 84 97 91 87 86 76 75 66 80 77 76 70 68 66 49 41 49 55 61 53 31 40
5 5 5 4 10 17 28 41 54 67 87 58 39 40 52 53 51 73 59 66 84 90 83 96 83 80 91 79 77 72 65 71 71 76 66 73 73 39 45 43 48 51 54 35 30
4 3 3 3 7 15 25 40 50 80 80 69 47 46 84 48 59 65 69 80 80 96 79 92 86 84 84 89 71 90 79 78 76 75 90 62 67 58 38 42 46 51 55 47 36
4 3 3 2 6 13 22 39 60 84 55 57 95 95 60 92 82 79 92 83 90 99 83 61 75 76 70 88 88 84 83 80 90 87 90 48 60 56 41 41 46 47 50 52 55
4 3 3 2 4 8 16 31 62 63 58 62 74 92 93 91 96 86 94 99 87 96 96 70 86 79 73 85 86 79 78 66 73 75 59 45 53 46 40 40 42 43 41 43 54
4 3 3 2 3 4 13 14 19 44 46 61 96 95 88 94 81 96 95 86 94 88 89 96 89 74 76 81 97 78 77 66 96 64 58 57 49 36 38 41 27 42 44 36 42
4 3 3 3 2 3 3 5 7 11 25 37 83 82 72 78 86 91 79 76 76 85 92 96 98 91 89 90 90 82 67 77 91 89 62 37 32 36 35 34 41 47 44 39 37
4 4 4 3 3 3 3 4 4 4 6 14 42 76 74 71 76 86 75 71 83 76 91 90 98 97 100 90 98 88 82 89 81 61 74 60 43 42 37 39 46 47 39 35 35
4 4 4 3 4 3 3 3 3 4 5 7 8 15 34 70 70 69 82 71 78 94 94 89 98 91 76 83 83 99 90 98 95 81 64 58 60 42 42 43 43 42 40 35 34
6 4 4 3 3 4 4 4 4 4 5 7 14 29 64 70 79 60 65 84 90 88 98 97 95 97 99 99 97 94 88 100 91 84 82 74 55 44 44 47 43 44 43 44 41
7 5 4 4 4 6 7 8 9 6 6 8 12 34 50 83 72 68 67 72 84 76 78 96 98 83 71 70 80 92 78 83 95 98 81 75 61 53 52 46 46 52 48 54 48
7 6 5 6 6 7 8 11 11 8 7 8 15 68 75 86 72 62 58 55 55 62 93 99 97 94 86 72 89 88 97 86 92 92 90 77 70 53 48 46 52 63 62 63 62
8 8 5 6 6 7 10 13 12 8 9 11 26 35 23 36 68 64 55 61 81 41 80 98 98 95 87 92 87 96 89 94 79 81 84 76 67 58 55 53 57 56 64 63 69
17 36 7 6 6 8 14 16 15 12 11 9 10 15 24 28 34 49 56 57 67 57 62 93 95 96 97 93 99 97 76 73 73 77 82 86 48 51 57 62 64 66 70 47 43

GFSSW_700_rhum_093.txt.gz
RH
14 16 16 14 16 25 29 37 56 61 55 41 26 29 37 51 70 78 68 71 75 99 98 100 98 46 79 99 94 90 98 79 59 62 63 55 47 43 44 42 34 37 49 67 62
14 19 18 16 18 25 28 44 58 50 41 49 30 27 34 55 77 92 87 84 81 95 95 99 98 50 57 98 100 100 94 73 55 66 61 59 53 42 47 42 40 41 50 44 58
12 18 20 18 20 24 30 48 51 25 26 42 33 29 33 58 67 85 94 86 71 97 98 100 86 51 62 94 98 100 91 72 69 72 66 61 60 54 43 36 43 30 45 38 42
9 15 20 20 20 24 33 52 37 16 26 32 34 33 46 60 53 62 79 76 62 83 95 98 90 76 78 86 100 99 98 89 83 89 75 69 65 59 51 41 32 32 36 28 22
8 13 18 19 20 24 34 52 21 17 28 35 35 38 67 48 58 66 71 70 56 80 75 99 96 98 86 74 92 98 97 100 99 98 86 76 73 62 59 57 41 39 33 33 28
6 11 15 16 20 24 34 48 14 19 31 43 42 68 46 53 88 89 71 66 60 70 81 97 99 96 96 87 86 91 96 100 100 96 92 88 88 72 70 67 62 50 48 38 39
5 9 13 15 20 26 33 38 14 20 34 55 66 56 59 72 83 78 63 68 78 99 92 98 96 88 93 86 88 99 98 100 96 97 96 98 99 70 83 75 62 51 48 45 40
4 7 12 16 20 26 34 28 17 24 33 54 51 56 62 74 75 68 53 65 91 97 87 90 92 97 88 89 83 78 91 95 94 92 100 85 99 96 91 76 68 59 46 46 48
4 6 11 14 19 27 34 29 20 33 36 45 38 54 62 72 74 65 67 84 85 88 86 87 85 79 94 96 97 88 86 73 86 87 99 98 100 93 91 78 59 62 56 46 45
4 7 9 14 19 25 32 26 20 31 36 32 42 69 62 61 67 70 62 76 75 82 77 70 78 74 77 83 87 85 75 92 83 83 87 75 84 76 72 79 66 57 58 51 43
4 7 8 11 18 22 30 28 22 30 32 42 51 57 58 62 63 65 64 77 65 64 62 77 82 77 73 57 53 66 76 76 62 88 83 93 98 67 65 66 68 66 67 64 47
4 8 8 8 16 21 30 38 36 24 30 40 46 53 48 48 59 65 80 74 69 70 65 65 67 77 75 67 74 71 70 56 73 67 87 77 72 60 59 68 77 73 70 69 60
4 7 6 6 12 18 27 35 39 34 27 30 40 40 43 48 50 58 72 71 76 83 78 78 74 90 82 78 79 74 66 66 64 81 92 92 75 77 66 66 69 71 69 60 52
6 6 4 4 10 17 25 31 39 51 33 35 32 35 41 43 54 55 60 62 68 83 96 83 90 81 88 85 77 78 74 66 69 75 86 80 72 48 38 38 59 66 61 49 43
8 6 3 3 8 15 24 29 39 49 70 47 33 36 46 46 47 59 65 70 66 74 84 82 83 90 86 76 87 81 81 77 77 86 74 73 76 56 50 48 44 44 53 58 39
8 5 3 4 7 12 19 26 34 61 64 48 48 41 46 69 52 53 57 64 76 77 79 85 84 81 84 79 80 79 89 82 94 89 85 61 71 62 41 41 44 47 46 48 44
9 4 3 3 7 10 17 24 35 36 45 46 58 67 53 67 59 70 69 78 82 90 96 75 81 83 76 80 86 76 88 92 90 96 87 46 64 50 34 42 44 47 48 53 54
8 4 3 3 5 8 10 21 15 23 34 37 50 52 68 72 84 87 86 92 99 99 97 80 64 62 69 71 81 82 80 73 81 95 71 44 59 52 35 38 44 45 50 52 53
9 4 3 3 4 5 11 6 4 9 14 26 52 61 75 83 84 86 76 76 83 95 94 92 82 65 62 67 82 78 82 74 80 82 73 55 48 46 35 32 37 41 43 44 46
12 4 3 3 3 4 6 4 4 4 6 16 26 54 72 74 91 89 72 62 82 82 85 91 96 70 78 81 92 81 75 78 84 94 78 50 52 37 35 36 40 37 29 37 42
12 5 4 3 3 4 4 4 4 4 4 8 15 30 56 55 75 79 79 70 69 80 94 95 97 92 95 89 81 95 90 78 77 70 74 60 42 41 31 35 37 44 38 36 37
11 8 7 4 5 3 3 3 3 4 5 6 7 13 23 38 39 65 69 72 78 79 84 98 98 98 92 97 97 94 85 78 76 86 64 61 53 47 42 41 46 48 42 37 33
15 6 8 4 4 4 5 5 6 6 6 6 8 12 38 72 79 59 60 69 79 78 95 89 98 96 99 99 98 99 98 82 81 88 75 69 52 49 45 44 45 45 45 47 48
14 7 6 4 6 5 6 7 10 10 8 8 10 19 27 54 61 85 76 73 74 82 82 88 96 98 92 97 89 98 90 99 90 98 84 71 55 48 51 50 50 56 58 55 46
11 8 6 6 4 4 6 8 12 12 11 10 13 25 50 80 70 49 50 49 59 59 56 72 99 92 95 97 93 97 92 97 98 92 86 73 64 52 50 53 60 64 60 62 64
10 9 6 6 6 6 7 12 16 15 14 13 11 14 23 35 32 31 36 45 48 45 50 95 76 95 92 69 91 100 83 95 95 90 90 79 71 60 51 49 51 50 64 68 67
10 12 16 6 6 6 11 18 22 20 17 14 10 11 16 26 29 40 51 50 63 68 62 66 87 84 89 78 97 99 79 73 74 74 74 86 48 53 66 54 57 57 65 60 52

GFSSW_700_rhum_096.txt.gz
RH
6 7 11 15 16 17 19 32 44 19 17 23 32 24 26 31 54 87 83 86 92 96 99 98 100 96 87 98 99 98 99 81 67 47 49 48 35 38 44 37 39 62 65 54 60
6 7 9 14 15 17 21 37 27 13 22 26 29 25 28 40 54 71 79 92 92 94 99 99 98 82 79 99 100 98 98 77 71 51 54 52 39 39 40 45 41 47 68 62 66
6 7 8 12 15 18 23 40 16 15 25 33 30 24 31 43 58 60 76 74 84 91 95 98 100 85 61 97 100 98 100 81 73 63 53 59 53 42 40 43 41 37 50 73 72
6 6 8 10 15 18 24 31 14 18 28 43 36 37 39 41 59 64 75 64 60 74 96 98 100 73 73 82 99 99 100 86 76 72 61 62 58 51 46 43 41 40 60 52 60
7 6 8 9 15 20 26 18 16 23 32 33 33 34 40 70 95 70 63 53 51 71 95 100 99 98 94 73 98 99 100 97 94 75 70 72 61 58 51 45 43 46 40 62 57
8 6 8 10 15 21 27 16 22 24 17 16 22 38 68 91 97 99 65 59 68 62 69 100 98 100 97 79 92 100 99 100 97 89 84 80 65 62 56 51 46 41 41 41 58
8 7 8 10 15 21 29 16 24 19 14 22 38 63 70 81 93 92 64 58 64 50 83 92 99 93 98 90 85 98 99 100 99 99 96 86 73 65 60 56 54 53 41 35 39
10 7 10 10 14 20 30 17 21 16 15 25 40 51 62 83 100 91 68 74 92 54 70 95 99 96 90 91 80 70 89 99 100 98 100 98 87 79 77 78 72 64 50 44 37
12 7 10 10 13 19 30 19 20 14 20 29 34 42 59 73 90 69 83 88 100 85 74 71 93 92 87 85 82 96 92 99 98 94 99 99 100 85 85 83 83 68 55 49 49
13 7 10 9 12 18 29 22 21 16 20 22 24 28 49 67 68 67 76 83 98 86 91 81 87 98 86 88 89 91 83 72 86 88 99 98 98 92 89 94 87 79 60 52 48
15 7 10 8 12 18 28 27 22 22 20 21 28 32 45 53 66 68 67 77 81 80 77 77 80 90 90 84 78 73 70 78 82 92 85 84 96 98 98 85 72 82 75 62 56
23 7 9 7 11 17 26 38 28 19 23 26 28 34 43 51 58 66 75 64 66 70 74 74 74 80 75 71 73 83 69 60 63 58 58 55 71 76 89 68 58 67 55 48 43
23 8 9 7 10 16 26 36 41 21 22 25 28 31 34 42 48 60 71 64 71 79 66 60 74 75 75 73 82 78 79 66 52 48 80 74 81 83 83 80 77 69 63 54 44
20 9 8 6 11 16 26 33 39 43 23 24 26 28 27 36 45 52 64 68 71 74 76 74 72 81 76 82 83 78 73 70 69 72 91 79 84 52 71 76 69 65 63 59 64
33 9 8 5 7 16 26 32 42 46 52 39 26 25 31 27 34 44 54 65 64 78 81 82 82 80 79 81 79 81 82 71 69 72 79 88 88 58 46 45 41 56 57 63 47
45 9 8 6 8 16 27 35 45 50 40 38 43 31 28 37 36 38 43 48 66 70 77 76 78 75 79 86 87 82 81 90 93 90 93 74 82 59 37 31 32 40 28 29 41
33 10 7 5 8 17 28 35 43 34 28 27 37 45 45 34 54 56 48 55 64 75 72 77 79 75 77 85 86 92 97 99 99 98 92 72 78 56 34 36 38 45 37 36 37
38 11 7 5 7 17 29 34 32 10 14 17 30 37 50 58 65 69 71 64 74 98 94 87 69 72 71 80 79 85 77 90 83 92 77 60 73 42 31 28 43 43 43 46 47
46 11 8 4 7 18 26 25 4 6 7 10 30 45 65 72 70 89 80 68 77 80 84 92 83 63 59 68 78 84 83 83 80 89 77 55 46 41 32 24 32 44 44 47 49
21 12 7 5 6 17 24 8 4 4 5 6 9 23 38 59 58 90 82 61 70 79 82 89 96 74 69 72 78 82 76 94 95 97 85 59 57 44 36 29 34 41 40 41 44
22 18 8 4 5 14 16 6 4 4 4 6 7 16 50 67 70 83 84 76 81 81 82 86 97 90 88 84 70 91 87 82 79 77 82 61 48 43 39 35 37 37 37 38 32
25 21 10 4 8 9 5 5 4 4 5 7 8 11 20 28 46 79 78 76 74 94 93 87 92 98 82 84 78 86 78 81 77 84 69 61 50 42 36 34 38 39 37 40 38
23 19 13 5 7 5 4 4 5 7 8 8 9 12 22 35 46 60 63 80 81 84 87 82 97 98 92 100 99 96 99 87 85 74 68 70 53 48 49 51 50 48 45 43 41
29 18 25 10 7 5 6 8 9 11 10 10 12 15 25 31 63 68 77 80 79 78 75 79 87 83 96 98 99 99 97 97 98 97 81 71 57 46 51 51 48 47 48 48 47
34 18 32 10 6 6 7 9 11 14 16 15 16 13 15 22 34 49 54 60 57 44 46 56 86 83 68 80 97 95 98 95 98 95 86 73 70 49 54 54 52 53 55 58 56
24 20 10 9 6 7 7 8 16 20 19 19 17 13 15 19 22 28 30 43 49 59 62 69 93 78 50 55 84 79 73 96 98 98 96 85 70 66 69 68 62 60 62 71 74
18 17 22 9 7 6 7 12 21 20 19 22 16 12 14 21 28 29 41 48 68 94 90 68 94 90 66 70 98 100 86 71 71 78 75 87 61 75 81 85 77 67 67 64 62

GFSSW_700_rhum_099.txt.gz
RH
7 6 6 6 7 12 16 25 18 15 22 32 33 26 21 32 39 49 61 61 93 96 98 93 97 99 96 81 87 99 98 92 74 63 41 45 49 46 49 47 45 50 48 46 72
8 7 5 6 9 13 18 26 13 19 24 26 30 28 23 29 35 56 64 73 82 84 98 90 96 98 91 75 98 100 100 90 74 57 46 43 48 50 48 47 53 57 47 51 55
9 8 5 7 10 14 20 21 16 21 14 15 19 23 21 28 44 58 64 63 79 87 99 92 98 92 80 73 95 100 96 90 70 50 47 44 42 46 42 52 44 46 51 55 48
10 8 6 8 11 15 23 16 18 16 14 18 20 22 29 50 57 63 61 60 57 67 91 77 87 92 81 52 99 99 100 96 75 57 56 53 40 41 40 45 50 42 59 71 69
37 10 7 7 12 16 25 15 16 15 20 30 37 42 51 59 80 60 56 58 65 65 98 99 98 94 90 75 98 99 100 100 76 62 57 56 51 45 45 45 51 50 48 44 56
80 14 9 7 12 18 26 16 14 15 23 29 34 41 53 55 78 61 52 53 49 65 96 85 87 86 77 84 96 99 100 100 98 72 64 63 59 55 48 44 47 54 52 50 54
94 16 12 8 12 19 27 17 13 16 23 28 32 38 50 45 79 77 61 50 69 86 97 92 94 90 86 80 85 95 99 100 95 81 75 63 63 62 54 50 48 53 56 63 67
100 29 14 7 12 19 28 18 13 17 22 28 33 36 41 42 55 76 69 60 51 84 82 88 98 87 84 92 92 76 98 99 100 95 82 70 72 66 60 55 50 47 50 57 60
99 61 13 8 12 19 29 20 14 22 22 23 26 30 36 38 55 76 78 70 45 52 85 98 99 85 79 98 95 99 95 91 96 100 100 84 85 74 67 62 54 54 57 62 63
100 90 22 8 11 18 30 22 18 18 17 17 23 26 36 41 43 59 75 80 77 66 84 100 100 98 86 83 68 77 82 98 88 99 99 100 96 96 83 75 67 60 56 60 66
100 100 42 8 10 16 28 28 23 24 22 17 25 28 35 48 48 57 64 72 67 80 80 84 97 97 94 84 73 82 62 75 82 71 86 99 99 100 92 84 75 63 58 55 55
100 100 43 9 11 14 25 35 26 22 26 25 23 26 33 46 51 52 63 68 68 66 80 79 86 96 94 82 79 82 77 75 82 74 90 67 80 96 99 91 83 73 56 52 59
100 100 49 10 11 12 24 36 39 25 26 25 24 24 31 37 46 57 60 60 61 57 59 71 73 85 88 86 76 83 79 71 67 69 83 65 62 59 68 85 80 69 62 53 52
98 100 37 10 14 15 23 36 43 47 29 23 24 24 24 27 38 52 63 62 66 68 62 58 54 69 77 81 83 82 82 77 67 75 96 80 71 46 52 54 63 59 54 52 47
99 99 69 9 15 14 23 35 47 57 61 29 24 24 26 26 29 32 48 60 62 72 72 74 70 57 68 78 84 80 81 76 73 84 84 90 71 46 48 46 40 45 52 50 44
99 99 72 14 14 11 28 39 50 60 43 31 37 31 27 31 33 31 40 51 68 70 84 78 82 78 82 74 83 86 83 81 79 88 96 77 86 59 36 34 37 41 59 51 45
99 99 47 15 14 14 32 41 52 74 20 29 32 32 42 28 43 47 48 52 59 71 72 70 72 74 72 79 84 88 86 96 98 98 91 78 89 47 44 38 32 38 37 39 39
99 99 39 18 12 20 36 45 65 12 16 12 22 24 37 44 50 52 48 55 65 83 82 75 61 67 72 71 82 87 81 83 89 95 94 81 85 66 38 39 40 42 41 43 33
99 99 45 18 14 28 40 49 14 9 10 9 21 30 40 55 60 76 70 61 66 76 79 91 78 72 72 75 91 95 92 86 98 92 79 78 60 48 44 34 28 39 44 41 42
98 99 46 21 20 35 43 28 9 7 8 10 11 19 32 52 48 72 72 58 66 76 82 85 90 71 72 80 88 96 86 97 99 96 92 69 58 40 34 31 32 24 31 42 42
98 99 54 26 26 43 34 23 8 7 8 10 9 11 23 40 54 68 76 74 83 82 89 96 96 82 80 82 73 93 95 91 93 86 91 72 48 39 33 36 37 33 33 40 42
98 90 37 37 30 31 17 16 7 6 6 7 8 10 14 25 34 71 90 87 83 83 81 86 93 99 78 75 79 90 90 89 83 93 82 62 54 41 41 38 37 40 41 41 42
98 69 52 41 21 14 13 8 7 6 7 10 8 11 16 27 32 54 74 71 75 78 85 88 97 96 89 94 96 98 94 95 98 84 78 78 57 42 45 37 36 43 48 47 45
98 91 73 39 16 13 10 5 7 10 11 12 12 15 16 19 24 38 67 76 83 82 85 83 76 84 91 87 93 96 97 91 98 98 83 73 63 50 50 45 51 51 49 46 45
97 68 23 22 13 26 9 8 10 14 17 17 20 17 14 20 21 35 55 74 62 44 40 44 86 88 73 72 74 68 88 98 98 97 90 74 72 62 53 52 52 55 50 51 51
96 50 26 22 20 16 8 9 12 18 18 20 22 16 13 16 20 27 31 34 40 57 79 80 74 99 63 52 51 62 75 80 96 98 98 97 80 70 67 61 57 62 69 67 66
97 44 20 29 18 12 6 9 18 20 18 21 18 13 11 14 23 25 32 44 57 85 93 85 78 96 86 93 78 84 70 73 71 84 88 97 74 81 89 74 66 69 72 74 71

GFSSW_700_rhum_105.txt.gz
RH
78 86 98 91 23 7 9 11 18 12 17 19 24 27 29 33 31 28 34 60 86 83 82 88 84 48 48 74 75 83 98 99 99 97 82 87 65 45 42 42 58 66 48 68 99
81 94 92 97 78 10 9 14 15 13 19 22 28 34 34 36 30 30 31 64 84 86 95 94 66 51 70 84 83 92 89 99 98 89 99 83 71 50 48 44 51 59 51 60 92
77 85 96 100 94 26 10 15 17 14 19 25 27 36 38 34 26 39 37 46 70 98 98 100 71 74 82 82 80 80 96 94 99 93 93 85 70 57 46 52 58 58 56 59 88
100 80 96 100 100 71 10 15 19 14 20 25 26 33 37 32 30 39 35 52 81 100 94 98 80 81 78 80 74 58 84 92 99 99 95 87 75 69 52 45 52 60 57 66 94
69 98 85 94 94 82 11 15 20 13 19 25 26 30 38 41 31 38 43 78 99 98 99 96 83 90 83 58 59 68 74 97 89 99 98 79 76 82 57 52 48 58 66 61 52
82 98 100 100 98 94 15 14 25 12 19 23 27 26 36 45 36 36 62 100 100 100 95 97 87 81 74 74 63 66 77 95 74 99 98 86 67 82 69 56 52 71 67 70 71
43 85 60 99 100 99 50 14 24 14 17 22 25 27 33 40 44 39 81 91 83 98 96 94 98 92 77 67 60 48 66 82 97 98 100 93 89 85 72 68 62 75 66 68 77
14 78 68 100 98 100 86 14 24 18 20 23 23 28 31 44 46 45 76 88 88 98 91 99 95 94 98 76 70 49 79 98 94 97 100 100 90 79 65 61 67 78 83 79 71
7 13 91 95 98 100 83 18 22 23 18 20 20 26 38 44 49 59 57 82 77 82 99 100 99 93 99 90 84 70 64 84 79 88 99 100 83 69 68 67 69 82 89 85 87
8 8 33 83 98 99 89 17 18 26 23 20 20 26 31 48 50 62 85 86 97 96 96 92 95 99 100 99 77 53 53 59 51 81 99 100 80 70 68 69 68 71 77 85 93
13 9 12 31 95 99 98 28 39 28 29 24 23 25 30 48 50 62 69 88 98 90 84 93 85 95 95 86 63 43 33 81 83 66 98 98 100 93 80 76 73 65 66 73 81
16 13 8 23 92 97 83 42 26 33 33 24 23 25 28 37 46 58 68 72 75 95 94 90 91 94 100 90 88 86 77 92 88 94 93 82 97 98 92 75 72 68 65 66 73
14 19 13 20 76 99 94 53 29 37 45 36 24 25 28 28 34 50 61 67 65 60 80 82 84 88 91 92 89 91 84 93 93 97 95 60 83 90 95 91 76 68 62 65 75
15 22 16 20 98 96 88 36 32 39 52 40 24 25 25 25 29 32 50 64 64 70 61 59 67 80 81 90 87 82 84 86 85 95 97 88 78 72 77 88 84 75 67 61 62
24 22 18 29 99 98 45 36 35 52 78 34 30 26 27 26 24 27 30 37 52 58 70 65 60 56 63 71 73 70 79 77 84 85 81 96 89 48 49 58 56 74 70 65 58
30 22 30 69 99 95 40 36 48 70 73 35 30 25 26 25 26 28 28 31 38 41 47 62 72 66 64 67 78 82 81 84 87 97 96 76 89 48 46 37 47 42 45 71 61
27 24 23 93 100 95 43 56 76 93 35 37 33 31 30 27 24 31 24 31 35 36 38 42 55 73 80 74 91 93 87 96 97 96 90 82 99 44 46 38 36 40 54 79 71
28 21 48 96 100 88 42 80 81 40 36 28 30 34 37 29 31 30 28 31 42 55 66 68 54 74 87 94 94 96 82 73 91 94 88 87 97 47 45 38 52 48 53 61 76
98 64 35 97 84 93 47 75 53 30 32 25 26 33 32 34 28 34 34 42 55 64 68 71 73 62 78 86 92 97 94 81 80 83 82 75 72 50 46 45 39 43 41 38 45
98 98 100 98 93 84 52 66 50 38 32 26 28 28 28 30 30 27 38 54 63 73 84 87 86 72 70 82 86 94 93 99 97 96 94 74 68 45 39 46 43 38 36 36 41
94 100 98 99 98 73 63 50 39 51 36 32 32 22 27 29 31 36 43 58 78 81 91 94 92 74 63 84 91 97 96 91 93 92 83 72 50 42 36 34 36 38 36 35 44
38 100 94 100 98 82 32 52 50 41 33 33 24 21 23 26 26 37 40 54 69 75 80 82 87 89 66 79 78 78 97 98 96 98 78 64 51 45 44 38 37 37 35 37 39
100 98 93 98 99 74 29 72 51 37 33 33 18 16 19 24 26 32 42 54 74 80 77 75 91 88 59 82 97 95 78 93 97 97 87 77 61 51 49 47 39 41 42 43 44
97 98 100 98 97 86 48 72 54 34 24 26 17 15 18 22 22 24 37 48 53 60 69 82 84 84 80 67 79 78 61 68 75 96 96 76 58 57 57 58 52 47 49 50 51
98 98 85 91 99 95 59 57 45 41 20 19 21 19 25 19 17 20 28 41 50 54 53 49 52 69 72 70 61 57 47 57 62 59 97 98 89 71 62 67 61 59 55 54 51
97 99 83 77 99 80 46 61 37 25 23 19 23 25 20 16 15 18 24 29 32 40 56 69 64 69 97 99 52 45 40 52 50 56 68 84 88 77 73 61 62 66 62 56 52
98 98 95 96 59 51 40 52 35 22 24 24 23 21 18 16 14 22 26 30 39 62 58 35 52 77 80 99 83 63 98 94 88 91 100 100 89 98 76 84 77 72 68 70 64

GFSSW_700_rhum_108.txt.gz
RH
66 71 74 72 73 82 97 41 13 22 14 15 22 28 26 20 18 17 20 34 66 83 75 81 87 93 55 62 80 66 76 87 98 95 97 98 98 96 76 93 91 70 86 50 51
38 92 81 84 85 86 91 76 12 21 15 16 22 25 27 20 20 22 30 45 74 92 77 93 78 72 68 70 83 77 85 91 89 88 94 100 97 84 82 89 98 83 69 56 53
16 56 96 81 74 88 82 94 14 20 18 18 20 24 28 23 23 30 32 36 49 77 92 98 79 69 71 67 79 72 89 92 97 98 99 94 99 99 97 81 85 69 58 57 57
6 21 50 77 99 97 100 87 17 20 20 17 20 22 29 34 33 27 37 55 77 83 97 87 91 89 81 80 69 76 77 95 92 98 100 99 97 97 79 81 81 53 50 49 54
4 7 28 76 99 99 97 93 85 17 25 17 19 23 26 37 38 34 56 57 70 87 91 86 95 96 84 73 66 67 68 78 92 83 99 98 88 98 100 97 72 59 64 65 63
5 4 9 52 77 61 90 73 90 54 21 16 18 22 25 38 42 38 63 72 88 90 88 90 83 85 86 64 67 55 68 87 75 84 95 100 99 100 92 77 70 67 71 67 64
4 5 6 8 51 84 93 99 98 50 28 19 20 21 24 35 40 46 76 84 96 100 99 98 97 100 88 84 48 53 58 81 70 91 97 99 90 86 84 83 72 76 72 68 72
3 4 7 8 40 79 80 91 95 34 28 33 20 19 21 28 38 47 74 77 100 100 100 98 93 95 94 91 66 59 52 80 81 85 95 98 98 99 76 76 69 68 78 78 70
5 5 7 9 8 44 90 81 100 28 26 29 22 20 23 27 40 57 65 78 98 91 95 99 99 96 94 99 96 61 77 40 66 73 86 99 99 98 78 74 76 66 74 90 84
5 5 8 10 9 10 83 85 99 38 35 40 25 22 27 32 37 59 68 97 96 94 96 86 95 94 98 98 72 80 50 30 48 56 58 84 98 100 87 74 76 74 74 83 84
6 6 10 14 13 8 60 97 99 49 50 33 24 24 30 36 44 55 73 79 94 93 90 89 97 94 86 94 83 96 81 49 79 58 49 80 99 99 96 82 69 69 73 88 87
11 10 11 12 16 9 85 100 96 77 37 34 28 25 29 34 42 55 65 72 86 91 89 88 94 90 92 92 94 98 86 90 57 43 67 78 96 100 97 88 73 67 73 73 86
20 16 10 11 16 11 98 99 99 75 55 57 34 30 30 32 39 52 57 60 62 69 91 94 87 85 93 90 93 91 86 88 91 76 90 72 61 93 98 81 74 68 70 73 73
44 32 13 14 21 77 86 96 96 44 65 48 35 35 28 30 34 47 64 64 64 69 62 68 75 80 85 91 82 77 80 82 78 95 95 82 53 93 99 84 76 74 62 63 66
67 38 21 19 28 100 97 77 55 52 60 40 45 36 30 31 36 36 40 42 45 55 65 62 61 63 72 83 81 81 78 78 85 95 87 92 78 64 83 86 84 80 73 64 60
63 36 26 24 64 100 92 48 58 52 77 42 39 31 30 28 33 33 34 37 35 40 48 50 62 71 73 68 81 80 81 81 93 98 75 62 79 38 70 71 80 79 79 75 69
61 35 29 26 88 79 96 49 64 69 45 41 44 35 30 29 31 34 35 37 36 51 48 57 56 60 80 80 73 86 86 79 80 89 61 79 91 49 51 54 67 66 78 76 68
46 46 26 40 100 98 86 70 72 67 50 38 45 41 38 34 34 43 43 38 37 46 58 77 69 71 80 87 89 90 94 64 61 59 55 81 73 48 47 40 56 56 61 62 49
44 97 41 100 100 98 84 84 65 51 39 41 45 51 38 38 37 43 38 45 51 57 73 79 77 63 68 72 84 94 93 85 81 74 68 62 66 49 44 53 53 48 50 50 61
50 98 64 86 91 100 76 77 63 49 36 40 51 37 34 35 38 33 39 50 60 63 80 75 89 74 69 62 80 90 95 98 92 88 62 51 57 45 47 51 53 53 44 43 66
48 99 97 97 99 97 94 76 58 59 46 35 45 33 30 32 37 43 44 57 75 78 80 85 84 86 72 77 87 92 98 98 97 94 58 45 41 47 48 44 46 48 40 42 44
31 94 96 99 99 97 84 68 61 62 45 36 33 29 28 32 36 43 40 44 63 74 88 78 80 93 79 77 82 80 92 94 98 90 92 71 46 52 52 44 41 41 41 41 47
78 96 94 96 98 91 73 58 53 62 33 38 34 22 28 29 38 32 34 43 54 77 77 63 84 74 59 85 91 99 85 74 91 97 96 64 54 63 59 53 43 43 44 52 56
89 98 94 98 98 97 76 66 72 60 35 29 32 24 23 25 26 25 27 35 42 50 56 66 76 80 64 79 81 85 89 90 74 94 99 80 70 58 55 61 62 54 56 60 60
88 97 93 92 94 96 80 68 57 56 39 25 27 28 28 28 19 20 20 28 38 34 40 49 54 63 71 77 72 66 52 48 58 70 80 97 82 74 63 61 65 66 62 58 54
94 100 99 98 94 97 88 59 67 54 28 25 26 30 30 26 19 18 20 24 26 36 50 42 41 66 81 94 69 46 42 46 63 67 72 63 75 78 70 66 61 66 67 65 60
95 100 97 96 91 95 52 60 60 43 19 27 27 30 24 21 17 17 22 24 33 48 32 38 52 63 82 75 76 85 88 99 100 100 98 99 99 78 73 70 72 70 68 68 67

GFSSW_700_rhum_111.txt.gz
RH
4 9 20 25 62 78 73 79 84 80 9 18 14 17 21 16 14 14 17 18 22 33 82 76 89 90 93 99 77 90 100 94 70 72 76 82 94 86 97 100 90 58 92 72 72
3 3 11 23 44 80 91 84 86 78 11 19 15 18 19 20 16 16 17 22 37 97 69 80 88 86 69 60 70 84 100 86 75 82 95 75 90 88 100 97 84 74 83 74 82
3 3 3 5 31 60 79 88 83 95 58 12 20 18 19 20 19 20 20 35 55 81 74 82 81 68 82 100 98 99 87 84 87 98 97 82 86 96 99 96 88 79 84 71 74
4 4 3 4 12 63 90 66 71 80 83 31 19 19 22 17 26 26 27 45 48 62 74 69 81 85 96 67 84 85 96 90 89 80 87 96 97 100 97 86 99 74 70 78 54
4 4 4 4 5 31 79 69 70 67 87 56 24 16 22 16 21 31 33 47 55 70 75 85 92 99 97 94 88 82 92 73 81 80 79 90 97 97 100 83 100 92 100 68 67
4 3 3 4 6 10 32 56 83 87 92 30 28 24 21 17 22 34 40 55 61 84 84 69 87 99 98 98 96 98 89 63 62 62 88 85 82 99 83 80 99 99 86 55 74
4 4 3 4 5 9 16 72 92 83 92 36 30 23 23 18 22 34 49 64 79 97 98 92 91 92 98 98 98 99 86 64 68 68 62 65 67 77 74 100 100 94 95 71 76
4 4 4 4 6 7 9 64 94 89 91 37 31 25 21 18 24 36 55 70 76 92 97 94 96 97 94 98 97 100 96 99 85 65 39 47 74 100 88 98 93 94 84 85 74
7 5 4 5 7 8 9 21 87 99 90 32 38 35 24 20 27 41 55 57 96 93 97 97 98 95 86 95 98 89 71 74 78 61 72 70 53 76 100 100 80 90 88 96 84
19 10 7 8 8 12 11 36 41 92 83 42 50 34 25 24 30 43 56 62 84 96 99 94 98 96 84 96 98 78 72 66 67 55 61 60 46 99 94 93 83 70 89 92 91
58 21 14 10 11 15 13 54 81 98 86 43 42 32 23 26 28 42 51 69 79 90 96 86 98 98 91 94 96 87 69 57 52 68 70 80 70 96 93 94 77 68 66 79 74
92 61 23 15 13 16 14 88 99 97 89 72 41 37 28 24 30 35 51 65 84 96 96 84 86 98 82 97 98 84 65 59 77 61 51 81 96 99 88 91 95 75 62 72 83
90 96 42 22 22 46 26 96 100 100 95 69 51 54 34 25 33 33 50 53 66 90 87 90 95 77 86 91 82 75 71 67 73 92 76 81 83 100 78 87 83 75 73 82 77
90 90 65 31 31 72 99 70 94 97 60 64 57 43 40 28 32 34 52 58 64 77 90 83 84 78 93 85 79 71 80 83 82 81 59 80 77 96 80 94 78 71 74 74 83
88 95 79 40 39 99 100 100 92 70 88 56 50 43 36 32 37 34 44 48 68 87 78 87 76 93 85 77 87 83 74 82 76 72 66 60 62 75 91 90 90 84 71 71 76
94 97 86 50 49 90 79 66 75 80 83 50 47 38 35 31 32 31 31 32 36 38 62 57 49 64 88 73 67 78 81 78 76 79 68 52 57 59 74 85 83 83 86 67 66
96 97 79 38 67 100 89 66 86 97 53 58 60 37 42 46 33 34 38 66 78 70 78 70 71 52 57 91 85 80 85 77 76 80 56 69 61 48 54 69 90 88 89 90 64
97 73 45 28 96 100 100 72 100 77 53 46 53 39 76 50 47 46 78 68 63 75 78 69 67 70 71 96 97 95 86 77 81 60 41 68 54 64 61 54 69 81 90 90 88
84 90 62 33 98 98 90 97 97 80 46 48 46 71 82 46 58 62 70 67 68 76 70 64 59 66 61 57 90 92 96 87 84 58 48 44 53 49 54 60 58 64 76 84 83
72 98 70 98 98 96 97 100 78 44 42 45 61 60 52 75 57 57 62 40 79 51 54 80 75 71 77 52 80 82 82 89 79 78 54 39 42 49 60 60 58 63 57 56 57
72 97 88 98 99 97 92 100 82 58 44 52 39 57 59 67 67 62 67 46 50 68 60 86 84 78 72 86 82 84 96 92 92 95 90 58 55 67 59 49 51 54 49 43 44
72 97 96 96 98 96 95 81 74 61 50 34 24 25 64 54 71 69 72 39 47 62 87 82 84 81 60 66 92 98 94 77 87 97 87 84 81 75 64 45 42 42 42 44 50
69 98 98 95 98 96 68 72 72 55 43 31 24 20 25 53 65 62 30 33 41 57 76 66 89 74 62 87 84 93 93 90 92 99 93 77 85 80 78 70 49 44 40 41 49
85 100 98 98 96 99 88 62 78 67 48 24 23 21 23 39 30 42 41 31 37 45 50 59 66 72 63 76 91 85 84 76 95 98 85 80 94 86 86 90 82 64 58 59 57
89 99 96 90 95 99 82 77 73 52 36 26 26 30 36 64 47 47 21 29 34 32 41 46 50 66 83 87 89 82 59 59 60 79 88 85 92 96 98 95 92 82 65 63 61
91 99 93 100 89 96 83 78 72 48 33 30 29 30 32 50 25 33 21 29 30 34 41 35 45 62 75 88 86 62 58 44 51 87 89 93 72 86 78 88 74 78 75 69 59
94 94 86 91 81 90 88 76 64 49 24 28 27 29 28 27 23 16 22 23 28 38 30 41 48 66 75 63 81 85 90 91 100 100 99 100 93 80 71 74 72 72 74 75 74

GFSSW_700_rhum_114.txt.gz
RH
8 5 4 4 26 22 29 49 80 80 89 59 14 21 16 16 17 12 13 18 24 30 41 67 65 75 98 98 92 99 98 90 75 85 70 59 66 80 76 83 82 79 96 99 99
10 8 5 4 3 5 24 44 73 93 82 74 62 21 18 15 16 14 18 20 27 38 55 65 74 76 78 80 94 95 95 78 72 80 78 72 83 89 99 81 85 94 96 100 90
11 8 6 5 4 5 15 49 62 85 65 67 76 22 16 14 13 13 22 27 34 37 51 59 77 88 71 89 87 82 72 67 77 96 91 83 80 94 92 79 82 96 90 87 97
11 8 6 4 4 12 9 26 84 73 76 81 83 28 18 18 21 13 24 29 40 46 52 64 80 94 92 96 100 97 87 82 76 98 93 82 94 99 92 57 77 98 99 87 98
9 6 5 4 4 12 34 69 96 88 88 81 67 28 23 20 18 16 23 31 48 51 58 91 96 92 91 94 97 98 72 89 85 82 88 77 74 69 74 72 65 85 96 97 100
9 5 4 4 4 6 23 99 20 64 96 83 78 29 30 23 26 20 26 36 58 58 68 80 100 93 86 94 92 94 92 92 88 71 62 55 54 60 54 71 77 71 98 99 96
10 8 5 4 4 4 12 13 68 94 100 80 88 31 33 26 20 23 27 47 65 67 91 91 96 90 84 92 83 92 95 83 73 51 45 49 54 54 53 69 71 74 97 82 80
29 22 8 6 5 5 7 37 70 47 100 83 88 29 39 30 21 24 33 58 60 69 80 93 99 77 91 95 95 87 92 98 98 81 84 58 40 51 65 78 100 89 85 71 77
94 91 29 11 8 8 7 12 44 52 100 86 90 41 43 23 20 27 40 58 63 75 90 92 83 91 95 97 94 89 86 93 77 85 83 72 54 64 62 89 85 84 83 62 84
78 82 88 31 15 12 10 10 17 84 81 66 91 47 36 24 24 34 46 56 73 84 86 91 89 92 98 84 98 99 99 92 76 78 74 70 67 66 62 86 92 90 93 97 93
88 75 91 79 28 20 14 17 48 70 46 93 70 40 36 26 28 32 44 52 76 83 85 92 86 95 99 98 88 94 84 75 60 62 66 56 58 83 82 97 74 74 87 93 95
93 86 89 91 46 51 43 22 71 90 87 100 88 48 39 28 27 30 38 49 96 91 92 96 86 95 90 74 91 97 94 82 70 72 73 56 52 84 85 95 96 83 78 92 90
80 94 87 94 66 41 100 86 86 99 83 93 88 66 46 38 33 26 35 45 57 68 87 80 76 89 91 84 89 87 96 83 85 81 76 89 68 76 88 93 99 83 69 82 92
63 95 94 98 70 52 100 87 100 94 98 96 70 61 58 36 32 27 29 37 53 65 71 76 81 87 82 83 81 83 87 86 71 78 90 73 74 80 94 92 99 82 71 63 76
68 94 96 97 60 98 98 98 92 94 98 99 63 59 47 38 40 32 30 34 39 53 75 57 88 81 69 88 88 83 85 72 78 69 78 63 64 94 84 83 93 74 68 76 76
95 95 96 94 39 96 98 98 96 96 97 74 64 44 38 37 32 30 26 28 30 40 56 61 61 60 63 52 61 66 54 75 75 75 76 57 57 96 94 94 96 92 63 67 72
95 96 96 59 43 91 95 91 97 98 56 79 62 42 84 39 31 30 32 72 55 70 75 71 70 72 73 76 75 93 87 85 88 89 85 53 56 65 59 78 98 99 88 72 72
93 73 48 35 52 98 94 96 98 85 62 81 68 60 77 61 50 37 65 64 76 74 73 64 65 72 55 89 91 84 88 96 95 94 90 61 77 55 58 69 72 100 100 99 80
90 97 91 69 74 95 86 98 98 79 85 79 86 75 70 47 63 77 64 70 60 59 72 79 60 70 77 53 66 71 86 87 94 63 62 50 54 52 60 59 65 82 98 99 99
98 84 95 75 97 96 93 96 79 63 80 87 62 59 64 66 68 59 56 63 67 58 52 82 79 80 70 85 87 89 80 86 82 94 69 58 64 76 59 58 66 63 68 66 97
97 80 97 97 98 94 98 94 79 56 47 71 67 55 62 63 58 57 64 66 38 41 89 87 83 70 66 85 85 78 80 94 87 92 97 96 98 80 78 64 72 61 57 52 58
88 99 96 98 86 86 94 83 64 48 38 38 38 42 59 66 68 67 74 25 30 38 87 82 72 67 78 79 96 78 91 86 93 88 93 97 97 83 87 77 62 66 55 60 60
80 96 98 97 95 91 82 78 62 50 31 32 26 22 26 34 64 53 24 20 26 29 40 40 62 82 86 95 82 85 84 81 89 98 81 89 97 97 82 74 77 64 66 67 65
66 93 88 89 94 98 96 85 71 55 41 27 32 38 61 41 24 34 47 21 26 30 39 42 51 67 87 77 75 78 56 63 71 88 85 95 96 92 82 78 75 86 72 66 62
57 76 73 82 97 96 75 73 77 52 28 30 57 32 35 57 55 44 19 20 24 31 34 40 45 51 62 82 84 78 47 49 51 65 88 81 82 96 98 88 92 73 71 68 63
42 63 65 75 83 95 78 77 57 31 29 33 35 31 25 24 24 21 18 23 24 30 31 38 46 69 49 37 34 40 49 44 56 82 86 90 98 98 99 85 72 68 68 68 62
55 54 59 57 62 69 70 66 55 28 28 29 25 31 25 22 17 14 18 20 24 30 27 38 41 71 77 55 75 82 78 75 88 99 92 98 82 81 79 76 63 62 68 67 67

GFSSW_700_rhum_117.txt.gz
RH
24 19 13 8 8 6 5 43 24 55 91 85 73 71 22 21 14 14 16 20 16 21 32 44 63 72 99 89 98 99 100 100 77 75 49 51 58 56 62 70 37 55 54 59 79
26 20 15 9 7 5 5 23 39 71 84 86 60 63 29 19 13 14 16 21 22 23 35 47 63 95 100 93 87 94 99 90 64 66 64 66 84 72 65 68 55 66 54 61 73
24 19 14 11 8 5 6 93 26 44 57 69 62 75 41 19 21 24 20 19 24 34 40 48 59 77 94 99 91 80 62 62 73 66 87 78 76 77 74 63 45 51 46 53 72
20 14 9 7 6 5 5 84 70 95 62 80 82 80 32 22 29 27 20 24 30 45 48 53 82 97 97 99 94 100 81 67 68 81 79 76 81 79 82 58 60 74 62 60 68
24 17 10 6 5 5 6 100 98 93 95 72 73 77 62 34 24 28 19 26 45 56 54 71 90 93 96 84 91 92 85 84 70 86 80 88 73 66 66 56 89 71 81 88 82
33 24 15 9 5 5 6 8 71 100 61 99 57 80 79 32 36 29 20 31 54 68 67 90 89 98 100 84 90 84 81 81 84 70 94 90 70 85 48 53 83 71 76 82 82
20 49 49 17 7 6 6 8 36 87 86 95 84 83 67 33 30 26 26 38 61 76 82 99 96 97 98 87 85 79 76 78 84 86 91 96 76 63 56 55 56 60 74 70 80
18 37 83 52 16 8 7 7 8 72 100 72 85 99 43 39 35 26 34 43 59 74 93 83 88 96 95 94 89 84 80 57 56 77 93 96 47 54 68 76 70 79 93 81 77
65 82 72 82 49 14 11 7 9 26 100 56 75 93 50 41 24 30 37 55 59 88 86 80 83 89 96 96 91 92 91 86 86 74 84 94 55 42 65 61 63 92 99 79 73
94 90 85 90 85 67 41 16 9 17 85 88 69 84 51 26 27 34 43 63 75 87 80 88 91 83 89 98 96 97 100 100 100 91 87 81 60 54 52 63 78 81 92 92 59
82 80 89 91 96 89 75 21 18 34 72 81 81 66 40 33 32 40 47 65 82 82 82 88 91 78 92 91 88 91 90 93 85 85 82 72 74 59 60 80 91 79 88 100 87
67 57 88 95 96 90 89 42 36 45 78 97 89 70 42 36 35 36 41 60 77 67 91 100 77 85 93 91 85 86 97 92 99 97 94 77 66 72 66 80 95 93 89 81 87
96 81 74 91 96 88 88 60 76 59 81 85 97 92 69 46 39 26 41 54 66 65 82 85 79 83 89 88 73 82 88 97 91 79 76 78 65 88 90 77 94 92 92 74 89
94 84 81 96 96 53 98 93 95 80 93 96 84 72 58 50 40 36 38 56 71 80 78 62 92 85 86 83 90 80 87 86 72 76 76 68 82 90 93 93 96 93 96 88 88
98 98 96 96 64 99 95 91 94 89 93 100 75 66 61 43 44 34 36 36 33 30 33 34 52 54 45 55 92 88 68 62 63 79 77 62 89 96 100 100 100 94 94 80 82
97 96 97 76 45 96 81 86 82 94 96 96 62 52 48 46 34 27 30 40 35 44 72 72 76 71 78 46 83 76 79 55 51 75 80 65 75 74 85 96 98 94 100 94 89
85 79 71 40 38 94 99 95 94 87 86 94 58 71 69 38 31 34 64 78 68 52 58 63 80 74 72 42 77 79 78 87 87 90 89 65 71 86 73 89 95 100 92 100 100
93 68 54 31 87 94 95 95 89 93 100 76 68 81 67 65 44 71 73 78 61 49 62 80 68 74 80 84 88 74 92 97 96 91 93 68 66 89 68 72 73 99 100 100 100
76 54 44 60 90 95 96 91 100 94 99 80 85 76 50 62 62 68 67 61 67 51 58 86 63 79 78 86 73 79 77 84 96 94 91 77 74 59 64 68 82 72 99 92 94
64 51 67 71 90 96 92 100 100 97 89 78 65 64 59 70 57 59 63 64 42 47 77 86 85 75 74 54 69 78 78 77 82 94 95 91 100 99 92 85 70 77 85 84 96
63 47 72 81 90 73 94 93 72 61 61 64 56 61 63 55 58 57 53 59 28 42 83 67 76 66 63 95 81 73 80 87 92 93 97 96 98 96 98 97 88 76 75 70 60
47 55 73 75 70 73 68 71 49 37 25 32 39 49 63 63 59 38 32 21 24 28 39 59 60 84 98 92 80 77 76 83 89 82 96 95 98 96 94 98 95 84 74 71 67
42 53 59 56 60 68 70 66 48 26 20 20 24 33 32 37 42 22 23 21 23 25 28 36 36 76 88 69 39 62 67 68 93 94 100 96 97 92 96 99 100 93 80 68 64
49 59 59 51 57 64 60 58 39 24 30 29 39 41 46 30 17 19 19 20 22 26 30 40 48 47 74 75 67 43 52 57 59 70 90 84 86 86 97 94 90 88 81 71 63
64 60 47 49 58 52 54 55 27 25 25 33 26 25 30 34 29 17 16 20 22 26 28 37 44 43 49 51 44 43 46 49 51 58 80 79 96 82 85 91 89 82 78 74 67
59 75 58 46 51 54 56 43 17 22 23 24 24 24 23 21 16 14 16 18 19 23 27 31 42 42 54 61 39 40 44 42 66 77 70 82 88 88 86 86 79 78 69 70 72
49 68 76 50 54 57 49 26 20 21 20 21 22 23 24 21 14 14 17 17 19 21 23 29 31 43 41 58 75 65 46 47 49 56 62 66 71 75 72 57 55 62 60 66 70

GFSSW_700_rhum_120.txt.gz
RH
32 29 26 21 13 10 8 7 43 100 72 61 92 75 53 35 28 16 15 16 19 18 22 33 47 55 54 60 89 98 99 81 50 54 32 48 59 52 62 66 29 24 30 28 43
32 28 22 17 12 10 8 7 23 80 94 100 90 78 46 55 24 16 17 20 25 24 25 40 59 55 53 90 96 98 98 77 50 51 57 62 69 52 53 48 44 30 32 23 34
40 32 23 16 11 8 7 7 14 94 76 53 59 73 62 63 26 24 26 22 21 25 36 52 56 58 96 88 82 86 58 66 53 60 66 58 52 69 59 50 35 26 20 17 28
43 40 28 17 10 7 6 7 50 94 82 100 79 78 86 36 30 37 29 18 25 39 51 55 56 80 95 97 99 100 74 77 63 64 76 67 68 70 73 49 63 60 36 29 28
42 44 96 51 24 11 7 10 98 100 91 98 92 78 84 75 33 29 32 26 32 57 60 66 74 93 89 98 100 99 80 85 72 72 65 74 71 77 68 57 61 65 65 54 56
75 60 87 93 78 25 10 11 88 100 100 93 90 52 70 78 46 38 33 30 48 68 71 82 90 94 90 98 99 93 94 80 67 59 71 78 61 88 45 66 71 65 63 58 67
95 95 74 81 96 43 15 9 14 37 88 77 79 93 82 59 41 35 26 33 68 79 83 100 100 100 97 88 98 93 94 82 61 56 63 78 64 57 61 70 70 68 72 73 60
96 96 94 81 86 60 28 12 10 25 58 100 94 84 94 45 39 36 26 43 68 67 91 95 100 99 98 99 93 93 96 80 73 85 85 89 56 52 55 54 52 74 77 82 73
68 79 97 95 96 93 69 28 12 36 56 100 70 79 95 49 46 30 40 59 72 88 100 100 100 97 92 91 93 92 98 96 88 84 99 100 77 55 68 71 70 76 73 98 98
89 61 84 98 97 98 92 85 64 74 55 99 36 65 82 47 36 43 55 67 71 90 93 94 99 97 95 99 98 98 100 95 92 88 100 96 72 68 81 88 74 73 99 100 100
95 94 68 94 96 97 91 81 82 54 28 48 74 76 70 41 33 42 60 76 80 81 87 97 98 78 89 98 99 91 99 100 78 92 94 75 86 84 100 87 72 100 100 100 100
96 94 94 72 96 96 85 79 49 33 33 58 82 74 49 44 37 49 58 69 77 82 99 99 81 87 90 98 99 94 98 88 82 81 85 68 79 100 99 72 98 100 100 100 99
94 80 71 83 96 94 68 78 50 71 91 84 90 92 66 50 41 59 51 61 69 65 76 95 78 89 88 85 81 79 79 95 91 68 59 75 77 96 100 100 100 100 99 100 99
95 91 84 88 90 55 75 50 54 83 73 92 92 92 84 52 45 41 45 55 68 73 73 69 90 83 70 55 72 87 82 90 62 61 88 78 90 95 96 99 100 99 94 97 99
98 90 82 77 49 97 66 95 68 94 92 99 78 76 62 48 44 39 45 40 39 51 54 67 72 64 70 60 81 86 57 58 53 55 81 78 93 90 99 99 99 100 100 98 100
75 57 44 78 94 58 62 91 96 90 98 82 62 60 48 45 33 37 66 60 47 41 64 73 80 75 82 63 94 84 84 72 56 66 93 82 97 77 98 98 97 100 100 100 100
38 39 38 66 76 66 64 80 72 90 94 72 62 56 41 38 57 68 77 58 46 37 55 75 78 77 84 63 67 76 69 85 86 91 97 95 88 98 100 89 87 99 100 100 99
35 66 64 75 90 95 88 76 88 94 94 78 76 55 56 57 63 69 80 64 47 42 75 84 70 90 81 86 83 85 86 95 97 97 96 75 97 98 99 92 89 98 100 100 100
26 51 78 72 65 64 59 76 91 91 83 85 74 52 59 70 68 67 76 72 54 62 69 83 68 76 74 68 68 72 93 97 98 95 83 98 94 77 94 98 91 89 96 99 100
36 50 48 42 51 50 53 88 98 89 72 66 68 61 70 65 60 65 49 47 35 62 85 68 81 70 59 66 71 71 79 83 83 92 96 96 97 98 94 95 90 86 78 85 99
45 48 47 32 28 26 31 56 58 60 56 58 57 56 56 60 52 51 24 42 26 36 61 43 62 69 70 87 74 58 74 80 91 99 96 99 98 99 100 98 87 77 86 78 67
47 56 53 36 19 17 19 19 25 30 30 31 32 42 48 44 24 23 21 21 24 30 39 48 62 76 94 76 74 61 79 78 70 86 100 87 98 99 96 99 93 74 67 71 70
38 50 48 39 26 21 18 16 19 16 15 18 25 24 20 25 28 17 17 19 23 26 25 28 31 84 62 47 47 50 58 77 82 87 99 95 98 98 98 100 99 85 70 63 60
47 52 54 53 48 28 14 13 20 25 24 24 31 26 19 19 13 15 19 20 21 22 27 26 31 40 49 49 48 48 48 48 58 70 76 83 87 93 99 100 99 86 78 69 63
35 40 46 63 57 42 20 16 19 23 25 23 22 19 20 18 16 12 15 18 19 21 23 28 30 36 41 46 46 45 44 43 45 56 72 54 61 80 83 85 91 88 83 74 66
36 35 46 57 59 55 24 19 19 19 23 25 24 22 17 15 10 12 13 13 16 18 19 24 36 44 54 45 42 43 41 43 52 54 55 59 55 61 59 61 76 78 74 76 72
38 38 32 39 59 61 38 24 22 18 17 18 21 23 21 15 10 12 13 13 15 16 17 19 22 39 42 56 48 34 37 40 46 51 55 56 55 54 57 53 51 51 55 64 74

GFSSW_700_rhum_123.txt.gz
RH
52 43 36 30 24 19 17 12 9 44 88 100 67 66 82 55 49 27 20 15 18 18 17 21 33 33 37 39 40 49 60 39 25 25 33 34 37 38 49 50 30 20 20 20 24
66 69 51 32 24 16 12 10 9 17 78 100 87 60 88 60 55 27 20 17 17 22 26 23 39 39 44 47 50 57 51 32 40 37 38 36 38 36 45 40 40 29 28 22 16
96 96 96 97 60 24 11 8 8 23 62 80 79 50 76 59 65 28 27 26 23 24 28 35 44 51 54 54 58 60 42 43 41 57 72 54 43 65 48 38 29 28 27 30 26
98 98 95 98 97 66 22 9 8 46 72 92 54 58 68 78 40 38 36 29 22 25 34 50 56 72 79 70 73 65 51 61 56 74 81 78 77 52 64 40 48 48 49 43 45
98 98 98 98 98 97 39 13 23 62 78 96 100 90 74 92 74 34 31 32 26 31 55 66 76 86 86 75 90 84 70 82 74 68 58 74 70 61 53 43 47 56 60 40 33
98 97 98 98 97 98 78 15 77 100 99 99 98 90 67 79 64 54 39 37 28 51 72 90 92 100 94 87 91 89 92 87 75 66 71 73 52 72 39 49 60 63 55 48 43
86 87 90 93 96 97 92 17 32 99 99 100 93 87 71 72 54 47 39 28 40 74 99 100 100 93 94 83 94 92 97 90 72 78 75 80 58 55 55 60 57 53 56 49 50
88 94 64 91 95 95 94 35 17 95 100 75 58 76 98 71 54 38 35 36 56 88 96 100 96 98 94 95 91 93 98 99 76 78 84 91 52 55 76 75 73 67 56 52 52
87 92 96 76 97 96 93 61 18 81 54 59 58 91 97 67 46 43 33 45 70 84 100 97 96 97 96 95 99 98 93 98 81 78 99 99 85 60 88 97 83 66 65 65 62
85 91 99 82 96 97 94 85 73 72 73 94 68 86 91 59 41 39 44 62 79 92 99 92 98 98 96 99 98 95 95 96 96 75 94 84 73 78 98 86 78 81 67 75 72
84 92 95 80 94 96 92 93 77 64 59 59 56 74 86 48 38 43 47 58 70 85 94 94 96 97 98 99 97 94 99 99 73 75 86 71 70 98 94 100 94 99 78 76 87
87 83 80 94 94 88 82 66 74 45 36 84 84 65 55 39 36 41 47 55 72 86 100 98 93 96 97 96 97 94 93 77 78 74 72 62 82 99 98 99 99 100 94 91 92
85 65 70 83 82 65 37 40 33 37 75 88 88 75 58 48 42 45 45 60 82 82 87 97 73 89 96 91 77 78 76 77 94 70 57 78 86 81 89 97 99 99 100 99 91
69 68 69 68 54 33 39 37 70 61 81 93 92 83 87 53 48 41 46 62 79 79 81 65 84 80 73 72 64 72 53 95 82 62 71 90 96 89 84 88 98 99 99 99 99
55 40 52 81 34 29 44 58 60 59 88 79 81 78 57 51 41 43 52 60 60 57 82 77 80 75 74 78 90 61 88 65 57 67 91 87 98 98 78 86 94 97 100 96 100
59 63 46 33 60 17 41 70 69 48 96 71 62 60 45 36 34 65 72 55 56 54 70 83 82 75 84 73 60 90 82 82 69 76 90 85 92 86 96 98 98 99 99 100 100
51 40 28 36 68 69 68 51 50 90 76 61 55 44 39 51 64 74 66 48 39 43 52 74 80 70 84 59 78 87 79 88 89 97 95 89 82 99 98 98 99 98 99 100 100
55 57 54 52 55 48 48 39 76 91 78 61 49 45 50 57 55 60 62 43 63 80 77 80 69 71 67 70 84 93 97 98 94 96 96 80 98 99 96 99 98 98 99 100 100
52 42 39 39 40 42 32 48 82 74 62 59 44 44 56 64 68 66 48 41 54 64 77 78 69 62 70 76 70 83 93 93 98 97 83 92 99 96 83 84 96 98 93 99 99
48 34 32 32 32 30 27 47 75 60 54 51 56 53 56 56 55 64 34 26 34 50 65 51 74 60 58 62 66 76 80 86 85 90 99 85 99 100 87 90 82 85 96 96 99
36 33 38 30 23 18 19 46 55 53 52 47 47 51 47 54 45 29 18 28 27 31 38 45 57 50 56 64 65 61 70 79 94 99 94 99 98 96 97 99 92 83 84 94 93
28 27 20 19 18 18 21 30 33 37 30 33 35 38 39 34 16 17 17 22 25 26 32 31 45 52 52 51 57 70 77 85 78 93 99 85 98 94 84 96 96 79 76 84 82
30 23 21 14 14 14 17 16 15 16 17 23 24 14 12 19 22 15 15 19 23 24 24 28 27 45 40 42 46 51 57 72 78 80 90 87 93 99 85 89 84 79 73 70 79
36 31 25 18 14 12 17 24 25 28 30 31 27 19 16 13 11 14 16 16 19 22 23 25 34 40 44 45 48 44 46 49 62 66 77 82 87 87 94 80 80 75 71 68 64
37 33 28 20 27 19 21 24 29 30 31 27 25 23 16 12 11 12 12 13 15 17 22 25 33 38 41 43 43 42 42 40 42 49 58 52 67 76 74 75 73 72 72 72 67
31 33 37 34 29 14 18 21 22 25 27 28 27 23 20 14 10 12 12 12 13 13 15 16 21 30 38 43 43 38 39 45 48 48 52 55 56 59 60 53 48 60 69 68 67
34 37 36 37 32 37 14 18 19 20 21 22 24 24 21 17 13 14 14 13 14 14 14 13 15 16 21 32 27 23 29 35 36 43 48 51 51 62 66 60 55 54 48 58 68

GFSSW_700_rhum_126.txt.gz
RH
98 97 97 98 98 46 20 15 12 13 57 83 79 86 44 80 62 42 29 24 16 16 15 15 19 27 28 29 33 37 42 28 27 30 42 44 36 36 35 29 21 16 18 15 10
98 98 98 98 98 97 38 14 12 11 42 77 100 100 50 77 69 49 30 22 16 15 18 18 20 22 30 36 40 44 43 34 41 48 54 44 42 44 44 35 24 20 20 22 19
97 98 97 96 98 97 96 26 10 10 50 69 100 99 62 83 64 47 34 25 25 22 21 23 24 29 36 38 48 59 46 54 47 62 74 52 37 59 42 30 28 34 34 33 24
91 97 97 97 97 98 98 47 11 12 58 65 76 83 55 90 52 44 38 32 28 22 22 28 35 41 41 48 74 72 65 72 48 62 63 55 48 35 47 28 34 41 43 44 36
80 87 95 97 96 97 98 53 32 35 84 100 96 68 75 94 73 41 40 46 33 27 30 37 47 60 64 76 92 89 78 69 58 58 55 53 39 48 33 41 54 49 40 40 36
74 82 84 88 97 96 97 70 76 80 78 87 99 96 80 83 73 66 47 38 32 29 46 60 74 91 82 92 97 93 85 64 50 56 51 67 42 64 55 73 59 50 47 44 44
76 78 87 89 75 95 90 49 91 97 98 100 98 91 68 53 59 52 44 34 31 40 74 99 98 86 96 90 88 93 85 73 68 78 73 72 47 56 81 80 70 66 61 57 52
83 76 81 76 97 94 80 53 98 99 97 94 94 58 85 80 73 46 40 34 42 65 85 99 85 92 96 86 89 88 94 98 77 81 87 92 53 64 74 76 73 66 56 50 46
74 84 92 73 85 96 78 41 88 99 97 91 42 86 77 67 44 45 41 48 62 76 88 84 98 98 89 92 92 90 92 80 84 76 90 95 84 68 69 68 70 67 66 62 58
80 84 81 84 83 94 66 34 48 66 77 34 70 70 74 55 45 38 44 52 60 75 90 82 92 98 94 98 98 99 98 94 94 73 85 84 65 74 84 96 93 87 76 70 63
73 86 83 85 86 90 76 46 54 52 58 42 68 79 64 48 41 44 46 58 61 73 87 95 97 76 82 96 100 98 99 99 79 66 95 70 64 87 78 86 82 82 99 82 56
74 82 72 64 68 76 76 61 47 50 66 70 70 80 46 38 39 43 43 52 62 74 85 78 81 78 96 100 99 95 91 75 70 72 78 63 78 74 75 88 97 99 97 95 76
61 63 52 51 55 59 62 55 32 33 96 85 68 60 49 46 40 41 43 51 61 56 81 92 67 88 94 85 75 64 56 54 62 70 63 79 86 63 62 84 91 91 91 91 84
50 40 39 38 35 37 36 18 26 61 70 82 80 70 71 51 47 42 46 50 57 60 68 66 75 89 89 88 86 81 54 84 99 91 67 93 93 64 67 76 74 82 99 81 90
33 17 13 15 11 18 20 38 43 36 73 63 72 65 53 41 39 50 56 58 59 70 76 67 83 68 76 81 94 79 94 95 71 58 87 89 98 69 71 71 80 91 99 97 96
26 12 10 9 11 21 39 44 36 34 81 60 61 50 32 30 36 54 63 62 40 49 65 77 84 69 78 68 91 97 98 96 76 80 91 93 93 82 97 99 94 98 99 100 99
38 27 24 29 37 43 34 28 35 63 59 52 45 30 31 50 60 68 55 38 36 54 53 68 86 67 66 64 75 98 90 94 95 94 92 87 83 98 96 96 99 99 99 99 100
48 50 50 60 44 29 28 28 36 60 63 44 35 35 42 50 57 56 47 33 56 75 76 74 59 60 72 77 87 100 98 87 95 96 94 83 88 96 98 96 97 99 99 100 100
41 44 38 37 36 37 37 31 53 65 46 38 36 38 49 56 56 60 57 36 39 59 74 72 55 57 67 70 77 86 96 100 99 80 80 91 93 96 89 81 79 98 98 99 99
26 31 30 28 29 30 29 54 78 76 56 52 44 44 44 38 44 44 34 38 36 37 58 49 55 44 60 61 65 80 83 85 84 88 100 89 98 100 89 91 79 84 95 99 99
22 18 22 27 29 24 17 46 57 56 54 52 56 50 37 28 20 18 20 29 31 32 38 48 53 40 49 56 67 71 79 85 98 94 92 99 90 99 98 88 91 83 89 94 99
18 13 14 20 21 20 34 36 35 38 35 36 36 39 39 33 18 17 17 23 28 30 31 28 37 36 45 51 54 61 70 91 90 97 98 86 76 76 84 87 92 80 79 87 94
22 15 10 9 9 10 12 15 19 19 20 26 23 15 14 12 25 15 17 20 24 27 26 31 27 26 26 36 46 49 51 64 75 80 93 85 80 70 77 83 82 76 72 75 81
30 25 16 8 7 11 13 16 21 25 27 30 26 23 21 19 13 12 15 18 20 23 27 28 32 32 35 39 42 42 44 48 65 65 72 78 75 71 71 73 75 73 70 68 72
25 28 27 27 13 9 14 18 21 23 24 24 23 21 17 14 9 11 11 13 15 17 20 28 35 33 32 31 31 32 33 37 46 50 51 54 58 71 68 50 63 65 65 68 68
21 28 31 34 30 17 14 15 18 20 22 23 24 24 21 14 11 11 14 12 10 14 15 15 22 20 25 25 25 23 32 35 37 43 45 48 45 52 56 51 43 56 61 58 63
15 24 29 28 28 27 21 14 17 18 18 19 21 22 22 21 14 12 13 14 16 15 12 13 14 16 15 16 22 17 12 19 22 28 29 32 36 44 55 61 49 45 46 49 57

GFSSW_700_rhum_129.txt.gz
RH
90 90 95 95 98 98 98 85 23 18 64 85 100 93 46 56 72 60 33 27 26 17 14 14 16 19 26 28 27 25 26 24 31 39 40 46 42 36 32 22 19 17 16 16 14
78 82 84 98 97 98 98 96 46 16 25 95 95 91 80 53 78 56 45 29 27 16 15 16 17 18 19 25 30 32 30 28 40 49 52 51 48 44 36 32 23 23 21 20 15
66 71 84 96 97 98 98 97 54 37 24 71 96 88 93 76 59 61 43 31 21 21 21 21 22 25 22 27 38 38 35 40 49 61 66 55 46 48 46 37 31 34 27 31 27
77 70 87 96 97 96 96 75 65 24 39 86 98 99 89 54 55 43 41 31 28 24 22 22 27 33 36 44 48 40 50 67 44 58 62 60 51 40 46 44 61 37 34 32 34
79 66 76 94 98 97 89 62 52 51 87 78 68 83 75 66 48 43 52 46 35 34 30 34 48 47 51 58 64 64 69 64 59 51 64 64 47 58 48 77 70 58 44 35 32
76 66 65 93 90 96 79 53 42 87 95 94 94 75 77 65 74 62 53 39 38 32 41 59 57 65 76 87 95 86 78 70 59 67 68 68 54 63 76 79 67 59 48 41 37
68 63 74 89 79 88 84 98 82 85 92 81 84 92 66 59 66 60 47 39 32 39 56 80 84 84 88 88 87 78 72 67 71 77 70 63 52 73 75 62 58 56 53 52 45
82 68 66 95 92 76 94 96 98 91 96 97 92 66 52 60 59 46 40 38 42 54 72 95 94 97 97 98 82 72 82 85 70 66 77 71 48 73 66 62 53 64 56 47 42
76 80 94 86 82 62 96 98 99 95 89 76 59 57 50 53 51 45 49 42 49 65 77 91 100 100 89 87 95 94 97 89 70 76 80 81 68 68 78 72 66 64 66 73 62
67 64 66 68 74 57 86 96 94 84 71 34 33 55 52 51 49 46 38 45 56 75 82 83 90 95 87 90 98 97 98 99 97 73 74 68 70 66 75 62 64 65 60 72 66
62 54 62 64 57 52 82 62 46 29 36 45 62 49 45 39 39 42 47 46 52 68 82 87 84 77 92 99 94 98 97 94 83 65 74 61 60 76 70 79 70 70 63 73 65
56 52 64 66 49 41 47 43 30 30 52 71 66 40 36 37 39 43 39 44 49 59 78 78 67 77 87 91 90 81 72 57 50 68 56 56 55 73 66 78 82 83 82 96 94
50 53 58 63 40 35 32 24 24 26 51 57 54 52 49 50 47 40 40 40 44 48 79 74 57 69 82 82 80 75 74 61 65 43 49 82 66 74 57 72 75 74 99 100 100
34 44 48 36 34 24 12 30 43 50 57 69 66 58 55 43 34 32 40 46 46 52 56 57 77 88 80 83 95 86 86 88 88 79 70 89 87 68 64 63 78 89 100 98 93
17 29 33 38 18 10 24 39 38 38 64 63 61 57 37 30 28 42 46 37 28 46 67 60 81 80 66 80 85 93 88 89 93 76 78 90 96 69 78 68 77 89 99 99 100
6 5 6 6 13 34 41 43 41 36 67 57 54 35 31 36 44 46 45 27 28 40 47 55 83 81 65 75 76 94 96 92 96 82 92 92 94 72 99 98 87 95 97 100 99
12 18 14 14 21 32 32 32 39 68 59 51 38 38 43 50 51 49 31 27 35 47 49 51 58 84 70 90 86 98 97 92 87 93 81 84 83 89 100 98 97 98 98 99 99
26 27 42 28 25 24 25 32 41 64 52 36 32 38 46 54 54 48 54 28 37 58 72 58 51 61 69 76 88 99 96 88 92 95 83 84 91 89 98 97 97 99 99 99 99
26 25 24 27 25 23 24 21 52 44 36 38 41 45 47 37 39 35 34 35 33 43 70 72 49 53 65 67 77 89 94 95 96 84 76 86 77 81 78 79 84 97 99 99 100
19 25 22 22 24 21 14 25 43 40 51 46 41 44 40 33 24 20 21 29 31 36 51 55 57 45 55 63 71 78 83 93 92 83 82 81 88 84 68 77 82 88 97 98 100
12 14 15 16 16 12 11 25 33 34 32 35 36 38 38 34 27 20 18 25 27 30 36 44 60 40 46 54 59 65 83 85 98 93 86 85 72 63 72 80 88 84 89 94 99
14 10 10 11 15 15 17 19 17 19 22 25 23 14 13 15 22 18 20 23 24 25 30 32 33 40 46 47 50 51 62 79 88 83 89 89 70 56 66 73 82 80 78 77 95
23 14 8 7 9 10 12 14 17 22 25 26 19 16 17 16 14 14 15 17 20 24 24 26 31 28 28 37 45 45 45 57 75 84 86 86 67 52 63 66 71 76 74 72 73
19 23 14 9 7 8 11 16 20 22 24 24 22 19 16 12 9 10 11 13 14 15 22 28 28 32 34 33 35 36 38 38 50 70 67 63 52 68 66 61 68 72 72 68 67
15 21 25 25 24 9 9 14 17 19 22 23 24 24 21 16 11 8 9 10 11 14 15 17 25 21 25 28 26 26 30 33 36 40 48 42 39 39 47 43 47 62 64 64 67
13 15 23 28 25 16 11 10 12 16 17 18 21 22 22 20 18 11 11 10 10 12 12 14 16 15 11 22 28 20 21 24 26 26 23 32 32 40 45 46 37 43 58 57 59
11 12 14 27 29 27 26 22 19 12 13 16 17 19 21 23 22 21 12 14 11 11 12 13 14 16 13 15 13 14 8 12 14 15 18 16 16 25 36 44 43 43 44 50 48